Darstellungsparameter: Aktuell verwendete Einstellungen:
Skalierung der Graphiken ... ?
xyx+y,   Skalierungsfaktor:      Skalierung: Modus: x, Faktor: 1
Darstellungszeitraum ... ?
Vom - - bis: - -   Zeitraum: 08.03.2019 - 07.09.2019
Min/Max/Avg-Anzeige ... ?
Zeige MMA aktuell
Zeige MMA Monat
Zeige MMA alles
Zeige --A aktuell
Zeige --A Monat
Zeige --A alles
Keine MMA-Anzeige
MMA:
Keine MMA-Graphiken
MMA-Basis: 08.03.2019 - 07.09.2019
Quicknavigation für Darstellung... ?
Tage:      1T, 2T, 3T, 5T -1T -2T -3T -5T +1T +2T +3T +5T
Wochen: 1W, 2W, 3W -1W -2W -3W +1W +2W +3W
Monate: 1M, 3M, 6M -1M -3M -6M +1M +3M +6M
Jahre:    1J, 3J, 5J, 10J -1J -3J -5J -10J +1J +3J +5J +10J
Nutze für die Darstellung ... ?
Originaldaten oder Mittelwerte auf ...
Stundenbasis Tagesbasis Wochenbasis
Monatsbasis Jahresbasis      Datenbasis: Original-Daten
Darstellen als:
Statistik (Auto) Statistik J:M      Darstellung:
Zur Graphik,    zurück zur Übersicht aller Sensoren.
 
Tabellarische Datenbersicht: ?
 
Sensor: Nr:Datum:Temp:Feuchte:Taupunkt:
Aussen-T/F 1 08-03-2019 00:00:00 8.3 C 80 % 5.06 C
2 08-03-2019 00:05:00 8.2 C 80 % 4.96 C
3 08-03-2019 00:10:00 8.2 C 81 % 5.14 C
4 08-03-2019 00:15:00 8.2 C 82 % 5.32 C
5 08-03-2019 00:20:00 8 C 84 % 5.47 C
6 08-03-2019 00:25:00 7.8 C 85 % 5.44 C
7 08-03-2019 00:30:00 7.6 C 86 % 5.41 C
8 08-03-2019 00:35:00 7.4 C 86 % 5.22 C
9 08-03-2019 00:40:00 7.3 C 86 % 5.12 C
10 08-03-2019 00:45:00 7.1 C 87 % 5.09 C
11 08-03-2019 00:50:00 6.9 C 87 % 4.89 C
12 08-03-2019 00:55:00 6.9 C 87 % 4.89 C
13 08-03-2019 01:00:00 6.8 C 87 % 4.79 C
14 08-03-2019 01:05:00 6.8 C 87 % 4.79 C
15 08-03-2019 01:10:00 6.8 C 87 % 4.79 C
16 08-03-2019 01:15:00 6.8 C 87 % 4.79 C
17 08-03-2019 01:20:00 6.9 C 87 % 4.89 C
18 08-03-2019 01:25:00 6.9 C 87 % 4.89 C
19 08-03-2019 01:30:00 7 C 87 % 4.99 C
20 08-03-2019 01:35:00 7.1 C 86 % 4.92 C
21 08-03-2019 01:40:00 7.2 C 85 % 4.85 C
22 08-03-2019 01:45:00 7.3 C 85 % 4.95 C
23 08-03-2019 01:50:00 7.4 C 84 % 4.88 C
24 08-03-2019 01:55:00 7.7 C 82 % 4.83 C
25 08-03-2019 02:00:00 7.9 C 80 % 4.67 C
Sensor: Nr:Datum:Temp:Feuchte:Taupunkt:
Aussen-T/F 26 08-03-2019 02:05:00 8 C 79 % 4.59 C
27 08-03-2019 02:10:00 8.1 C 79 % 4.68 C
28 08-03-2019 02:15:00 8.1 C 78 % 4.5 C
29 08-03-2019 02:20:00 8.1 C 78 % 4.5 C
30 08-03-2019 02:25:00 8.2 C 77 % 4.42 C
31 08-03-2019 02:30:00 8.2 C 77 % 4.42 C
32 08-03-2019 02:35:00 8.3 C 76 % 4.33 C
33 08-03-2019 02:40:00 8.3 C 76 % 4.33 C
34 08-03-2019 02:45:00 8.3 C 76 % 4.33 C
35 08-03-2019 02:50:00 8.2 C 76 % 4.23 C
36 08-03-2019 02:55:00 8.2 C 76 % 4.23 C
37 08-03-2019 03:00:00 8.2 C 76 % 4.23 C
38 08-03-2019 03:05:00 8.2 C 76 % 4.23 C
39 08-03-2019 03:10:00 8.2 C 76 % 4.23 C
40 08-03-2019 03:15:00 8.3 C 75 % 4.14 C
41 08-03-2019 03:20:00 8.2 C 75 % 4.04 C
42 08-03-2019 03:25:00 8.2 C 74 % 3.85 C
43 08-03-2019 03:30:00 8.1 C 75 % 3.94 C
44 08-03-2019 03:35:00 8.1 C 75 % 3.94 C
45 08-03-2019 03:40:00 8.1 C 75 % 3.94 C
46 08-03-2019 03:45:00 8.1 C 75 % 3.94 C
47 08-03-2019 03:50:00 8.1 C 75 % 3.94 C
48 08-03-2019 03:55:00 8 C 75 % 3.85 C
49 08-03-2019 04:00:00 8 C 76 % 4.04 C
50 08-03-2019 04:05:00 8 C 76 % 4.04 C
Sensor: Nr:Datum:Temp:Feuchte:Taupunkt:
Aussen-T/F 51 08-03-2019 04:10:00 8 C 76 % 4.04 C
52 08-03-2019 04:15:00 8 C 76 % 4.04 C
53 08-03-2019 04:20:00 8.1 C 76 % 4.13 C
54 08-03-2019 04:25:00 8.1 C 76 % 4.13 C
55 08-03-2019 04:30:00 8.1 C 76 % 4.13 C
56 08-03-2019 04:35:00 8 C 77 % 4.22 C
57 08-03-2019 04:40:00 8 C 77 % 4.22 C
58 08-03-2019 04:45:00 8.1 C 77 % 4.32 C
59 08-03-2019 04:50:00 8.1 C 76 % 4.13 C
60 08-03-2019 04:55:00 8.1 C 76 % 4.13 C
61 08-03-2019 05:00:00 8.1 C 77 % 4.32 C
62 08-03-2019 05:05:00 8 C 77 % 4.22 C
63 08-03-2019 05:10:00 7.9 C 77 % 4.12 C
64 08-03-2019 05:15:00 7.8 C 78 % 4.21 C
65 08-03-2019 05:20:00 7.8 C 78 % 4.21 C
66 08-03-2019 05:25:00 7.8 C 78 % 4.21 C
67 08-03-2019 05:30:00 7.8 C 78 % 4.21 C
68 08-03-2019 05:35:00 7.7 C 79 % 4.3 C
69 08-03-2019 05:40:00 7.7 C 79 % 4.3 C
70 08-03-2019 05:45:00 7.7 C 79 % 4.3 C
71 08-03-2019 05:50:00 7.7 C 79 % 4.3 C
72 08-03-2019 05:55:00 7.6 C 79 % 4.2 C
73 08-03-2019 06:00:00 7.6 C 79 % 4.2 C
74 08-03-2019 06:05:00 7.6 C 79 % 4.2 C
75 08-03-2019 06:10:00 7.6 C 80 % 4.38 C
Sensor: Nr:Datum:Temp:Feuchte:Taupunkt:
Aussen-T/F 76 08-03-2019 06:15:00 7.6 C 80 % 4.38 C
77 08-03-2019 06:20:00 7.5 C 80 % 4.28 C
78 08-03-2019 06:25:00 7.5 C 80 % 4.28 C
79 08-03-2019 06:30:00 7.6 C 80 % 4.38 C
80 08-03-2019 06:35:00 7.6 C 80 % 4.38 C
81 08-03-2019 06:40:00 7.7 C 80 % 4.47 C
82 08-03-2019 06:45:00 7.7 C 80 % 4.47 C
83 08-03-2019 06:50:00 7.7 C 80 % 4.47 C
84 08-03-2019 06:55:00 7.6 C 80 % 4.38 C
85 08-03-2019 07:00:00 7.6 C 80 % 4.38 C
86 08-03-2019 07:05:00 7.6 C 81 % 4.55 C
87 08-03-2019 07:10:00 7.6 C 81 % 4.55 C
88 08-03-2019 07:15:00 7.6 C 81 % 4.55 C
89 08-03-2019 07:20:00 7.6 C 80 % 4.38 C
90 08-03-2019 07:25:00 7.7 C 80 % 4.47 C
91 08-03-2019 07:30:00 7.7 C 80 % 4.47 C
92 08-03-2019 07:35:00 7.8 C 80 % 4.57 C
93 08-03-2019 07:40:00 7.8 C 80 % 4.57 C
94 08-03-2019 07:45:00 7.8 C 80 % 4.57 C
95 08-03-2019 07:50:00 7.8 C 81 % 4.75 C
96 08-03-2019 07:55:00 7.8 C 81 % 4.75 C
97 08-03-2019 08:00:00 7.8 C 81 % 4.75 C
98 08-03-2019 08:05:00 7.8 C 81 % 4.75 C
99 08-03-2019 08:10:00 7.8 C 81 % 4.75 C
100 08-03-2019 08:15:00 7.8 C 81 % 4.75 C
Sensor: Nr:Datum:Temp:Feuchte:Taupunkt:
Aussen-T/F 101 08-03-2019 08:20:00 7.8 C 81 % 4.75 C
102 08-03-2019 08:25:00 7.8 C 82 % 4.92 C
103 08-03-2019 08:30:00 7.9 C 82 % 5.02 C
104 08-03-2019 08:35:00 7.9 C 82 % 5.02 C
105 08-03-2019 08:40:00 7.9 C 82 % 5.02 C
106 08-03-2019 08:45:00 7.9 C 82 % 5.02 C
107 08-03-2019 08:50:00 7.9 C 83 % 5.2 C
108 08-03-2019 08:55:00 7.9 C 83 % 5.2 C
109 08-03-2019 09:00:00 7.9 C 83 % 5.2 C
110 08-03-2019 09:05:00 7.9 C 83 % 5.2 C
111 08-03-2019 09:10:00 7.9 C 83 % 5.2 C
112 08-03-2019 09:15:00 7.8 C 83 % 5.1 C
113 08-03-2019 09:20:00 7.8 C 84 % 5.27 C
114 08-03-2019 09:25:00 7.8 C 85 % 5.44 C
115 08-03-2019 09:30:00 7.7 C 86 % 5.51 C
116 08-03-2019 09:35:00 7.7 C 86 % 5.51 C
117 08-03-2019 09:40:00 7.6 C 87 % 5.58 C
118 08-03-2019 09:45:00 7.4 C 87 % 5.38 C
119 08-03-2019 09:50:00 7.4 C 88 % 5.55 C
120 08-03-2019 09:55:00 7.3 C 88 % 5.45 C
121 08-03-2019 10:00:00 7.2 C 88 % 5.35 C
122 08-03-2019 10:05:00 7.2 C 88 % 5.35 C
123 08-03-2019 10:10:00 7.3 C 88 % 5.45 C
124 08-03-2019 10:15:00 7.4 C 88 % 5.55 C
125 08-03-2019 10:20:00 7.5 C 87 % 5.48 C
Sensor: Nr:Datum:Temp:Feuchte:Taupunkt:
Aussen-T/F 126 08-03-2019 10:25:00 7.7 C 86 % 5.51 C
127 08-03-2019 10:30:00 7.8 C 84 % 5.27 C
128 08-03-2019 10:35:00 7.9 C 84 % 5.37 C
129 08-03-2019 10:40:00 8.1 C 83 % 5.39 C
130 08-03-2019 10:45:00 8.2 C 82 % 5.32 C
131 08-03-2019 10:50:00 8.3 C 82 % 5.41 C
132 08-03-2019 10:55:00 8.4 C 81 % 5.33 C
133 08-03-2019 11:00:00 8.4 C 81 % 5.33 C
134 08-03-2019 11:05:00 8.4 C 81 % 5.33 C
135 08-03-2019 11:10:00 8.4 C 80 % 5.16 C
136 08-03-2019 11:15:00 8.4 C 80 % 5.16 C
137 08-03-2019 11:20:00 8.4 C 81 % 5.33 C
138 08-03-2019 11:25:00 8.6 C 81 % 5.53 C
139 08-03-2019 11:30:00 8.7 C 79 % 5.27 C
140 08-03-2019 11:35:00 8.8 C 79 % 5.36 C
141 08-03-2019 11:40:00 8.8 C 79 % 5.36 C
142 08-03-2019 11:45:00 8.8 C 78 % 5.18 C
143 08-03-2019 11:50:00 9 C 77 % 5.19 C
144 08-03-2019 11:55:00 9.2 C 76 % 5.2 C
145 08-03-2019 12:00:00 9.3 C 73 % 4.72 C
146 08-03-2019 12:05:00 9.5 C 71 % 4.51 C
147 08-03-2019 12:10:00 9.5 C 70 % 4.31 C
148 08-03-2019 12:15:00 9.3 C 72 % 4.52 C
149 08-03-2019 12:20:00 9.1 C 73 % 4.52 C
150 08-03-2019 12:25:00 9.1 C 73 % 4.52 C
Sensor: Nr:Datum:Temp:Feuchte:Taupunkt:
Aussen-T/F 151 08-03-2019 12:30:00 9.1 C 74 % 4.72 C
152 08-03-2019 12:35:00 9 C 73 % 4.43 C
153 08-03-2019 12:40:00 9 C 71 % 4.03 C
154 08-03-2019 12:45:00 9.1 C 72 % 4.33 C
155 08-03-2019 12:50:00 9.2 C 72 % 4.42 C
156 08-03-2019 12:55:00 9.4 C 71 % 4.42 C
157 08-03-2019 13:00:00 9.6 C 71 % 4.61 C
158 08-03-2019 13:05:00 9.5 C 69 % 4.11 C
159 08-03-2019 13:10:00 9.5 C 70 % 4.31 C
160 08-03-2019 13:15:00 9.5 C 69 % 4.11 C
161 08-03-2019 13:20:00 9.5 C 69 % 4.11 C
162 08-03-2019 13:25:00 9.6 C 69 % 4.2 C
163 08-03-2019 13:30:00 9.7 C 70 % 4.5 C
164 08-03-2019 13:35:00 9.7 C 69 % 4.3 C
165 08-03-2019 13:40:00 10.1 C 69 % 4.68 C
166 08-03-2019 13:45:00 10.3 C 67 % 4.45 C
167 08-03-2019 13:50:00 10.3 C 68 % 4.66 C
168 08-03-2019 13:55:00 10.3 C 66 % 4.24 C
169 08-03-2019 14:00:00 10.3 C 65 % 4.02 C
170 08-03-2019 14:05:00 10.2 C 65 % 3.92 C
171 08-03-2019 14:10:00 10.3 C 65 % 4.02 C
172 08-03-2019 14:15:00 10.4 C 64 % 3.89 C
173 08-03-2019 14:20:00 10.3 C 64 % 3.8 C
174 08-03-2019 14:25:00 10.2 C 66 % 4.14 C
175 08-03-2019 14:30:00 10.2 C 66 % 4.14 C
Sensor: Nr:Datum:Temp:Feuchte:Taupunkt:
Aussen-T/F 176 08-03-2019 14:35:00 10.2 C 63 % 3.48 C
177 08-03-2019 14:40:00 10.3 C 64 % 3.8 C
178 08-03-2019 14:45:00 10.4 C 63 % 3.67 C
179 08-03-2019 14:50:00 10.6 C 63 % 3.86 C
180 08-03-2019 14:55:00 10.7 C 63 % 3.95 C
181 08-03-2019 15:00:00 10.8 C 63 % 4.05 C
182 08-03-2019 15:05:00 11 C 62 % 4.01 C
183 08-03-2019 15:10:00 11.1 C 61 % 3.87 C
184 08-03-2019 15:15:00 11.2 C 60 % 3.73 C
185 08-03-2019 15:20:00 11.3 C 61 % 4.06 C
186 08-03-2019 15:25:00 11.3 C 60 % 3.83 C
187 08-03-2019 15:30:00 11.4 C 61 % 4.16 C
188 08-03-2019 15:35:00 11.6 C 61 % 4.35 C
189 08-03-2019 15:40:00 11.7 C 62 % 4.67 C
190 08-03-2019 15:45:00 11.5 C 63 % 4.71 C
191 08-03-2019 15:50:00 11.2 C 64 % 4.65 C
192 08-03-2019 15:55:00 10.9 C 66 % 4.81 C
193 08-03-2019 16:00:00 10.6 C 68 % 4.95 C
194 08-03-2019 16:05:00 10.3 C 70 % 5.08 C
195 08-03-2019 16:10:00 10.3 C 71 % 5.28 C
196 08-03-2019 16:15:00 10.3 C 70 % 5.08 C
197 08-03-2019 16:20:00 10.2 C 70 % 4.98 C
198 08-03-2019 16:25:00 10.1 C 71 % 5.09 C
199 08-03-2019 16:30:00 10.3 C 70 % 5.08 C
200 08-03-2019 16:35:00 10.4 C 69 % 4.97 C
Sensor: Nr:Datum:Temp:Feuchte:Taupunkt:
Aussen-T/F 201 08-03-2019 16:40:00 10.3 C 69 % 4.87 C
202 08-03-2019 16:45:00 10.2 C 70 % 4.98 C
203 08-03-2019 16:50:00 10.1 C 71 % 5.09 C
204 08-03-2019 16:55:00 10.1 C 72 % 5.29 C
205 08-03-2019 17:00:00 10.1 C 72 % 5.29 C
206 08-03-2019 17:05:00 9.8 C 73 % 5.2 C
207 08-03-2019 17:10:00 9.6 C 74 % 5.2 C
208 08-03-2019 17:15:00 9.4 C 75 % 5.2 C
209 08-03-2019 17:20:00 9.3 C 76 % 5.29 C
210 08-03-2019 17:25:00 9.2 C 77 % 5.38 C
211 08-03-2019 17:30:00 9.1 C 78 % 5.47 C
212 08-03-2019 17:35:00 9 C 79 % 5.56 C
213 08-03-2019 17:40:00 8.9 C 81 % 5.82 C
214 08-03-2019 17:45:00 8.7 C 81 % 5.63 C
215 08-03-2019 17:50:00 8.5 C 82 % 5.61 C
216 08-03-2019 17:55:00 8.3 C 83 % 5.59 C
217 08-03-2019 18:00:00 8.1 C 84 % 5.56 C
218 08-03-2019 18:05:00 7.9 C 84 % 5.37 C
219 08-03-2019 18:10:00 7.7 C 85 % 5.34 C
220 08-03-2019 18:15:00 7.6 C 85 % 5.24 C
221 08-03-2019 18:20:00 7.4 C 85 % 5.05 C
222 08-03-2019 18:25:00 7.4 C 85 % 5.05 C
223 08-03-2019 18:30:00 7.3 C 85 % 4.95 C
224 08-03-2019 18:35:00 7.2 C 86 % 5.02 C
225 08-03-2019 18:40:00 7.2 C 86 % 5.02 C
Sensor: Nr:Datum:Temp:Feuchte:Taupunkt:
Aussen-T/F 226 08-03-2019 18:45:00 7.1 C 86 % 4.92 C
227 08-03-2019 18:50:00 7.1 C 86 % 4.92 C
228 08-03-2019 18:55:00 7.1 C 86 % 4.92 C
229 08-03-2019 19:00:00 7 C 87 % 4.99 C
230 08-03-2019 19:05:00 7 C 87 % 4.99 C
231 08-03-2019 19:10:00 7 C 87 % 4.99 C
232 08-03-2019 19:15:00 6.9 C 88 % 5.05 C
233 08-03-2019 19:20:00 6.9 C 88 % 5.05 C
234 08-03-2019 19:25:00 6.9 C 87 % 4.89 C
235 08-03-2019 19:30:00 6.8 C 88 % 4.96 C
236 08-03-2019 19:35:00 6.8 C 88 % 4.96 C
237 08-03-2019 19:40:00 6.7 C 88 % 4.86 C
238 08-03-2019 19:45:00 6.7 C 88 % 4.86 C
239 08-03-2019 19:50:00 6.7 C 89 % 5.02 C
240 08-03-2019 19:55:00 6.6 C 89 % 4.92 C
241 08-03-2019 20:00:00 6.6 C 89 % 4.92 C
242 08-03-2019 20:05:00 6.4 C 89 % 4.72 C
243 08-03-2019 20:10:00 6.4 C 89 % 4.72 C
244 08-03-2019 20:15:00 6.3 C 89 % 4.62 C
245 08-03-2019 20:20:00 6.3 C 89 % 4.62 C
246 08-03-2019 20:25:00 6.3 C 90 % 4.78 C
247 08-03-2019 20:30:00 6.2 C 89 % 4.53 C
248 08-03-2019 20:35:00 6.2 C 90 % 4.69 C
249 08-03-2019 20:40:00 6.2 C 90 % 4.69 C
250 08-03-2019 20:45:00 6.2 C 90 % 4.69 C
Sensor: Nr:Datum:Temp:Feuchte:Taupunkt:
Aussen-T/F 251 08-03-2019 20:50:00 6.2 C 90 % 4.69 C
252 08-03-2019 20:55:00 6.3 C 90 % 4.78 C
253 08-03-2019 21:00:00 6.3 C 90 % 4.78 C
254 08-03-2019 21:05:00 6.3 C 90 % 4.78 C
255 08-03-2019 21:10:00 6.3 C 90 % 4.78 C
256 08-03-2019 21:15:00 6.4 C 90 % 4.88 C
257 08-03-2019 21:20:00 6.5 C 90 % 4.98 C
258 08-03-2019 21:25:00 6.6 C 90 % 5.08 C
259 08-03-2019 21:30:00 6.6 C 89 % 4.92 C
260 08-03-2019 21:35:00 6.6 C 89 % 4.92 C
261 08-03-2019 21:40:00 6.6 C 89 % 4.92 C
262 08-03-2019 21:45:00 6.6 C 89 % 4.92 C
263 08-03-2019 21:50:00 6.7 C 88 % 4.86 C
264 08-03-2019 21:55:00 6.8 C 88 % 4.96 C
265 08-03-2019 22:00:00 6.8 C 88 % 4.96 C
266 08-03-2019 22:05:00 6.8 C 87 % 4.79 C
267 08-03-2019 22:10:00 6.8 C 87 % 4.79 C
268 08-03-2019 22:15:00 6.8 C 87 % 4.79 C
269 08-03-2019 22:20:00 6.8 C 87 % 4.79 C
270 08-03-2019 22:25:00 6.8 C 87 % 4.79 C
271 08-03-2019 22:30:00 6.8 C 86 % 4.63 C
272 08-03-2019 22:35:00 7 C 85 % 4.66 C
273 08-03-2019 22:40:00 7.2 C 85 % 4.85 C
274 08-03-2019 22:45:00 7.3 C 83 % 4.61 C
275 08-03-2019 22:50:00 7.5 C 82 % 4.63 C
Sensor: Nr:Datum:Temp:Feuchte:Taupunkt:
Aussen-T/F 276 08-03-2019 22:55:00 7.7 C 81 % 4.65 C
277 08-03-2019 23:00:00 7.9 C 80 % 4.67 C
278 08-03-2019 23:05:00 8.2 C 79 % 4.78 C
279 08-03-2019 23:10:00 8.3 C 78 % 4.7 C
280 08-03-2019 23:15:00 8.3 C 78 % 4.7 C
281 08-03-2019 23:20:00 8.3 C 78 % 4.7 C
282 08-03-2019 23:25:00 8.3 C 78 % 4.7 C
283 08-03-2019 23:30:00 8.3 C 78 % 4.7 C
284 08-03-2019 23:35:00 8.3 C 78 % 4.7 C
285 08-03-2019 23:40:00 8.3 C 77 % 4.51 C
286 08-03-2019 23:45:00 8.3 C 77 % 4.51 C
287 08-03-2019 23:50:00 8.3 C 77 % 4.51 C
288 08-03-2019 23:55:00 8.3 C 77 % 4.51 C
289 09-03-2019 00:00:00 8.4 C 77 % 4.61 C
290 09-03-2019 00:05:00 8.4 C 76 % 4.42 C
291 09-03-2019 00:10:00 8.4 C 77 % 4.61 C
292 09-03-2019 00:15:00 8.4 C 76 % 4.42 C
293 09-03-2019 00:20:00 8.5 C 76 % 4.52 C
294 09-03-2019 00:25:00 8.5 C 75 % 4.33 C
295 09-03-2019 00:30:00 8.6 C 75 % 4.43 C
296 09-03-2019 00:35:00 8.6 C 76 % 4.62 C
297 09-03-2019 00:40:00 8.7 C 75 % 4.52 C
298 09-03-2019 00:45:00 8.7 C 75 % 4.52 C
299 09-03-2019 00:50:00 8.8 C 74 % 4.43 C
300 09-03-2019 00:55:00 8.8 C 74 % 4.43 C
Sensor: Nr:Datum:Temp:Feuchte:Taupunkt:
Aussen-T/F 301 09-03-2019 01:00:00 8.9 C 74 % 4.53 C
302 09-03-2019 01:05:00 9 C 73 % 4.43 C
303 09-03-2019 01:10:00 9.1 C 73 % 4.52 C
304 09-03-2019 01:15:00 9.1 C 73 % 4.52 C
305 09-03-2019 01:20:00 9.1 C 74 % 4.72 C
306 09-03-2019 01:25:00 9.1 C 73 % 4.52 C
307 09-03-2019 01:30:00 9.2 C 72 % 4.42 C
308 09-03-2019 01:35:00 9.2 C 72 % 4.42 C
309 09-03-2019 01:40:00 9.3 C 72 % 4.52 C
310 09-03-2019 01:45:00 9.3 C 72 % 4.52 C
311 09-03-2019 01:50:00 9.3 C 72 % 4.52 C
312 09-03-2019 01:55:00 9.3 C 72 % 4.52 C
313 09-03-2019 02:00:00 9.3 C 73 % 4.72 C
314 09-03-2019 02:05:00 9.3 C 72 % 4.52 C
315 09-03-2019 02:10:00 9.3 C 72 % 4.52 C
316 09-03-2019 02:15:00 9.4 C 72 % 4.62 C
317 09-03-2019 02:20:00 9.4 C 73 % 4.81 C
318 09-03-2019 02:25:00 9.4 C 72 % 4.62 C
319 09-03-2019 02:30:00 9.4 C 72 % 4.62 C
320 09-03-2019 02:35:00 9.4 C 72 % 4.62 C
321 09-03-2019 02:40:00 9.4 C 73 % 4.81 C
322 09-03-2019 02:45:00 9.4 C 73 % 4.81 C
323 09-03-2019 02:50:00 9.4 C 72 % 4.62 C
324 09-03-2019 02:55:00 9.4 C 73 % 4.81 C
325 09-03-2019 03:00:00 9.3 C 73 % 4.72 C
Sensor: Nr:Datum:Temp:Feuchte:Taupunkt:
Aussen-T/F 326 09-03-2019 03:05:00 9.3 C 74 % 4.91 C
327 09-03-2019 03:10:00 9.3 C 74 % 4.91 C
328 09-03-2019 03:15:00 9.3 C 74 % 4.91 C
329 09-03-2019 03:20:00 9.2 C 74 % 4.81 C
330 09-03-2019 03:25:00 9.2 C 74 % 4.81 C
331 09-03-2019 03:30:00 9.2 C 76 % 5.2 C
332 09-03-2019 03:35:00 8.9 C 78 % 5.28 C
333 09-03-2019 03:40:00 8.8 C 79 % 5.36 C
334 09-03-2019 03:45:00 8.7 C 80 % 5.45 C
335 09-03-2019 03:50:00 8.6 C 80 % 5.35 C
336 09-03-2019 03:55:00 8.6 C 81 % 5.53 C
337 09-03-2019 04:00:00 8.4 C 82 % 5.51 C
338 09-03-2019 04:05:00 8.3 C 83 % 5.59 C
339 09-03-2019 04:10:00 8.2 C 84 % 5.66 C
340 09-03-2019 04:15:00 8.1 C 85 % 5.73 C
341 09-03-2019 04:20:00 7.9 C 85 % 5.54 C
342 09-03-2019 04:25:00 7.8 C 85 % 5.44 C
343 09-03-2019 04:30:00 7.8 C 85 % 5.44 C
344 09-03-2019 04:35:00 7.8 C 86 % 5.61 C
345 09-03-2019 04:40:00 7.8 C 86 % 5.61 C
346 09-03-2019 04:45:00 7.8 C 86 % 5.61 C
347 09-03-2019 04:50:00 7.8 C 86 % 5.61 C
348 09-03-2019 04:55:00 7.8 C 86 % 5.61 C
349 09-03-2019 05:00:00 7.8 C 86 % 5.61 C
350 09-03-2019 05:05:00 7.8 C 86 % 5.61 C
Sensor: Nr:Datum:Temp:Feuchte:Taupunkt:
Aussen-T/F 351 09-03-2019 05:10:00 7.8 C 87 % 5.78 C
352 09-03-2019 05:15:00 7.8 C 87 % 5.78 C
353 09-03-2019 05:20:00 7.8 C 87 % 5.78 C
354 09-03-2019 05:25:00 7.8 C 88 % 5.94 C
355 09-03-2019 05:30:00 7.8 C 88 % 5.94 C
356 09-03-2019 05:35:00 7.7 C 88 % 5.84 C
357 09-03-2019 05:40:00 7.7 C 88 % 5.84 C
358 09-03-2019 05:45:00 7.7 C 88 % 5.84 C
359 09-03-2019 05:50:00 7.8 C 88 % 5.94 C
360 09-03-2019 05:55:00 7.8 C 88 % 5.94 C
361 09-03-2019 06:00:00 7.8 C 88 % 5.94 C
362 09-03-2019 06:05:00 7.9 C 88 % 6.04 C
363 09-03-2019 06:10:00 8 C 88 % 6.14 C
364 09-03-2019 06:15:00 8 C 88 % 6.14 C
365 09-03-2019 06:20:00 8.1 C 88 % 6.24 C
366 09-03-2019 06:25:00 8.1 C 88 % 6.24 C
367 09-03-2019 06:30:00 8.1 C 88 % 6.24 C
368 09-03-2019 06:35:00 8.1 C 88 % 6.24 C
369 09-03-2019 06:40:00 8.2 C 88 % 6.33 C
370 09-03-2019 06:45:00 8.2 C 88 % 6.33 C
371 09-03-2019 06:50:00 8.2 C 88 % 6.33 C
372 09-03-2019 06:55:00 8.3 C 88 % 6.43 C
373 09-03-2019 07:00:00 8.3 C 88 % 6.43 C
374 09-03-2019 07:05:00 8.3 C 88 % 6.43 C
375 09-03-2019 07:10:00 8.4 C 88 % 6.53 C
Sensor: Nr:Datum:Temp:Feuchte:Taupunkt:
Aussen-T/F 376 09-03-2019 07:15:00 8.5 C 88 % 6.63 C
377 09-03-2019 07:20:00 8.6 C 88 % 6.73 C
378 09-03-2019 07:25:00 8.6 C 88 % 6.73 C
379 09-03-2019 07:30:00 8.7 C 87 % 6.66 C
380 09-03-2019 07:35:00 8.7 C 87 % 6.66 C
381 09-03-2019 07:40:00 8.8 C 87 % 6.76 C
382 09-03-2019 07:45:00 8.9 C 86 % 6.69 C
383 09-03-2019 07:50:00 8.9 C 86 % 6.69 C
384 09-03-2019 07:55:00 8.9 C 86 % 6.69 C
385 09-03-2019 08:00:00 8.9 C 86 % 6.69 C
386 09-03-2019 08:05:00 9 C 86 % 6.79 C
387 09-03-2019 08:10:00 9.2 C 86 % 6.98 C
388 09-03-2019 08:15:00 9.3 C 86 % 7.08 C
389 09-03-2019 08:20:00 9.3 C 85 % 6.91 C
390 09-03-2019 08:25:00 9.3 C 85 % 6.91 C
391 09-03-2019 08:30:00 9.4 C 85 % 7.01 C
392 09-03-2019 08:35:00 9.6 C 85 % 7.21 C
393 09-03-2019 08:40:00 9.7 C 85 % 7.3 C
394 09-03-2019 08:45:00 9.8 C 85 % 7.4 C
395 09-03-2019 08:50:00 9.9 C 85 % 7.5 C
396 09-03-2019 08:55:00 10 C 84 % 7.43 C
397 09-03-2019 09:00:00 10.1 C 84 % 7.52 C
398 09-03-2019 09:05:00 10.1 C 84 % 7.52 C
399 09-03-2019 09:10:00 10.1 C 84 % 7.52 C
400 09-03-2019 09:15:00 10.1 C 84 % 7.52 C
Sensor: Nr:Datum:Temp:Feuchte:Taupunkt:
Aussen-T/F 401 09-03-2019 09:20:00 10.1 C 84 % 7.52 C
402 09-03-2019 09:25:00 10.1 C 84 % 7.52 C
403 09-03-2019 09:30:00 10.1 C 84 % 7.52 C
404 09-03-2019 09:35:00 10.2 C 84 % 7.62 C
405 09-03-2019 09:40:00 10.2 C 83 % 7.45 C
406 09-03-2019 09:45:00 10.2 C 83 % 7.45 C
407 09-03-2019 09:50:00 10.3 C 83 % 7.54 C
408 09-03-2019 09:55:00 10.3 C 83 % 7.54 C
409 09-03-2019 10:00:00 10.3 C 83 % 7.54 C
410 09-03-2019 10:05:00 10.3 C 82 % 7.37 C
411 09-03-2019 10:10:00 10.3 C 82 % 7.37 C
412 09-03-2019 10:15:00 10.3 C 82 % 7.37 C
413 09-03-2019 10:20:00 10.4 C 82 % 7.46 C
414 09-03-2019 10:25:00 10.5 C 81 % 7.38 C
415 09-03-2019 10:30:00 10.6 C 81 % 7.48 C
416 09-03-2019 10:35:00 10.6 C 81 % 7.48 C
417 09-03-2019 10:40:00 10.7 C 80 % 7.4 C
418 09-03-2019 10:45:00 10.7 C 81 % 7.58 C
419 09-03-2019 10:50:00 10.7 C 81 % 7.58 C
420 09-03-2019 10:55:00 10.7 C 81 % 7.58 C
421 09-03-2019 11:00:00 10.7 C 81 % 7.58 C
422 09-03-2019 11:05:00 10.7 C 81 % 7.58 C
423 09-03-2019 11:10:00 10.7 C 80 % 7.4 C
424 09-03-2019 11:15:00 10.8 C 81 % 7.67 C
425 09-03-2019 11:20:00 10.8 C 80 % 7.49 C
Sensor: Nr:Datum:Temp:Feuchte:Taupunkt:
Aussen-T/F 426 09-03-2019 11:25:00 10.8 C 80 % 7.49 C
427 09-03-2019 11:30:00 10.9 C 80 % 7.59 C
428 09-03-2019 11:35:00 11 C 80 % 7.69 C
429 09-03-2019 11:40:00 11.1 C 79 % 7.6 C
430 09-03-2019 11:45:00 11.1 C 79 % 7.6 C
431 09-03-2019 11:50:00 11.2 C 79 % 7.7 C
432 09-03-2019 11:55:00 11.3 C 78 % 7.61 C
433 09-03-2019 12:00:00 11.4 C 78 % 7.71 C
434 09-03-2019 12:05:00 11.4 C 77 % 7.52 C
435 09-03-2019 12:10:00 11.5 C 78 % 7.8 C
436 09-03-2019 12:15:00 11.5 C 77 % 7.61 C
437 09-03-2019 12:20:00 11.5 C 77 % 7.61 C
438 09-03-2019 12:25:00 11.6 C 77 % 7.71 C
439 09-03-2019 12:30:00 11.7 C 77 % 7.81 C
440 09-03-2019 12:35:00 11.8 C 77 % 7.9 C
441 09-03-2019 12:40:00 11.9 C 76 % 7.81 C
442 09-03-2019 12:45:00 12.1 C 76 % 8 C
443 09-03-2019 12:50:00 12.1 C 75 % 7.81 C
444 09-03-2019 12:55:00 12.1 C 75 % 7.81 C
445 09-03-2019 13:00:00 12.1 C 76 % 8 C
446 09-03-2019 13:05:00 12.1 C 76 % 8 C
447 09-03-2019 13:10:00 12.2 C 76 % 8.1 C
448 09-03-2019 13:15:00 12.3 C 75 % 8 C
449 09-03-2019 13:20:00 12.4 C 75 % 8.1 C
450 09-03-2019 13:25:00 12.5 C 75 % 8.19 C
Sensor: Nr:Datum:Temp:Feuchte:Taupunkt:
Aussen-T/F 451 09-03-2019 13:30:00 12.6 C 74 % 8.09 C
452 09-03-2019 13:35:00 12.7 C 74 % 8.19 C
453 09-03-2019 13:40:00 12.7 C 74 % 8.19 C
454 09-03-2019 13:45:00 12.7 C 74 % 8.19 C
455 09-03-2019 13:50:00 12.9 C 73 % 8.18 C
456 09-03-2019 13:55:00 13.1 C 73 % 8.38 C
457 09-03-2019 14:00:00 13.3 C 72 % 8.36 C
458 09-03-2019 14:05:00 13.6 C 70 % 8.24 C
459 09-03-2019 14:10:00 13.6 C 70 % 8.24 C
460 09-03-2019 14:15:00 13.6 C 69 % 8.03 C
461 09-03-2019 14:20:00 13.7 C 70 % 8.33 C
462 09-03-2019 14:25:00 13.7 C 70 % 8.33 C
463 09-03-2019 14:30:00 13.6 C 68 % 7.81 C
464 09-03-2019 14:35:00 13.6 C 69 % 8.03 C
465 09-03-2019 14:40:00 13.6 C 69 % 8.03 C
466 09-03-2019 14:45:00 13.3 C 70 % 7.95 C
467 09-03-2019 14:50:00 13.2 C 70 % 7.86 C
468 09-03-2019 14:55:00 13 C 70 % 7.66 C
469 09-03-2019 15:00:00 12.9 C 71 % 7.78 C
470 09-03-2019 15:05:00 13 C 71 % 7.87 C
471 09-03-2019 15:10:00 13.1 C 70 % 7.76 C
472 09-03-2019 15:15:00 13.1 C 70 % 7.76 C
473 09-03-2019 15:20:00 13.1 C 69 % 7.55 C
474 09-03-2019 15:25:00 13.1 C 69 % 7.55 C
475 09-03-2019 15:30:00 13.2 C 69 % 7.64 C
Sensor: Nr:Datum:Temp:Feuchte:Taupunkt:
Aussen-T/F 476 09-03-2019 15:35:00 13.4 C 69 % 7.84 C
477 09-03-2019 15:40:00 13.7 C 68 % 7.91 C
478 09-03-2019 15:45:00 13.8 C 67 % 7.79 C
479 09-03-2019 15:50:00 13.7 C 66 % 7.47 C
480 09-03-2019 15:55:00 13.6 C 67 % 7.6 C
481 09-03-2019 16:00:00 13.7 C 67 % 7.69 C
482 09-03-2019 16:05:00 13.7 C 65 % 7.25 C
483 09-03-2019 16:10:00 13.6 C 65 % 7.15 C
484 09-03-2019 16:15:00 13.4 C 67 % 7.4 C
485 09-03-2019 16:20:00 13.3 C 67 % 7.31 C
486 09-03-2019 16:25:00 13.2 C 67 % 7.21 C
487 09-03-2019 16:30:00 13.3 C 66 % 7.09 C
488 09-03-2019 16:35:00 13.4 C 61 % 6.04 C
489 09-03-2019 16:40:00 13.3 C 59 % 5.47 C
490 09-03-2019 16:45:00 13.3 C 59 % 5.47 C
491 09-03-2019 16:50:00 13.2 C 59 % 5.37 C
492 09-03-2019 16:55:00 13.3 C 59 % 5.47 C
493 09-03-2019 17:00:00 13.3 C 59 % 5.47 C
494 09-03-2019 17:05:00 13.4 C 60 % 5.8 C
495 09-03-2019 17:10:00 13.5 C 60 % 5.9 C
496 09-03-2019 17:15:00 13.4 C 60 % 5.8 C
497 09-03-2019 17:20:00 13.2 C 60 % 5.61 C
498 09-03-2019 17:25:00 13.1 C 60 % 5.52 C
499 09-03-2019 17:30:00 13.1 C 61 % 5.76 C
500 09-03-2019 17:35:00 13.1 C 61 % 5.76 C
Sensor: Nr:Datum:Temp:Feuchte:Taupunkt:
Aussen-T/F 501 09-03-2019 17:40:00 12.9 C 62 % 5.8 C
502 09-03-2019 17:45:00 12.7 C 62 % 5.62 C
503 09-03-2019 17:50:00 12.6 C 61 % 5.29 C
504 09-03-2019 17:55:00 12.4 C 62 % 5.33 C
505 09-03-2019 18:00:00 12.3 C 63 % 5.47 C
506 09-03-2019 18:05:00 12.2 C 63 % 5.37 C
507 09-03-2019 18:10:00 12.1 C 63 % 5.28 C
508 09-03-2019 18:15:00 12 C 63 % 5.18 C
509 09-03-2019 18:20:00 11.9 C 63 % 5.09 C
510 09-03-2019 18:25:00 11.9 C 63 % 5.09 C
511 09-03-2019 18:30:00 11.8 C 63 % 5 C
512 09-03-2019 18:35:00 11.9 C 62 % 4.86 C
513 09-03-2019 18:40:00 12 C 62 % 4.96 C
514 09-03-2019 18:45:00 11.9 C 62 % 4.86 C
515 09-03-2019 18:50:00 12.1 C 62 % 5.05 C
516 09-03-2019 18:55:00 12.1 C 62 % 5.05 C
517 09-03-2019 19:00:00 12.1 C 63 % 5.28 C
518 09-03-2019 19:05:00 12 C 66 % 5.85 C
519 09-03-2019 19:10:00 11.4 C 69 % 5.92 C
520 09-03-2019 19:15:00 11.1 C 72 % 6.25 C
521 09-03-2019 19:20:00 10.8 C 73 % 6.16 C
522 09-03-2019 19:25:00 10.7 C 74 % 6.26 C
523 09-03-2019 19:30:00 10.4 C 77 % 6.55 C
524 09-03-2019 19:35:00 10.2 C 78 % 6.54 C
525 09-03-2019 19:40:00 9.9 C 79 % 6.43 C
Sensor: Nr:Datum:Temp:Feuchte:Taupunkt:
Aussen-T/F 526 09-03-2019 19:45:00 9.8 C 80 % 6.52 C
527 09-03-2019 19:50:00 9.8 C 80 % 6.52 C
528 09-03-2019 19:55:00 9.7 C 80 % 6.42 C
529 09-03-2019 20:00:00 9.7 C 80 % 6.42 C
530 09-03-2019 20:05:00 9.6 C 81 % 6.5 C
531 09-03-2019 20:10:00 9.6 C 81 % 6.5 C
532 09-03-2019 20:15:00 9.5 C 81 % 6.41 C
533 09-03-2019 20:20:00 9.5 C 82 % 6.59 C
534 09-03-2019 20:25:00 9.4 C 83 % 6.66 C
535 09-03-2019 20:30:00 9.4 C 83 % 6.66 C
536 09-03-2019 20:35:00 9.4 C 83 % 6.66 C
537 09-03-2019 20:40:00 9.4 C 83 % 6.66 C
538 09-03-2019 20:45:00 9.3 C 83 % 6.57 C
539 09-03-2019 20:50:00 9.3 C 83 % 6.57 C
540 09-03-2019 20:55:00 9.3 C 84 % 6.74 C
541 09-03-2019 21:00:00 9.3 C 84 % 6.74 C
542 09-03-2019 21:05:00 9.3 C 83 % 6.57 C
543 09-03-2019 21:10:00 9.7 C 76 % 5.68 C
544 09-03-2019 21:15:00 10.2 C 79 % 6.73 C
545 09-03-2019 21:20:00 10.2 C 80 % 6.91 C
546 09-03-2019 21:25:00 10 C 81 % 6.89 C
547 09-03-2019 21:30:00 9.8 C 82 % 6.88 C
548 09-03-2019 21:35:00 9.7 C 83 % 6.96 C
549 09-03-2019 21:40:00 9.6 C 84 % 7.03 C
550 09-03-2019 21:45:00 9.5 C 84 % 6.94 C
Sensor: Nr:Datum:Temp:Feuchte:Taupunkt:
Aussen-T/F 551 09-03-2019 21:50:00 9.4 C 85 % 7.01 C
552 09-03-2019 21:55:00 9.3 C 85 % 6.91 C
553 09-03-2019 22:00:00 9.3 C 85 % 6.91 C
554 09-03-2019 22:05:00 9.2 C 85 % 6.81 C
555 09-03-2019 22:10:00 9.2 C 85 % 6.81 C
556 09-03-2019 22:15:00 9.2 C 86 % 6.98 C
557 09-03-2019 22:20:00 9.2 C 86 % 6.98 C
558 09-03-2019 22:25:00 9.2 C 82 % 6.29 C
559 09-03-2019 22:30:00 9.4 C 79 % 5.95 C
560 09-03-2019 22:35:00 9.8 C 76 % 5.78 C
561 09-03-2019 22:40:00 10 C 75 % 5.78 C
562 09-03-2019 22:45:00 10.2 C 74 % 5.78 C
563 09-03-2019 22:50:00 10.3 C 74 % 5.88 C
564 09-03-2019 22:55:00 10.3 C 73 % 5.68 C
565 09-03-2019 23:00:00 10.4 C 73 % 5.78 C
566 09-03-2019 23:05:00 10.4 C 72 % 5.58 C
567 09-03-2019 23:10:00 10.4 C 72 % 5.58 C
568 09-03-2019 23:15:00 10.4 C 71 % 5.38 C
569 09-03-2019 23:20:00 10.3 C 71 % 5.28 C
570 09-03-2019 23:25:00 10.4 C 71 % 5.38 C
571 09-03-2019 23:30:00 10.4 C 71 % 5.38 C
572 09-03-2019 23:35:00 10.3 C 71 % 5.28 C
573 09-03-2019 23:40:00 10.3 C 71 % 5.28 C
574 09-03-2019 23:45:00 10.3 C 71 % 5.28 C
575 09-03-2019 23:50:00 10.3 C 71 % 5.28 C
Sensor: Nr:Datum:Temp:Feuchte:Taupunkt:
Aussen-T/F 576 09-03-2019 23:55:00 10.2 C 71 % 5.18 C
577 10-03-2019 00:00:00 10.2 C 71 % 5.18 C
578 10-03-2019 00:05:00 10.2 C 71 % 5.18 C
579 10-03-2019 00:10:00 10.2 C 70 % 4.98 C
580 10-03-2019 00:15:00 10.2 C 70 % 4.98 C
581 10-03-2019 00:20:00 10.2 C 69 % 4.78 C
582 10-03-2019 00:25:00 10.2 C 68 % 4.57 C
583 10-03-2019 00:30:00 10.2 C 69 % 4.78 C
584 10-03-2019 00:35:00 10.2 C 69 % 4.78 C
585 10-03-2019 00:40:00 10.1 C 69 % 4.68 C
586 10-03-2019 00:45:00 10 C 70 % 4.79 C
587 10-03-2019 00:50:00 9.9 C 70 % 4.69 C
588 10-03-2019 00:55:00 9.8 C 70 % 4.6 C
589 10-03-2019 01:00:00 9.8 C 70 % 4.6 C
590 10-03-2019 01:05:00 9.8 C 69 % 4.39 C
591 10-03-2019 01:10:00 9.8 C 69 % 4.39 C
592 10-03-2019 01:15:00 9.8 C 70 % 4.6 C
593 10-03-2019 01:20:00 9.7 C 69 % 4.3 C
594 10-03-2019 01:25:00 9.7 C 70 % 4.5 C
595 10-03-2019 01:30:00 9.7 C 70 % 4.5 C
596 10-03-2019 01:35:00 9.6 C 71 % 4.61 C
597 10-03-2019 01:40:00 9.6 C 71 % 4.61 C
598 10-03-2019 01:45:00 9.5 C 72 % 4.71 C
599 10-03-2019 01:50:00 9.5 C 72 % 4.71 C
600 10-03-2019 01:55:00 9.5 C 72 % 4.71 C
Sensor: Nr:Datum:Temp:Feuchte:Taupunkt:
Aussen-T/F 601 10-03-2019 02:00:00 9.5 C 73 % 4.91 C
602 10-03-2019 02:05:00 9.4 C 73 % 4.81 C
603 10-03-2019 02:10:00 9.4 C 73 % 4.81 C
604 10-03-2019 02:15:00 9.4 C 73 % 4.81 C
605 10-03-2019 02:20:00 9.4 C 74 % 5.01 C
606 10-03-2019 02:25:00 9.4 C 73 % 4.81 C
607 10-03-2019 02:30:00 9.4 C 74 % 5.01 C
608 10-03-2019 02:35:00 9.4 C 74 % 5.01 C
609 10-03-2019 02:40:00 9.4 C 74 % 5.01 C
610 10-03-2019 02:45:00 9.4 C 74 % 5.01 C
611 10-03-2019 02:50:00 9.4 C 74 % 5.01 C
612 10-03-2019 02:55:00 9.4 C 74 % 5.01 C
613 10-03-2019 03:00:00 9.4 C 75 % 5.2 C
614 10-03-2019 03:05:00 9.4 C 75 % 5.2 C
615 10-03-2019 03:10:00 9.3 C 75 % 5.1 C
616 10-03-2019 03:15:00 9.3 C 76 % 5.29 C
617 10-03-2019 03:20:00 9.3 C 76 % 5.29 C
618 10-03-2019 03:25:00 9.2 C 77 % 5.38 C
619 10-03-2019 03:30:00 9.2 C 77 % 5.38 C
620 10-03-2019 03:35:00 9.1 C 78 % 5.47 C
621 10-03-2019 03:40:00 8.9 C 79 % 5.46 C
622 10-03-2019 03:45:00 8.8 C 79 % 5.36 C
623 10-03-2019 03:50:00 8.7 C 80 % 5.45 C
624 10-03-2019 03:55:00 8.6 C 81 % 5.53 C
625 10-03-2019 04:00:00 8.5 C 81 % 5.43 C
Sensor: Nr:Datum:Temp:Feuchte:Taupunkt:
Aussen-T/F 626 10-03-2019 04:05:00 8.4 C 81 % 5.33 C
627 10-03-2019 04:10:00 8.4 C 82 % 5.51 C
628 10-03-2019 04:15:00 8.4 C 83 % 5.69 C
629 10-03-2019 04:20:00 8.4 C 84 % 5.86 C
630 10-03-2019 04:25:00 8.4 C 85 % 6.03 C
631 10-03-2019 04:30:00 8.4 C 86 % 6.2 C
632 10-03-2019 04:35:00 8.3 C 87 % 6.27 C
633 10-03-2019 04:40:00 8.3 C 87 % 6.27 C
634 10-03-2019 04:45:00 8.2 C 88 % 6.33 C
635 10-03-2019 04:50:00 8.1 C 88 % 6.24 C
636 10-03-2019 04:55:00 8.1 C 89 % 6.4 C
637 10-03-2019 05:00:00 8 C 89 % 6.3 C
638 10-03-2019 05:05:00 7.9 C 90 % 6.36 C
639 10-03-2019 05:10:00 7.9 C 90 % 6.36 C
640 10-03-2019 05:15:00 7.9 C 90 % 6.36 C
641 10-03-2019 05:20:00 7.9 C 90 % 6.36 C
642 10-03-2019 05:25:00 7.8 C 91 % 6.43 C
643 10-03-2019 05:30:00 7.8 C 91 % 6.43 C
644 10-03-2019 05:35:00 7.7 C 92 % 6.48 C
645 10-03-2019 05:40:00 7.7 C 92 % 6.48 C
646 10-03-2019 05:45:00 7.7 C 92 % 6.48 C
647 10-03-2019 05:50:00 7.7 C 92 % 6.48 C
648 10-03-2019 05:55:00 7.6 C 92 % 6.39 C
649 10-03-2019 06:00:00 7.6 C 93 % 6.54 C
650 10-03-2019 06:05:00 7.6 C 93 % 6.54 C
Sensor: Nr:Datum:Temp:Feuchte:Taupunkt:
Aussen-T/F 651 10-03-2019 06:10:00 7.6 C 93 % 6.54 C
652 10-03-2019 06:15:00 7.6 C 93 % 6.54 C
653 10-03-2019 06:20:00 7.5 C 93 % 6.44 C
654 10-03-2019 06:25:00 7.5 C 93 % 6.44 C
655 10-03-2019 06:30:00 7.4 C 94 % 6.5 C
656 10-03-2019 06:35:00 7.4 C 94 % 6.5 C
657 10-03-2019 06:40:00 7.4 C 94 % 6.5 C
658 10-03-2019 06:45:00 7.4 C 94 % 6.5 C
659 10-03-2019 06:50:00 7.4 C 94 % 6.5 C
660 10-03-2019 06:55:00 7.3 C 94 % 6.4 C
661 10-03-2019 07:00:00 7.3 C 94 % 6.4 C
662 10-03-2019 07:05:00 7.4 C 94 % 6.5 C
663 10-03-2019 07:10:00 7.4 C 95 % 6.65 C
664 10-03-2019 07:15:00 7.6 C 95 % 6.85 C
665 10-03-2019 07:20:00 7.6 C 95 % 6.85 C
666 10-03-2019 07:25:00 7.7 C 95 % 6.95 C
667 10-03-2019 07:30:00 7.7 C 95 % 6.95 C
668 10-03-2019 07:35:00 7.8 C 95 % 7.05 C
669 10-03-2019 07:40:00 7.8 C 95 % 7.05 C
670 10-03-2019 07:45:00 7.9 C 95 % 7.15 C
671 10-03-2019 07:50:00 7.9 C 95 % 7.15 C
672 10-03-2019 07:55:00 8 C 95 % 7.25 C
673 10-03-2019 08:00:00 8.1 C 95 % 7.35 C
674 10-03-2019 08:05:00 8.1 C 96 % 7.5 C
675 10-03-2019 08:10:00 8.2 C 96 % 7.6 C
Sensor: Nr:Datum:Temp:Feuchte:Taupunkt:
Aussen-T/F 676 10-03-2019 08:15:00 8.3 C 96 % 7.7 C
677 10-03-2019 08:20:00 8.4 C 96 % 7.8 C
678 10-03-2019 08:25:00 8.7 C 96 % 8.1 C
679 10-03-2019 08:30:00 8.9 C 96 % 8.3 C
680 10-03-2019 08:35:00 9.2 C 96 % 8.6 C
681 10-03-2019 08:40:00 9.4 C 96 % 8.8 C
682 10-03-2019 08:45:00 9.6 C 96 % 8.99 C
683 10-03-2019 08:50:00 9.7 C 96 % 9.09 C
684 10-03-2019 08:55:00 9.8 C 96 % 9.19 C
685 10-03-2019 09:00:00 9.9 C 96 % 9.29 C
686 10-03-2019 09:05:00 10.1 C 96 % 9.49 C
687 10-03-2019 09:10:00 10.2 C 95 % 9.44 C
688 10-03-2019 09:15:00 10.3 C 95 % 9.54 C
689 10-03-2019 09:20:00 10.4 C 95 % 9.63 C
690 10-03-2019 09:25:00 10.4 C 95 % 9.63 C
691 10-03-2019 09:30:00 10.6 C 95 % 9.83 C
692 10-03-2019 09:35:00 10.7 C 95 % 9.93 C
693 10-03-2019 09:40:00 10.8 C 95 % 10.03 C
694 10-03-2019 09:45:00 11.1 C 95 % 10.33 C
695 10-03-2019 09:50:00 11.2 C 95 % 10.43 C
696 10-03-2019 09:55:00 11.3 C 95 % 10.53 C
697 10-03-2019 10:00:00 11.4 C 94 % 10.47 C
698 10-03-2019 10:05:00 11.5 C 94 % 10.57 C
699 10-03-2019 10:10:00 11.6 C 94 % 10.67 C
700 10-03-2019 10:15:00 11.7 C 94 % 10.77 C
Sensor: Nr:Datum:Temp:Feuchte:Taupunkt:
Aussen-T/F 701 10-03-2019 10:20:00 11.8 C 94 % 10.87 C
702 10-03-2019 10:25:00 11.9 C 94 % 10.97 C
703 10-03-2019 10:30:00 12 C 94 % 11.07 C
704 10-03-2019 10:35:00 12.2 C 94 % 11.26 C
705 10-03-2019 10:40:00 12.2 C 93 % 11.1 C
706 10-03-2019 10:45:00 12.3 C 92 % 11.04 C
707 10-03-2019 10:50:00 12.4 C 92 % 11.14 C
708 10-03-2019 10:55:00 12.5 C 91 % 11.07 C
709 10-03-2019 11:00:00 12.6 C 90 % 11 C
710 10-03-2019 11:05:00 12.7 C 88 % 10.77 C
711 10-03-2019 11:10:00 12.8 C 85 % 10.34 C
712 10-03-2019 11:15:00 12.9 C 81 % 9.72 C
713 10-03-2019 11:20:00 13.2 C 79 % 9.64 C
714 10-03-2019 11:25:00 13.3 C 77 % 9.36 C
715 10-03-2019 11:30:00 13.3 C 75 % 8.97 C
716 10-03-2019 11:35:00 13.3 C 74 % 8.77 C
717 10-03-2019 11:40:00 13.3 C 74 % 8.77 C
718 10-03-2019 11:45:00 13.3 C 75 % 8.97 C
719 10-03-2019 11:50:00 13.4 C 74 % 8.87 C
720 10-03-2019 11:55:00 13.6 C 73 % 8.86 C
721 10-03-2019 12:00:00 13.7 C 75 % 9.35 C
722 10-03-2019 12:05:00 13.8 C 75 % 9.45 C
723 10-03-2019 12:10:00 13.9 C 73 % 9.15 C
724 10-03-2019 12:15:00 14.1 C 72 % 9.13 C
725 10-03-2019 12:20:00 14.1 C 71 % 8.93 C
Sensor: Nr:Datum:Temp:Feuchte:Taupunkt:
Aussen-T/F 726 10-03-2019 12:25:00 14.2 C 71 % 9.02 C
727 10-03-2019 12:30:00 14.3 C 71 % 9.12 C
728 10-03-2019 12:35:00 14.3 C 70 % 8.91 C
729 10-03-2019 12:40:00 14.3 C 72 % 9.33 C
730 10-03-2019 12:45:00 14.3 C 72 % 9.33 C
731 10-03-2019 12:50:00 14.3 C 73 % 9.53 C
732 10-03-2019 12:55:00 14.2 C 72 % 9.23 C
733 10-03-2019 13:00:00 14.1 C 72 % 9.13 C
734 10-03-2019 13:05:00 13.9 C 71 % 8.73 C
735 10-03-2019 13:10:00 13.9 C 69 % 8.31 C
736 10-03-2019 13:15:00 13.9 C 69 % 8.31 C
737 10-03-2019 13:20:00 14 C 69 % 8.41 C
738 10-03-2019 13:25:00 14.1 C 68 % 8.29 C
739 10-03-2019 13:30:00 14.2 C 68 % 8.39 C
740 10-03-2019 13:35:00 14.6 C 64 % 7.87 C
741 10-03-2019 13:40:00 14.9 C 59 % 6.97 C
742 10-03-2019 13:45:00 15.1 C 57 % 6.65 C
743 10-03-2019 13:50:00 15.1 C 56 % 6.4 C
744 10-03-2019 13:55:00 15 C 53 % 5.51 C
745 10-03-2019 14:00:00 14.9 C 52 % 5.14 C
746 10-03-2019 14:05:00 14.8 C 51 % 4.77 C
747 10-03-2019 14:10:00 14.8 C 52 % 5.05 C
748 10-03-2019 14:15:00 14.7 C 52 % 4.96 C
749 10-03-2019 14:20:00 14.6 C 53 % 5.14 C
750 10-03-2019 14:25:00 14.4 C 52 % 4.68 C
Sensor: Nr:Datum:Temp:Feuchte:Taupunkt:
Aussen-T/F 751 10-03-2019 14:30:00 14.3 C 52 % 4.59 C
752 10-03-2019 14:35:00 14.2 C 52 % 4.5 C
753 10-03-2019 14:40:00 14.2 C 52 % 4.5 C
754 10-03-2019 14:45:00 14.1 C 53 % 4.68 C
755 10-03-2019 14:50:00 14 C 51 % 4.04 C
756 10-03-2019 14:55:00 13.9 C 52 % 4.22 C
757 10-03-2019 15:00:00 13.9 C 52 % 4.22 C
758 10-03-2019 15:05:00 13.8 C 51 % 3.85 C
759 10-03-2019 15:10:00 13.7 C 52 % 4.03 C
760 10-03-2019 15:15:00 13.5 C 51 % 3.57 C
761 10-03-2019 15:20:00 13.4 C 50 % 3.2 C
762 10-03-2019 15:25:00 13.4 C 51 % 3.48 C
763 10-03-2019 15:30:00 13.4 C 48 % 2.63 C
764 10-03-2019 15:35:00 13.5 C 48 % 2.72 C
765 10-03-2019 15:40:00 13.6 C 50 % 3.39 C
766 10-03-2019 15:45:00 13.7 C 49 % 3.19 C
767 10-03-2019 15:50:00 13.5 C 51 % 3.57 C
768 10-03-2019 15:55:00 13.3 C 50 % 3.11 C
769 10-03-2019 16:00:00 13.2 C 50 % 3.02 C
770 10-03-2019 16:05:00 13 C 51 % 3.11 C
771 10-03-2019 16:10:00 12.8 C 51 % 2.93 C
772 10-03-2019 16:15:00 12.6 C 52 % 3.02 C
773 10-03-2019 16:20:00 12.5 C 51 % 2.65 C
774 10-03-2019 16:25:00 12.4 C 50 % 2.28 C
775 10-03-2019 16:30:00 12.4 C 50 % 2.28 C
Sensor: Nr:Datum:Temp:Feuchte:Taupunkt:
Aussen-T/F 776 10-03-2019 16:35:00 12.6 C 49 % 2.18 C
777 10-03-2019 16:40:00 12.4 C 48 % 1.71 C
778 10-03-2019 16:45:00 12.3 C 49 % 1.91 C
779 10-03-2019 16:50:00 12.2 C 50 % 2.1 C
780 10-03-2019 16:55:00 12 C 51 % 2.19 C
781 10-03-2019 17:00:00 11.9 C 51 % 2.1 C
782 10-03-2019 17:05:00 11.7 C 51 % 1.91 C
783 10-03-2019 17:10:00 11.6 C 51 % 1.82 C
784 10-03-2019 17:15:00 11.6 C 51 % 1.82 C
785 10-03-2019 17:20:00 11.4 C 59 % 3.68 C
786 10-03-2019 17:25:00 10.7 C 64 % 4.18 C
787 10-03-2019 17:30:00 9.9 C 69 % 4.49 C
788 10-03-2019 17:35:00 9.4 C 71 % 4.42 C
789 10-03-2019 17:40:00 9.2 C 71 % 4.22 C
790 10-03-2019 17:45:00 9.1 C 72 % 4.33 C
791 10-03-2019 17:50:00 9.1 C 73 % 4.52 C
792 10-03-2019 17:55:00 9 C 72 % 4.23 C
793 10-03-2019 18:00:00 9 C 72 % 4.23 C
794 10-03-2019 18:05:00 9.1 C 73 % 4.52 C
795 10-03-2019 18:10:00 8.7 C 76 % 4.71 C
796 10-03-2019 18:15:00 8 C 79 % 4.59 C
797 10-03-2019 18:20:00 7.7 C 81 % 4.65 C
798 10-03-2019 18:25:00 7.5 C 82 % 4.63 C
799 10-03-2019 18:30:00 7.3 C 83 % 4.61 C
800 10-03-2019 18:35:00 7.1 C 83 % 4.41 C
Sensor: Nr:Datum:Temp:Feuchte:Taupunkt:
Aussen-T/F 801 10-03-2019 18:40:00 7.1 C 84 % 4.58 C
802 10-03-2019 18:45:00 7 C 84 % 4.49 C
803 10-03-2019 18:50:00 6.9 C 83 % 4.22 C
804 10-03-2019 18:55:00 6.9 C 83 % 4.22 C
805 10-03-2019 19:00:00 6.9 C 81 % 3.87 C
806 10-03-2019 19:05:00 6.9 C 81 % 3.87 C
807 10-03-2019 19:10:00 6.8 C 81 % 3.77 C
808 10-03-2019 19:15:00 6.8 C 81 % 3.77 C
809 10-03-2019 19:20:00 6.8 C 81 % 3.77 C
810 10-03-2019 19:25:00 6.8 C 80 % 3.6 C
811 10-03-2019 19:30:00 6.8 C 79 % 3.42 C
812 10-03-2019 19:35:00 6.9 C 78 % 3.34 C
813 10-03-2019 19:40:00 7 C 77 % 3.25 C
814 10-03-2019 19:45:00 7.1 C 75 % 2.98 C
815 10-03-2019 19:50:00 7.2 C 75 % 3.07 C
816 10-03-2019 19:55:00 7.3 C 74 % 2.98 C
817 10-03-2019 20:00:00 7.3 C 73 % 2.79 C
818 10-03-2019 20:05:00 7.3 C 72 % 2.6 C
819 10-03-2019 20:10:00 7.2 C 73 % 2.69 C
820 10-03-2019 20:15:00 6.6 C 73 % 2.12 C
821 10-03-2019 20:20:00 6 C 74 % 1.73 C
822 10-03-2019 20:25:00 5.7 C 75 % 1.62 C
823 10-03-2019 20:30:00 5.6 C 76 % 1.71 C
824 10-03-2019 20:35:00 5.6 C 77 % 1.89 C
825 10-03-2019 20:40:00 5.4 C 77 % 1.7 C
Sensor: Nr:Datum:Temp:Feuchte:Taupunkt:
Aussen-T/F 826 10-03-2019 20:45:00 5.4 C 78 % 1.88 C
827 10-03-2019 20:50:00 5.4 C 78 % 1.88 C
828 10-03-2019 20:55:00 5.4 C 79 % 2.06 C
829 10-03-2019 21:00:00 5.3 C 79 % 1.96 C
830 10-03-2019 21:05:00 5.3 C 79 % 1.96 C
831 10-03-2019 21:10:00 5.2 C 79 % 1.86 C
832 10-03-2019 21:15:00 5.2 C 80 % 2.04 C
833 10-03-2019 21:20:00 5.2 C 80 % 2.04 C
834 10-03-2019 21:25:00 5.1 C 80 % 1.94 C
835 10-03-2019 21:30:00 5.1 C 80 % 1.94 C
836 10-03-2019 21:35:00 5.2 C 80 % 2.04 C
837 10-03-2019 21:40:00 5.3 C 79 % 1.96 C
838 10-03-2019 21:45:00 5.3 C 78 % 1.78 C
839 10-03-2019 21:50:00 5.2 C 78 % 1.69 C
840 10-03-2019 21:55:00 5.2 C 78 % 1.69 C
841 10-03-2019 22:00:00 5.1 C 78 % 1.59 C
842 10-03-2019 22:05:00 4.9 C 78 % 1.39 C
843 10-03-2019 22:10:00 4.9 C 79 % 1.57 C
844 10-03-2019 22:15:00 4.9 C 80 % 1.75 C
845 10-03-2019 22:20:00 5 C 80 % 1.84 C
846 10-03-2019 22:25:00 5.1 C 80 % 1.94 C
847 10-03-2019 22:30:00 5.2 C 80 % 2.04 C
848 10-03-2019 22:35:00 5.2 C 80 % 2.04 C
849 10-03-2019 22:40:00 5.2 C 81 % 2.21 C
850 10-03-2019 22:45:00 5.2 C 81 % 2.21 C
Sensor: Nr:Datum:Temp:Feuchte:Taupunkt:
Aussen-T/F 851 10-03-2019 22:50:00 5.1 C 81 % 2.12 C
852 10-03-2019 22:55:00 4.9 C 81 % 1.92 C
853 10-03-2019 23:00:00 4.9 C 81 % 1.92 C
854 10-03-2019 23:05:00 4.8 C 81 % 1.82 C
855 10-03-2019 23:10:00 4.8 C 81 % 1.82 C
856 10-03-2019 23:15:00 4.8 C 81 % 1.82 C
857 10-03-2019 23:20:00 4.9 C 81 % 1.92 C
858 10-03-2019 23:25:00 4.9 C 80 % 1.75 C
859 10-03-2019 23:30:00 5 C 80 % 1.84 C
860 10-03-2019 23:35:00 4.9 C 80 % 1.75 C
861 10-03-2019 23:40:00 4.9 C 80 % 1.75 C
862 10-03-2019 23:45:00 4.8 C 80 % 1.65 C
863 10-03-2019 23:50:00 4.8 C 80 % 1.65 C
864 10-03-2019 23:55:00 4.8 C 80 % 1.65 C
865 11-03-2019 00:00:00 4.7 C 80 % 1.55 C
866 11-03-2019 00:05:00 4.6 C 80 % 1.46 C
867 11-03-2019 00:10:00 4.5 C 80 % 1.36 C
868 11-03-2019 00:15:00 4.4 C 81 % 1.43 C
869 11-03-2019 00:20:00 4.3 C 81 % 1.34 C
870 11-03-2019 00:25:00 4.2 C 81 % 1.24 C
871 11-03-2019 00:30:00 4.2 C 81 % 1.24 C
872 11-03-2019 00:35:00 4.2 C 82 % 1.41 C
873 11-03-2019 00:40:00 4.2 C 82 % 1.41 C
874 11-03-2019 00:45:00 4.2 C 82 % 1.41 C
875 11-03-2019 00:50:00 4.3 C 82 % 1.51 C
Sensor: Nr:Datum:Temp:Feuchte:Taupunkt:
Aussen-T/F 876 11-03-2019 00:55:00 4.3 C 81 % 1.34 C
877 11-03-2019 01:00:00 4.3 C 81 % 1.34 C
878 11-03-2019 01:05:00 4.4 C 81 % 1.43 C
879 11-03-2019 01:10:00 4.4 C 80 % 1.26 C
880 11-03-2019 01:15:00 4.5 C 80 % 1.36 C
881 11-03-2019 01:20:00 4.5 C 80 % 1.36 C
882 11-03-2019 01:25:00 4.4 C 80 % 1.26 C
883 11-03-2019 01:30:00 4.3 C 80 % 1.16 C
884 11-03-2019 01:35:00 4.4 C 80 % 1.26 C
885 11-03-2019 01:40:00 4.5 C 79 % 1.18 C
886 11-03-2019 01:45:00 4.7 C 79 % 1.38 C
887 11-03-2019 01:50:00 4.8 C 78 % 1.3 C
888 11-03-2019 01:55:00 4.9 C 78 % 1.39 C
889 11-03-2019 02:00:00 5 C 78 % 1.49 C
890 11-03-2019 02:05:00 5.2 C 77 % 1.51 C
891 11-03-2019 02:10:00 5.4 C 77 % 1.7 C
892 11-03-2019 02:15:00 5.4 C 77 % 1.7 C
893 11-03-2019 02:20:00 5.3 C 78 % 1.78 C
894 11-03-2019 02:25:00 5.2 C 79 % 1.86 C
895 11-03-2019 02:30:00 5.1 C 80 % 1.94 C
896 11-03-2019 02:35:00 5 C 80 % 1.84 C
897 11-03-2019 02:40:00 4.9 C 80 % 1.75 C
898 11-03-2019 02:45:00 4.9 C 80 % 1.75 C
899 11-03-2019 02:50:00 4.9 C 80 % 1.75 C
900 11-03-2019 02:55:00 5 C 81 % 2.02 C
Sensor: Nr:Datum:Temp:Feuchte:Taupunkt:
Aussen-T/F 901 11-03-2019 03:00:00 5 C 81 % 2.02 C
902 11-03-2019 03:05:00 5 C 81 % 2.02 C
903 11-03-2019 03:10:00 5 C 82 % 2.19 C
904 11-03-2019 03:15:00 4.9 C 81 % 1.92 C
905 11-03-2019 03:20:00 4.3 C 83 % 1.67 C
906 11-03-2019 03:25:00 3.7 C 85 % 1.42 C
907 11-03-2019 03:30:00 3.3 C 86 % 1.19 C
908 11-03-2019 03:35:00 2.9 C 87 % 0.96 C
909 11-03-2019 03:40:00 2.6 C 88 % 0.82 C
910 11-03-2019 03:45:00 2.5 C 89 % 0.88 C
911 11-03-2019 03:50:00 2.4 C 90 % 0.93 C
912 11-03-2019 03:55:00 2.3 C 91 % 0.99 C
913 11-03-2019 04:00:00 2.3 C 91 % 0.99 C
914 11-03-2019 04:05:00 2.3 C 92 % 1.14 C
915 11-03-2019 04:10:00 2.3 C 92 % 1.14 C
916 11-03-2019 04:15:00 2.3 C 92 % 1.14 C
917 11-03-2019 04:20:00 2.3 C 93 % 1.29 C
918 11-03-2019 04:25:00 2.3 C 93 % 1.29 C
919 11-03-2019 04:30:00 2.4 C 93 % 1.39 C
920 11-03-2019 04:35:00 2.5 C 93 % 1.49 C
921 11-03-2019 04:40:00 2.5 C 93 % 1.49 C
922 11-03-2019 04:45:00 2.4 C 93 % 1.39 C
923 11-03-2019 04:50:00 2.4 C 93 % 1.39 C
924 11-03-2019 04:55:00 2.4 C 93 % 1.39 C
925 11-03-2019 05:00:00 2.4 C 94 % 1.54 C
Sensor: Nr:Datum:Temp:Feuchte:Taupunkt:
Aussen-T/F 926 11-03-2019 05:05:00 2.5 C 94 % 1.63 C
927 11-03-2019 05:10:00 2.4 C 93 % 1.39 C
928 11-03-2019 05:15:00 2.3 C 93 % 1.29 C
929 11-03-2019 05:20:00 2.2 C 93 % 1.19 C
930 11-03-2019 05:25:00 2.2 C 93 % 1.19 C
931 11-03-2019 05:30:00 2.2 C 93 % 1.19 C
932 11-03-2019 05:35:00 2.1 C 92 % 0.94 C
933 11-03-2019 05:40:00 2 C 92 % 0.84 C
934 11-03-2019 05:45:00 2 C 92 % 0.84 C
935 11-03-2019 05:50:00 2.1 C 92 % 0.94 C
936 11-03-2019 05:55:00 2.1 C 92 % 0.94 C
937 11-03-2019 06:00:00 2.2 C 92 % 1.04 C
938 11-03-2019 06:05:00 2.1 C 92 % 0.94 C
939 11-03-2019 06:10:00 1.9 C 92 % 0.74 C
940 11-03-2019 06:15:00 1.8 C 92 % 0.64 C
941 11-03-2019 06:20:00 1.8 C 92 % 0.64 C
942 11-03-2019 06:25:00 1.7 C 92 % 0.54 C
943 11-03-2019 06:30:00 1.7 C 93 % 0.69 C
944 11-03-2019 06:35:00 1.6 C 93 % 0.59 C
945 11-03-2019 06:40:00 1.6 C 93 % 0.59 C
946 11-03-2019 06:45:00 1.6 C 93 % 0.59 C
947 11-03-2019 06:50:00 1.5 C 93 % 0.49 C
948 11-03-2019 06:55:00 1.4 C 93 % 0.4 C
949 11-03-2019 07:00:00 1.4 C 93 % 0.4 C
950 11-03-2019 07:05:00 1.4 C 93 % 0.4 C
Sensor: Nr:Datum:Temp:Feuchte:Taupunkt:
Aussen-T/F 951 11-03-2019 07:10:00 1.4 C 94 % 0.54 C
952 11-03-2019 07:15:00 1.3 C 94 % 0.44 C
953 11-03-2019 07:20:00 1.3 C 94 % 0.44 C
954 11-03-2019 07:25:00 1.4 C 94 % 0.54 C
955 11-03-2019 07:30:00 1.4 C 94 % 0.54 C
956 11-03-2019 07:35:00 1.5 C 94 % 0.64 C
957 11-03-2019 07:40:00 1.7 C 95 % 0.99 C
958 11-03-2019 07:45:00 1.8 C 95 % 1.09 C
959 11-03-2019 07:50:00 1.8 C 95 % 1.09 C
960 11-03-2019 07:55:00 1.9 C 95 % 1.19 C
961 11-03-2019 08:00:00 1.9 C 95 % 1.19 C
962 11-03-2019 08:05:00 2 C 95 % 1.29 C
963 11-03-2019 08:10:00 2 C 95 % 1.29 C
964 11-03-2019 08:15:00 2 C 95 % 1.29 C
965 11-03-2019 08:20:00 2.1 C 95 % 1.38 C
966 11-03-2019 08:25:00 2.2 C 95 % 1.48 C
967 11-03-2019 08:30:00 2.3 C 95 % 1.58 C
968 11-03-2019 08:35:00 2.4 C 95 % 1.68 C
969 11-03-2019 08:40:00 2.5 C 95 % 1.78 C
970 11-03-2019 08:45:00 2.7 C 95 % 1.98 C
971 11-03-2019 08:50:00 2.8 C 95 % 2.08 C
972 11-03-2019 08:55:00 2.9 C 95 % 2.18 C
973 11-03-2019 09:00:00 3 C 94 % 2.13 C
974 11-03-2019 09:05:00 3 C 93 % 1.98 C
975 11-03-2019 09:10:00 3.2 C 91 % 1.88 C
Sensor: Nr:Datum:Temp:Feuchte:Taupunkt:
Aussen-T/F 976 11-03-2019 09:15:00 3.3 C 89 % 1.67 C
977 11-03-2019 09:20:00 3.4 C 89 % 1.76 C
978 11-03-2019 09:25:00 3.6 C 87 % 1.64 C
979 11-03-2019 09:30:00 3.7 C 86 % 1.58 C
980 11-03-2019 09:35:00 3.6 C 87 % 1.64 C
981 11-03-2019 09:40:00 3.4 C 88 % 1.61 C
982 11-03-2019 09:45:00 3.3 C 89 % 1.67 C
983 11-03-2019 09:50:00 3.3 C 90 % 1.82 C
984 11-03-2019 09:55:00 3.3 C 90 % 1.82 C
985 11-03-2019 10:00:00 3.4 C 91 % 2.07 C
986 11-03-2019 10:05:00 3.5 C 91 % 2.17 C
987 11-03-2019 10:10:00 3.6 C 91 % 2.27 C
988 11-03-2019 10:15:00 3.8 C 91 % 2.47 C
989 11-03-2019 10:20:00 3.9 C 91 % 2.57 C
990 11-03-2019 10:25:00 4.1 C 89 % 2.45 C
991 11-03-2019 10:30:00 4.1 C 88 % 2.3 C
992 11-03-2019 10:35:00 4.1 C 87 % 2.14 C
993 11-03-2019 10:40:00 4.2 C 86 % 2.07 C
994 11-03-2019 10:45:00 4.1 C 85 % 1.81 C
995 11-03-2019 10:50:00 4.1 C 85 % 1.81 C
996 11-03-2019 10:55:00 4.2 C 85 % 1.91 C
997 11-03-2019 11:00:00 4.3 C 86 % 2.17 C
998 11-03-2019 11:05:00 4.4 C 86 % 2.27 C
999 11-03-2019 11:10:00 4.6 C 85 % 2.3 C
1000 11-03-2019 11:15:00 4.6 C 84 % 2.14 C
Sensor: Nr:Datum:Temp:Feuchte:Taupunkt:
Aussen-T/F 1001 11-03-2019 11:20:00 4.6 C 83 % 1.97 C
1002 11-03-2019 11:25:00 4.7 C 84 % 2.23 C
1003 11-03-2019 11:30:00 4.9 C 83 % 2.26 C
1004 11-03-2019 11:35:00 5.2 C 81 % 2.21 C
1005 11-03-2019 11:40:00 5.3 C 79 % 1.96 C
1006 11-03-2019 11:45:00 5.3 C 79 % 1.96 C
1007 11-03-2019 11:50:00 5.3 C 79 % 1.96 C
1008 11-03-2019 11:55:00 5.3 C 79 % 1.96 C
1009 11-03-2019 12:00:00 5.3 C 79 % 1.96 C
1010 11-03-2019 12:05:00 5.3 C 78 % 1.78 C
1011 11-03-2019 12:10:00 5.3 C 77 % 1.6 C
1012 11-03-2019 12:15:00 5.4 C 77 % 1.7 C
1013 11-03-2019 12:20:00 5.5 C 76 % 1.62 C
1014 11-03-2019 12:25:00 5.6 C 77 % 1.89 C
1015 11-03-2019 12:30:00 5.6 C 76 % 1.71 C
1016 11-03-2019 12:35:00 5.7 C 76 % 1.81 C
1017 11-03-2019 12:40:00 5.8 C 75 % 1.72 C
1018 11-03-2019 12:45:00 5.8 C 75 % 1.72 C
1019 11-03-2019 12:50:00 5.9 C 76 % 2 C
1020 11-03-2019 12:55:00 6.1 C 74 % 1.82 C
1021 11-03-2019 13:00:00 6.1 C 73 % 1.63 C
1022 11-03-2019 13:05:00 6.1 C 73 % 1.63 C
1023 11-03-2019 13:10:00 6.1 C 72 % 1.44 C
1024 11-03-2019 13:15:00 6.1 C 73 % 1.63 C
1025 11-03-2019 13:20:00 6.1 C 73 % 1.63 C
Sensor: Nr:Datum:Temp:Feuchte:Taupunkt:
Aussen-T/F 1026 11-03-2019 13:25:00 6.3 C 72 % 1.63 C
1027 11-03-2019 13:30:00 6.3 C 72 % 1.63 C
1028 11-03-2019 13:35:00 6.7 C 73 % 2.21 C
1029 11-03-2019 13:40:00 7.2 C 71 % 2.3 C
1030 11-03-2019 13:45:00 7.5 C 70 % 2.39 C
1031 11-03-2019 13:50:00 7.4 C 69 % 2.1 C
1032 11-03-2019 13:55:00 7 C 71 % 2.11 C
1033 11-03-2019 14:00:00 6.8 C 72 % 2.12 C
1034 11-03-2019 14:05:00 6.6 C 71 % 1.73 C
1035 11-03-2019 14:10:00 6.7 C 73 % 2.21 C
1036 11-03-2019 14:15:00 6.8 C 72 % 2.12 C
1037 11-03-2019 14:20:00 6.8 C 72 % 2.12 C
1038 11-03-2019 14:25:00 6.9 C 71 % 2.02 C
1039 11-03-2019 14:30:00 7.1 C 71 % 2.21 C
1040 11-03-2019 14:35:00 7.2 C 71 % 2.3 C
1041 11-03-2019 14:40:00 7.4 C 67 % 1.69 C
1042 11-03-2019 14:45:00 7.4 C 67 % 1.69 C
1043 11-03-2019 14:50:00 7.4 C 68 % 1.89 C
1044 11-03-2019 14:55:00 7.4 C 67 % 1.69 C
1045 11-03-2019 15:00:00 7.4 C 67 % 1.69 C
1046 11-03-2019 15:05:00 7.4 C 67 % 1.69 C
1047 11-03-2019 15:10:00 7.5 C 67 % 1.78 C
1048 11-03-2019 15:15:00 7.6 C 67 % 1.88 C
1049 11-03-2019 15:20:00 7.5 C 66 % 1.57 C
1050 11-03-2019 15:25:00 7.6 C 67 % 1.88 C
Sensor: Nr:Datum:Temp:Feuchte:Taupunkt:
Aussen-T/F 1051 11-03-2019 15:30:00 7.8 C 67 % 2.07 C
1052 11-03-2019 15:35:00 7.9 C 66 % 1.95 C
1053 11-03-2019 15:40:00 7.8 C 66 % 1.86 C
1054 11-03-2019 15:45:00 7.7 C 67 % 1.97 C
1055 11-03-2019 15:50:00 7.7 C 67 % 1.97 C
1056 11-03-2019 15:55:00 7.7 C 67 % 1.97 C
1057 11-03-2019 16:00:00 7.5 C 67 % 1.78 C
1058 11-03-2019 16:05:00 7.3 C 68 % 1.8 C
1059 11-03-2019 16:10:00 7.3 C 68 % 1.8 C
1060 11-03-2019 16:15:00 7.2 C 68 % 1.7 C
1061 11-03-2019 16:20:00 7.2 C 68 % 1.7 C
1062 11-03-2019 16:25:00 7.2 C 68 % 1.7 C
1063 11-03-2019 16:30:00 7.3 C 68 % 1.8 C
1064 11-03-2019 16:35:00 7.3 C 69 % 2 C
1065 11-03-2019 16:40:00 7.3 C 68 % 1.8 C
1066 11-03-2019 16:45:00 7.2 C 68 % 1.7 C
1067 11-03-2019 16:50:00 7.2 C 68 % 1.7 C
1068 11-03-2019 16:55:00 7.2 C 71 % 2.3 C
1069 11-03-2019 17:00:00 7 C 71 % 2.11 C
1070 11-03-2019 17:05:00 6.7 C 72 % 2.02 C
1071 11-03-2019 17:10:00 6.6 C 73 % 2.12 C
1072 11-03-2019 17:15:00 6.4 C 73 % 1.92 C
1073 11-03-2019 17:20:00 6.6 C 75 % 2.49 C
1074 11-03-2019 17:25:00 7 C 74 % 2.69 C
1075 11-03-2019 17:30:00 7.3 C 70 % 2.2 C
Sensor: Nr:Datum:Temp:Feuchte:Taupunkt:
Aussen-T/F 1076 11-03-2019 17:35:00 7.6 C 68 % 2.08 C
1077 11-03-2019 17:40:00 7.7 C 66 % 1.76 C
1078 11-03-2019 17:45:00 7.7 C 67 % 1.97 C
1079 11-03-2019 17:50:00 7.7 C 67 % 1.97 C
1080 11-03-2019 17:55:00 7.8 C 66 % 1.86 C
1081 11-03-2019 18:00:00 7.8 C 66 % 1.86 C
1082 11-03-2019 18:05:00 7.7 C 65 % 1.55 C
1083 11-03-2019 18:10:00 7.7 C 66 % 1.76 C
1084 11-03-2019 18:15:00 7.4 C 66 % 1.48 C
1085 11-03-2019 18:20:00 7.1 C 67 % 1.4 C
1086 11-03-2019 18:25:00 6.9 C 68 % 1.41 C
1087 11-03-2019 18:30:00 6.7 C 70 % 1.63 C
1088 11-03-2019 18:35:00 6.6 C 70 % 1.53 C
1089 11-03-2019 18:40:00 6.4 C 71 % 1.54 C
1090 11-03-2019 18:45:00 6.4 C 72 % 1.73 C
1091 11-03-2019 18:50:00 6.3 C 71 % 1.44 C
1092 11-03-2019 18:55:00 6.2 C 72 % 1.54 C
1093 11-03-2019 19:00:00 6.1 C 72 % 1.44 C
1094 11-03-2019 19:05:00 5.9 C 72 % 1.25 C
1095 11-03-2019 19:10:00 5.9 C 72 % 1.25 C
1096 11-03-2019 19:15:00 5.8 C 73 % 1.34 C
1097 11-03-2019 19:20:00 5.8 C 73 % 1.34 C
1098 11-03-2019 19:25:00 5.8 C 73 % 1.34 C
1099 11-03-2019 19:30:00 5.8 C 73 % 1.34 C
1100 11-03-2019 19:35:00 5.8 C 73 % 1.34 C
Sensor: Nr:Datum:Temp:Feuchte:Taupunkt:
Aussen-T/F 1101 11-03-2019 19:40:00 5.8 C 72 % 1.15 C
1102 11-03-2019 19:45:00 5.8 C 73 % 1.34 C
1103 11-03-2019 19:50:00 5.8 C 73 % 1.34 C
1104 11-03-2019 19:55:00 5.7 C 73 % 1.25 C
1105 11-03-2019 20:00:00 5.7 C 73 % 1.25 C
1106 11-03-2019 20:05:00 5.7 C 73 % 1.25 C
1107 11-03-2019 20:10:00 5.7 C 73 % 1.25 C
1108 11-03-2019 20:15:00 5.8 C 73 % 1.34 C
1109 11-03-2019 20:20:00 5.7 C 73 % 1.25 C
1110 11-03-2019 20:25:00 5.7 C 73 % 1.25 C
1111 11-03-2019 20:30:00 5.7 C 73 % 1.25 C
1112 11-03-2019 20:35:00 5.7 C 74 % 1.44 C
1113 11-03-2019 20:40:00 5.7 C 74 % 1.44 C
1114 11-03-2019 20:45:00 5.6 C 74 % 1.34 C
1115 11-03-2019 20:50:00 5.6 C 74 % 1.34 C
1116 11-03-2019 20:55:00 5.6 C 75 % 1.53 C
1117 11-03-2019 21:00:00 5.5 C 75 % 1.43 C
1118 11-03-2019 21:05:00 5.4 C 75 % 1.33 C
1119 11-03-2019 21:10:00 5.3 C 76 % 1.42 C
1120 11-03-2019 21:15:00 5.2 C 76 % 1.32 C
1121 11-03-2019 21:20:00 5.2 C 76 % 1.32 C
1122 11-03-2019 21:25:00 5.2 C 76 % 1.32 C
1123 11-03-2019 21:30:00 5.2 C 75 % 1.14 C
1124 11-03-2019 21:35:00 5.2 C 75 % 1.14 C
1125 11-03-2019 21:40:00 5.2 C 74 % 0.95 C
Sensor: Nr:Datum:Temp:Feuchte:Taupunkt:
Aussen-T/F 1126 11-03-2019 21:45:00 5.3 C 74 % 1.05 C
1127 11-03-2019 21:50:00 5.3 C 74 % 1.05 C
1128 11-03-2019 21:55:00 5.4 C 74 % 1.15 C
1129 11-03-2019 22:00:00 5.4 C 74 % 1.15 C
1130 11-03-2019 22:05:00 5.5 C 74 % 1.24 C
1131 11-03-2019 22:10:00 5.5 C 74 % 1.24 C
1132 11-03-2019 22:15:00 5.5 C 74 % 1.24 C
1133 11-03-2019 22:20:00 5.5 C 74 % 1.24 C
1134 11-03-2019 22:25:00 5.4 C 74 % 1.15 C
1135 11-03-2019 22:30:00 5.3 C 74 % 1.05 C
1136 11-03-2019 22:35:00 5.3 C 75 % 1.24 C
1137 11-03-2019 22:40:00 5.2 C 75 % 1.14 C
1138 11-03-2019 22:45:00 5.2 C 75 % 1.14 C
1139 11-03-2019 22:50:00 5.2 C 75 % 1.14 C
1140 11-03-2019 22:55:00 5.1 C 75 % 1.04 C
1141 11-03-2019 23:00:00 5.1 C 75 % 1.04 C
1142 11-03-2019 23:05:00 5 C 75 % 0.95 C
1143 11-03-2019 23:10:00 4.9 C 75 % 0.85 C
1144 11-03-2019 23:15:00 4.9 C 75 % 0.85 C
1145 11-03-2019 23:20:00 4.8 C 75 % 0.75 C
1146 11-03-2019 23:25:00 4.8 C 76 % 0.94 C
1147 11-03-2019 23:30:00 4.8 C 76 % 0.94 C
1148 11-03-2019 23:35:00 4.7 C 76 % 0.84 C
1149 11-03-2019 23:40:00 4.6 C 77 % 0.92 C
1150 11-03-2019 23:45:00 4.5 C 77 % 0.83 C
Sensor: Nr:Datum:Temp:Feuchte:Taupunkt:
Aussen-T/F 1151 11-03-2019 23:50:00 4.5 C 77 % 0.83 C
1152 11-03-2019 23:55:00 4.4 C 78 % 0.91 C
1153 12-03-2019 00:00:00 4.5 C 78 % 1.01 C
1154 12-03-2019 00:05:00 4.4 C 78 % 0.91 C
1155 12-03-2019 00:10:00 4.4 C 79 % 1.09 C
1156 12-03-2019 00:15:00 4.4 C 79 % 1.09 C
1157 12-03-2019 00:20:00 4.3 C 79 % 0.99 C
1158 12-03-2019 00:25:00 4.3 C 80 % 1.16 C
1159 12-03-2019 00:30:00 4.2 C 80 % 1.07 C
1160 12-03-2019 00:35:00 4.1 C 81 % 1.14 C
1161 12-03-2019 00:40:00 4 C 81 % 1.04 C
1162 12-03-2019 00:45:00 3.9 C 82 % 1.12 C
1163 12-03-2019 00:50:00 3.9 C 82 % 1.12 C
1164 12-03-2019 00:55:00 3.9 C 82 % 1.12 C
1165 12-03-2019 01:00:00 3.8 C 82 % 1.02 C
1166 12-03-2019 01:05:00 3.7 C 83 % 1.09 C
1167 12-03-2019 01:10:00 3.6 C 82 % 0.82 C
1168 12-03-2019 01:15:00 3.4 C 83 % 0.79 C
1169 12-03-2019 01:20:00 3.3 C 84 % 0.86 C
1170 12-03-2019 01:25:00 3.2 C 84 % 0.76 C
1171 12-03-2019 01:30:00 3.1 C 85 % 0.83 C
1172 12-03-2019 01:35:00 3.1 C 85 % 0.83 C
1173 12-03-2019 01:40:00 3.1 C 85 % 0.83 C
1174 12-03-2019 01:45:00 2.9 C 85 % 0.63 C
1175 12-03-2019 01:50:00 2.8 C 85 % 0.54 C
Sensor: Nr:Datum:Temp:Feuchte:Taupunkt:
Aussen-T/F 1176 12-03-2019 01:55:00 2.7 C 86 % 0.6 C
1177 12-03-2019 02:00:00 2.7 C 86 % 0.6 C
1178 12-03-2019 02:05:00 2.6 C 86 % 0.5 C
1179 12-03-2019 02:10:00 2.4 C 86 % 0.3 C
1180 12-03-2019 02:15:00 2.3 C 86 % 0.21 C
1181 12-03-2019 02:20:00 2.2 C 86 % 0.11 C
1182 12-03-2019 02:25:00 2.1 C 87 % 0.17 C
1183 12-03-2019 02:30:00 2 C 87 % 0.07 C
1184 12-03-2019 02:35:00 1.9 C 88 % 0.13 C
1185 12-03-2019 02:40:00 1.9 C 88 % 0.13 C
1186 12-03-2019 02:45:00 1.9 C 88 % 0.13 C
1187 12-03-2019 02:50:00 2 C 88 % 0.23 C
1188 12-03-2019 02:55:00 1.9 C 88 % 0.13 C
1189 12-03-2019 03:00:00 1.9 C 88 % 0.13 C
1190 12-03-2019 03:05:00 1.8 C 88 % 0.03 C
1191 12-03-2019 03:10:00 1.7 C 89 % 0.09 C
1192 12-03-2019 03:15:00 1.7 C 88 % -0.07 C
1193 12-03-2019 03:20:00 1.7 C 89 % 0.09 C
1194 12-03-2019 03:25:00 1.7 C 89 % 0.09 C
1195 12-03-2019 03:30:00 1.6 C 89 % -0.01 C
1196 12-03-2019 03:35:00 1.6 C 89 % -0.01 C
1197 12-03-2019 03:40:00 1.5 C 89 % -0.11 C
1198 12-03-2019 03:45:00 1.6 C 89 % -0.01 C
1199 12-03-2019 03:50:00 1.6 C 89 % -0.01 C
1200 12-03-2019 03:55:00 1.5 C 89 % -0.11 C
Sensor: Nr:Datum:Temp:Feuchte:Taupunkt:
Aussen-T/F 1201 12-03-2019 04:00:00 1.5 C 89 % -0.11 C
1202 12-03-2019 04:05:00 1.4 C 89 % -0.21 C
1203 12-03-2019 04:10:00 1.4 C 89 % -0.21 C
1204 12-03-2019 04:15:00 1.4 C 89 % -0.21 C
1205 12-03-2019 04:20:00 1.4 C 90 % -0.06 C
1206 12-03-2019 04:25:00 1.4 C 89 % -0.21 C
1207 12-03-2019 04:30:00 1.3 C 89 % -0.31 C
1208 12-03-2019 04:35:00 1.3 C 90 % -0.15 C
1209 12-03-2019 04:40:00 1.2 C 89 % -0.41 C
1210 12-03-2019 04:45:00 1.2 C 90 % -0.25 C
1211 12-03-2019 04:50:00 1.2 C 90 % -0.25 C
1212 12-03-2019 04:55:00 1.3 C 90 % -0.15 C
1213 12-03-2019 05:00:00 1.3 C 90 % -0.15 C
1214 12-03-2019 05:05:00 1.3 C 90 % -0.15 C
1215 12-03-2019 05:10:00 1.4 C 90 % -0.06 C
1216 12-03-2019 05:15:00 1.5 C 90 % 0.04 C
1217 12-03-2019 05:20:00 1.6 C 90 % 0.14 C
1218 12-03-2019 05:25:00 1.7 C 90 % 0.24 C
1219 12-03-2019 05:30:00 1.7 C 90 % 0.24 C
1220 12-03-2019 05:35:00 1.7 C 90 % 0.24 C
1221 12-03-2019 05:40:00 1.8 C 90 % 0.34 C
1222 12-03-2019 05:45:00 1.8 C 90 % 0.34 C
1223 12-03-2019 05:50:00 1.8 C 90 % 0.34 C
1224 12-03-2019 05:55:00 1.9 C 90 % 0.44 C
1225 12-03-2019 06:00:00 1.9 C 90 % 0.44 C
Sensor: Nr:Datum:Temp:Feuchte:Taupunkt:
Aussen-T/F 1226 12-03-2019 06:05:00 1.9 C 90 % 0.44 C
1227 12-03-2019 06:10:00 1.9 C 90 % 0.44 C
1228 12-03-2019 06:15:00 1.9 C 89 % 0.28 C
1229 12-03-2019 06:20:00 1.8 C 89 % 0.19 C
1230 12-03-2019 06:25:00 1.8 C 89 % 0.19 C
1231 12-03-2019 06:30:00 1.8 C 89 % 0.19 C
1232 12-03-2019 06:35:00 1.7 C 89 % 0.09 C
1233 12-03-2019 06:40:00 1.7 C 90 % 0.24 C
1234 12-03-2019 06:45:00 1.6 C 90 % 0.14 C
1235 12-03-2019 06:50:00 1.6 C 90 % 0.14 C
1236 12-03-2019 06:55:00 1.6 C 90 % 0.14 C
1237 12-03-2019 07:00:00 1.7 C 90 % 0.24 C
1238 12-03-2019 07:05:00 1.7 C 91 % 0.39 C
1239 12-03-2019 07:10:00 1.7 C 91 % 0.39 C
1240 12-03-2019 07:15:00 1.8 C 90 % 0.34 C
1241 12-03-2019 07:20:00 1.8 C 90 % 0.34 C
1242 12-03-2019 07:25:00 1.8 C 91 % 0.49 C
1243 12-03-2019 07:30:00 1.8 C 91 % 0.49 C
1244 12-03-2019 07:35:00 1.9 C 91 % 0.59 C
1245 12-03-2019 07:40:00 2.1 C 91 % 0.79 C
1246 12-03-2019 07:45:00 2.2 C 91 % 0.89 C
1247 12-03-2019 07:50:00 2.3 C 91 % 0.99 C
1248 12-03-2019 07:55:00 2.4 C 91 % 1.08 C
1249 12-03-2019 08:00:00 2.6 C 91 % 1.28 C
1250 12-03-2019 08:05:00 2.7 C 90 % 1.23 C
Sensor: Nr:Datum:Temp:Feuchte:Taupunkt:
Aussen-T/F 1251 12-03-2019 08:10:00 2.7 C 90 % 1.23 C
1252 12-03-2019 08:15:00 2.8 C 90 % 1.33 C
1253 12-03-2019 08:20:00 2.9 C 90 % 1.43 C
1254 12-03-2019 08:25:00 3.1 C 90 % 1.62 C
1255 12-03-2019 08:30:00 3.2 C 90 % 1.72 C
1256 12-03-2019 08:35:00 3.4 C 89 % 1.76 C
1257 12-03-2019 08:40:00 3.6 C 88 % 1.8 C
1258 12-03-2019 08:45:00 3.8 C 87 % 1.84 C
1259 12-03-2019 08:50:00 4 C 86 % 1.88 C
1260 12-03-2019 08:55:00 4.2 C 86 % 2.07 C
1261 12-03-2019 09:00:00 4.4 C 85 % 2.11 C
1262 12-03-2019 09:05:00 4.6 C 85 % 2.3 C
1263 12-03-2019 09:10:00 4.7 C 84 % 2.23 C
1264 12-03-2019 09:15:00 4.8 C 84 % 2.33 C
1265 12-03-2019 09:20:00 4.9 C 84 % 2.43 C
1266 12-03-2019 09:25:00 5.1 C 83 % 2.46 C
1267 12-03-2019 09:30:00 5.2 C 83 % 2.56 C
1268 12-03-2019 09:35:00 5.3 C 82 % 2.48 C
1269 12-03-2019 09:40:00 5.6 C 81 % 2.6 C
1270 12-03-2019 09:45:00 5.7 C 81 % 2.7 C
1271 12-03-2019 09:50:00 6 C 79 % 2.64 C
1272 12-03-2019 09:55:00 6.2 C 79 % 2.84 C
1273 12-03-2019 10:00:00 6.4 C 77 % 2.67 C
1274 12-03-2019 10:05:00 6.7 C 76 % 2.78 C
1275 12-03-2019 10:10:00 6.9 C 76 % 2.97 C
Sensor: Nr:Datum:Temp:Feuchte:Taupunkt:
Aussen-T/F 1276 12-03-2019 10:15:00 7.2 C 75 % 3.07 C
1277 12-03-2019 10:20:00 7.3 C 74 % 2.98 C
1278 12-03-2019 10:25:00 7.4 C 73 % 2.89 C
1279 12-03-2019 10:30:00 7.4 C 72 % 2.69 C
1280 12-03-2019 10:35:00 7.6 C 71 % 2.69 C
1281 12-03-2019 10:40:00 7.7 C 69 % 2.38 C
1282 12-03-2019 10:45:00 7.9 C 69 % 2.57 C
1283 12-03-2019 10:50:00 8.1 C 69 % 2.77 C
1284 12-03-2019 10:55:00 8.2 C 67 % 2.45 C
1285 12-03-2019 11:00:00 8.2 C 66 % 2.24 C
1286 12-03-2019 11:05:00 8.2 C 66 % 2.24 C
1287 12-03-2019 11:10:00 8.3 C 66 % 2.33 C
1288 12-03-2019 11:15:00 8.4 C 65 % 2.21 C
1289 12-03-2019 11:20:00 8.6 C 65 % 2.4 C
1290 12-03-2019 11:25:00 8.8 C 64 % 2.38 C
1291 12-03-2019 11:30:00 9 C 63 % 2.35 C
1292 12-03-2019 11:35:00 9.1 C 63 % 2.44 C
1293 12-03-2019 11:40:00 9.2 C 61 % 2.08 C
1294 12-03-2019 11:45:00 9.2 C 61 % 2.08 C
1295 12-03-2019 11:50:00 9.2 C 62 % 2.31 C
1296 12-03-2019 11:55:00 9.2 C 61 % 2.08 C
1297 12-03-2019 12:00:00 9.2 C 61 % 2.08 C
1298 12-03-2019 12:05:00 9.2 C 63 % 2.53 C
1299 12-03-2019 12:10:00 9.2 C 62 % 2.31 C
1300 12-03-2019 12:15:00 9.2 C 62 % 2.31 C
Sensor: Nr:Datum:Temp:Feuchte:Taupunkt:
Aussen-T/F 1301 12-03-2019 12:20:00 9.2 C 61 % 2.08 C
1302 12-03-2019 12:25:00 9.3 C 62 % 2.4 C
1303 12-03-2019 12:30:00 9.4 C 60 % 2.04 C
1304 12-03-2019 12:35:00 9.5 C 61 % 2.37 C
1305 12-03-2019 12:40:00 9.6 C 60 % 2.23 C
1306 12-03-2019 12:45:00 9.7 C 61 % 2.55 C
1307 12-03-2019 12:50:00 9.7 C 61 % 2.55 C
1308 12-03-2019 12:55:00 9.7 C 60 % 2.32 C
1309 12-03-2019 13:00:00 9.7 C 60 % 2.32 C
1310 12-03-2019 13:05:00 9.6 C 60 % 2.23 C
1311 12-03-2019 13:10:00 9.6 C 60 % 2.23 C
1312 12-03-2019 13:15:00 9.6 C 59 % 1.99 C
1313 12-03-2019 13:20:00 9.7 C 61 % 2.55 C
1314 12-03-2019 13:25:00 9.7 C 59 % 2.09 C
1315 12-03-2019 13:30:00 9.8 C 60 % 2.42 C
1316 12-03-2019 13:35:00 9.9 C 60 % 2.51 C
1317 12-03-2019 13:40:00 9.9 C 58 % 2.04 C
1318 12-03-2019 13:45:00 9.8 C 59 % 2.18 C
1319 12-03-2019 13:50:00 9.8 C 58 % 1.94 C
1320 12-03-2019 13:55:00 9.8 C 59 % 2.18 C
1321 12-03-2019 14:00:00 9.8 C 59 % 2.18 C
1322 12-03-2019 14:05:00 9.9 C 59 % 2.27 C
1323 12-03-2019 14:10:00 10.1 C 60 % 2.7 C
1324 12-03-2019 14:15:00 10.1 C 59 % 2.46 C
1325 12-03-2019 14:20:00 10.1 C 58 % 2.22 C
Sensor: Nr:Datum:Temp:Feuchte:Taupunkt:
Aussen-T/F 1326 12-03-2019 14:25:00 10.2 C 57 % 2.07 C
1327 12-03-2019 14:30:00 10.2 C 56 % 1.83 C
1328 12-03-2019 14:35:00 10.2 C 57 % 2.07 C
1329 12-03-2019 14:40:00 10.3 C 58 % 2.41 C
1330 12-03-2019 14:45:00 10.3 C 56 % 1.92 C
1331 12-03-2019 14:50:00 10.4 C 57 % 2.26 C
1332 12-03-2019 14:55:00 10.6 C 56 % 2.2 C
1333 12-03-2019 15:00:00 10.8 C 55 % 2.13 C
1334 12-03-2019 15:05:00 10.8 C 55 % 2.13 C
1335 12-03-2019 15:10:00 10.8 C 55 % 2.13 C
1336 12-03-2019 15:15:00 10.8 C 54 % 1.88 C
1337 12-03-2019 15:20:00 10.6 C 53 % 1.43 C
1338 12-03-2019 15:25:00 10.6 C 54 % 1.69 C
1339 12-03-2019 15:30:00 10.4 C 54 % 1.51 C
1340 12-03-2019 15:35:00 10.4 C 53 % 1.25 C
1341 12-03-2019 15:40:00 10.3 C 53 % 1.15 C
1342 12-03-2019 15:45:00 10.3 C 54 % 1.41 C
1343 12-03-2019 15:50:00 10.4 C 53 % 1.25 C
1344 12-03-2019 15:55:00 10.6 C 55 % 1.95 C
1345 12-03-2019 16:00:00 10.6 C 54 % 1.69 C
1346 12-03-2019 16:05:00 10.6 C 52 % 1.17 C
1347 12-03-2019 16:10:00 10.6 C 52 % 1.17 C
1348 12-03-2019 16:15:00 10.6 C 49 % 0.35 C
1349 12-03-2019 16:20:00 10.5 C 52 % 1.07 C
1350 12-03-2019 16:25:00 10.4 C 49 % 0.16 C
Sensor: Nr:Datum:Temp:Feuchte:Taupunkt:
Aussen-T/F 1351 12-03-2019 16:30:00 10.3 C 48 % -0.21 C
1352 12-03-2019 16:35:00 10.2 C 49 % -0.02 C
1353 12-03-2019 16:40:00 10.2 C 50 % 0.26 C
1354 12-03-2019 16:45:00 10.1 C 50 % 0.16 C
1355 12-03-2019 16:50:00 10 C 49 % -0.21 C
1356 12-03-2019 16:55:00 9.9 C 49 % -0.3 C
1357 12-03-2019 17:00:00 9.9 C 52 % 0.52 C
1358 12-03-2019 17:05:00 9.8 C 52 % 0.43 C
1359 12-03-2019 17:10:00 9.8 C 51 % 0.16 C
1360 12-03-2019 17:15:00 9.7 C 51 % 0.07 C
1361 12-03-2019 17:20:00 9.6 C 54 % 0.76 C
1362 12-03-2019 17:25:00 9.5 C 53 % 0.41 C
1363 12-03-2019 17:30:00 9.3 C 59 % 1.71 C
1364 12-03-2019 17:35:00 9.2 C 56 % 0.89 C
1365 12-03-2019 17:40:00 9 C 57 % 0.95 C
1366 12-03-2019 17:45:00 8.9 C 58 % 1.1 C
1367 12-03-2019 17:50:00 8.8 C 61 % 1.71 C
1368 12-03-2019 17:55:00 8.6 C 62 % 1.74 C
1369 12-03-2019 18:00:00 8.4 C 62 % 1.55 C
1370 12-03-2019 18:05:00 8.3 C 62 % 1.46 C
1371 12-03-2019 18:10:00 8.2 C 61 % 1.14 C
1372 12-03-2019 18:15:00 8.1 C 62 % 1.27 C
1373 12-03-2019 18:20:00 8 C 63 % 1.4 C
1374 12-03-2019 18:25:00 7.9 C 61 % 0.86 C
1375 12-03-2019 18:30:00 7.9 C 62 % 1.08 C
Sensor: Nr:Datum:Temp:Feuchte:Taupunkt:
Aussen-T/F 1376 12-03-2019 18:35:00 7.9 C 63 % 1.3 C
1377 12-03-2019 18:40:00 8 C 58 % 0.25 C
1378 12-03-2019 18:45:00 8.1 C 59 % 0.58 C
1379 12-03-2019 18:50:00 8.2 C 62 % 1.37 C
1380 12-03-2019 18:55:00 8.2 C 60 % 0.91 C
1381 12-03-2019 19:00:00 8.4 C 56 % 0.15 C
1382 12-03-2019 19:05:00 8.5 C 59 % 0.96 C
1383 12-03-2019 19:10:00 8.5 C 54 % -0.26 C
1384 12-03-2019 19:15:00 8.6 C 59 % 1.05 C
1385 12-03-2019 19:20:00 8.6 C 52 % -0.68 C
1386 12-03-2019 19:25:00 8.8 C 55 % 0.27 C
1387 12-03-2019 19:30:00 8.8 C 58 % 1 C
1388 12-03-2019 19:35:00 8.9 C 51 % -0.67 C
1389 12-03-2019 19:40:00 9.1 C 52 % -0.22 C
1390 12-03-2019 19:45:00 8.9 C 53 % -0.15 C
1391 12-03-2019 19:50:00 8.8 C 52 % -0.5 C
1392 12-03-2019 19:55:00 8.8 C 49 % -1.31 C
1393 12-03-2019 20:00:00 8.8 C 48 % -1.59 C
1394 12-03-2019 20:05:00 9 C 46 % -1.98 C
1395 12-03-2019 20:10:00 9.3 C 46 % -1.71 C
1396 12-03-2019 20:15:00 9.4 C 46 % -1.62 C
1397 12-03-2019 20:20:00 9.4 C 50 % -0.48 C
1398 12-03-2019 20:25:00 9.4 C 45 % -1.91 C
1399 12-03-2019 20:30:00 9.4 C 46 % -1.62 C
1400 12-03-2019 20:35:00 9.5 C 46 % -1.53 C
Sensor: Nr:Datum:Temp:Feuchte:Taupunkt:
Aussen-T/F 1401 12-03-2019 20:40:00 9.6 C 46 % -1.43 C
1402 12-03-2019 20:45:00 9.7 C 47 % -1.05 C
1403 12-03-2019 20:50:00 9.8 C 46 % -1.25 C
1404 12-03-2019 20:55:00 9.8 C 46 % -1.25 C
1405 12-03-2019 21:00:00 10 C 45 % -1.37 C
1406 12-03-2019 21:05:00 10.2 C 46 % -0.89 C
1407 12-03-2019 21:10:00 10.3 C 46 % -0.8 C
1408 12-03-2019 21:15:00 10.4 C 46 % -0.7 C
1409 12-03-2019 21:20:00 10.6 C 45 % -0.82 C
1410 12-03-2019 21:25:00 10.8 C 44 % -0.95 C
1411 12-03-2019 21:30:00 11 C 45 % -0.46 C
1412 12-03-2019 21:35:00 11.1 C 45 % -0.37 C
1413 12-03-2019 21:40:00 11 C 46 % -0.16 C
1414 12-03-2019 21:45:00 11.1 C 46 % -0.07 C
1415 12-03-2019 21:50:00 11.2 C 47 % 0.32 C
1416 12-03-2019 21:55:00 11.2 C 47 % 0.32 C
1417 12-03-2019 22:00:00 11.3 C 49 % 0.99 C
1418 12-03-2019 22:05:00 11.3 C 49 % 0.99 C
1419 12-03-2019 22:10:00 11.3 C 50 % 1.27 C
1420 12-03-2019 22:15:00 11.3 C 51 % 1.54 C
1421 12-03-2019 22:20:00 11.3 C 51 % 1.54 C
1422 12-03-2019 22:25:00 11.3 C 52 % 1.81 C
1423 12-03-2019 22:30:00 11.3 C 53 % 2.08 C
1424 12-03-2019 22:35:00 11.2 C 54 % 2.25 C
1425 12-03-2019 22:40:00 11.2 C 54 % 2.25 C
Sensor: Nr:Datum:Temp:Feuchte:Taupunkt:
Aussen-T/F 1426 12-03-2019 22:45:00 11.1 C 57 % 2.92 C
1427 12-03-2019 22:50:00 10.8 C 62 % 3.82 C
1428 12-03-2019 22:55:00 10.3 C 65 % 4.02 C
1429 12-03-2019 23:00:00 9.9 C 69 % 4.49 C
1430 12-03-2019 23:05:00 9.6 C 71 % 4.61 C
1431 12-03-2019 23:10:00 9.3 C 73 % 4.72 C
1432 12-03-2019 23:15:00 9.1 C 74 % 4.72 C
1433 12-03-2019 23:20:00 8.9 C 76 % 4.91 C
1434 12-03-2019 23:25:00 8.8 C 76 % 4.81 C
1435 12-03-2019 23:30:00 8.7 C 78 % 5.08 C
1436 12-03-2019 23:35:00 8.5 C 79 % 5.07 C
1437 12-03-2019 23:40:00 8 C 79 % 4.59 C
1438 12-03-2019 23:45:00 7.5 C 80 % 4.28 C
1439 12-03-2019 23:50:00 7.2 C 82 % 4.34 C
1440 12-03-2019 23:55:00 6.9 C 83 % 4.22 C
1441 13-03-2019 00:00:00 6.8 C 83 % 4.12 C
1442 13-03-2019 00:05:00 6.8 C 83 % 4.12 C
1443 13-03-2019 00:10:00 6.8 C 82 % 3.95 C
1444 13-03-2019 00:15:00 6.7 C 80 % 3.5 C
1445 13-03-2019 00:20:00 6.6 C 80 % 3.4 C
1446 13-03-2019 00:25:00 6.6 C 80 % 3.4 C
1447 13-03-2019 00:30:00 6.4 C 80 % 3.21 C
1448 13-03-2019 00:35:00 6.4 C 80 % 3.21 C
1449 13-03-2019 00:40:00 6.3 C 80 % 3.11 C
1450 13-03-2019 00:45:00 6.3 C 79 % 2.93 C
Sensor: Nr:Datum:Temp:Feuchte:Taupunkt:
Aussen-T/F 1451 13-03-2019 00:50:00 6.4 C 80 % 3.21 C
1452 13-03-2019 00:55:00 6.3 C 80 % 3.11 C
1453 13-03-2019 01:00:00 6.2 C 79 % 2.84 C
1454 13-03-2019 01:05:00 6.2 C 79 % 2.84 C
1455 13-03-2019 01:10:00 6.1 C 79 % 2.74 C
1456 13-03-2019 01:15:00 5.9 C 79 % 2.54 C
1457 13-03-2019 01:20:00 5.8 C 79 % 2.45 C
1458 13-03-2019 01:25:00 5.7 C 80 % 2.53 C
1459 13-03-2019 01:30:00 5.6 C 80 % 2.43 C
1460 13-03-2019 01:35:00 5.6 C 80 % 2.43 C
1461 13-03-2019 01:40:00 5.4 C 80 % 2.23 C
1462 13-03-2019 01:45:00 5.4 C 80 % 2.23 C
1463 13-03-2019 01:50:00 5.5 C 79 % 2.16 C
1464 13-03-2019 01:55:00 5.5 C 79 % 2.16 C
1465 13-03-2019 02:00:00 5.5 C 80 % 2.33 C
1466 13-03-2019 02:05:00 5.4 C 80 % 2.23 C
1467 13-03-2019 02:10:00 5.3 C 81 % 2.31 C
1468 13-03-2019 02:15:00 5.2 C 81 % 2.21 C
1469 13-03-2019 02:20:00 5.2 C 82 % 2.39 C
1470 13-03-2019 02:25:00 5.2 C 82 % 2.39 C
1471 13-03-2019 02:30:00 5.3 C 82 % 2.48 C
1472 13-03-2019 02:35:00 5.4 C 81 % 2.41 C
1473 13-03-2019 02:40:00 5.5 C 79 % 2.16 C
1474 13-03-2019 02:45:00 5.6 C 78 % 2.07 C
1475 13-03-2019 02:50:00 5.7 C 78 % 2.17 C
Sensor: Nr:Datum:Temp:Feuchte:Taupunkt:
Aussen-T/F 1476 13-03-2019 02:55:00 5.8 C 78 % 2.27 C
1477 13-03-2019 03:00:00 5.8 C 78 % 2.27 C
1478 13-03-2019 03:05:00 5.7 C 77 % 1.99 C
1479 13-03-2019 03:10:00 5.7 C 77 % 1.99 C
1480 13-03-2019 03:15:00 5.6 C 76 % 1.71 C
1481 13-03-2019 03:20:00 5.6 C 77 % 1.89 C
1482 13-03-2019 03:25:00 5.6 C 77 % 1.89 C
1483 13-03-2019 03:30:00 5.7 C 77 % 1.99 C
1484 13-03-2019 03:35:00 5.8 C 77 % 2.09 C
1485 13-03-2019 03:40:00 5.8 C 77 % 2.09 C
1486 13-03-2019 03:45:00 5.9 C 77 % 2.19 C
1487 13-03-2019 03:50:00 5.9 C 78 % 2.37 C
1488 13-03-2019 03:55:00 5.8 C 78 % 2.27 C
1489 13-03-2019 04:00:00 5.8 C 78 % 2.27 C
1490 13-03-2019 04:05:00 5.7 C 79 % 2.35 C
1491 13-03-2019 04:10:00 5.6 C 79 % 2.25 C
1492 13-03-2019 04:15:00 5.7 C 79 % 2.35 C
1493 13-03-2019 04:20:00 5.6 C 79 % 2.25 C
1494 13-03-2019 04:25:00 5.6 C 80 % 2.43 C
1495 13-03-2019 04:30:00 5.6 C 80 % 2.43 C
1496 13-03-2019 04:35:00 5.5 C 80 % 2.33 C
1497 13-03-2019 04:40:00 5.4 C 80 % 2.23 C
1498 13-03-2019 04:45:00 5.3 C 81 % 2.31 C
1499 13-03-2019 04:50:00 5.3 C 81 % 2.31 C
1500 13-03-2019 04:55:00 5.3 C 81 % 2.31 C
Sensor: Nr:Datum:Temp:Feuchte:Taupunkt:
Aussen-T/F 1501 13-03-2019 05:00:00 5.4 C 83 % 2.75 C
1502 13-03-2019 05:05:00 5.4 C 83 % 2.75 C
1503 13-03-2019 05:10:00 5.4 C 83 % 2.75 C
1504 13-03-2019 05:15:00 5.3 C 83 % 2.65 C
1505 13-03-2019 05:20:00 5.3 C 83 % 2.65 C
1506 13-03-2019 05:25:00 5.2 C 83 % 2.56 C
1507 13-03-2019 05:30:00 5.2 C 84 % 2.72 C
1508 13-03-2019 05:35:00 5.3 C 83 % 2.65 C
1509 13-03-2019 05:40:00 5.4 C 83 % 2.75 C
1510 13-03-2019 05:45:00 5.5 C 83 % 2.85 C
1511 13-03-2019 05:50:00 5.4 C 83 % 2.75 C
1512 13-03-2019 05:55:00 5.3 C 83 % 2.65 C
1513 13-03-2019 06:00:00 5.3 C 83 % 2.65 C
1514 13-03-2019 06:05:00 5.2 C 83 % 2.56 C
1515 13-03-2019 06:10:00 5.1 C 83 % 2.46 C
1516 13-03-2019 06:15:00 4.9 C 83 % 2.26 C
1517 13-03-2019 06:20:00 4.8 C 83 % 2.16 C
1518 13-03-2019 06:25:00 4.9 C 84 % 2.43 C
1519 13-03-2019 06:30:00 5.1 C 84 % 2.63 C
1520 13-03-2019 06:35:00 5.2 C 83 % 2.56 C
1521 13-03-2019 06:40:00 5.3 C 83 % 2.65 C
1522 13-03-2019 06:45:00 5.4 C 82 % 2.58 C
1523 13-03-2019 06:50:00 5.4 C 81 % 2.41 C
1524 13-03-2019 06:55:00 5.4 C 81 % 2.41 C
1525 13-03-2019 07:00:00 5.4 C 81 % 2.41 C
Sensor: Nr:Datum:Temp:Feuchte:Taupunkt:
Aussen-T/F 1526 13-03-2019 07:05:00 5.4 C 81 % 2.41 C
1527 13-03-2019 07:10:00 5.4 C 81 % 2.41 C
1528 13-03-2019 07:15:00 5.4 C 81 % 2.41 C
1529 13-03-2019 07:20:00 5.4 C 80 % 2.23 C
1530 13-03-2019 07:25:00 5.4 C 80 % 2.23 C
1531 13-03-2019 07:30:00 5.4 C 80 % 2.23 C
1532 13-03-2019 07:35:00 5.4 C 80 % 2.23 C
1533 13-03-2019 07:40:00 5.5 C 80 % 2.33 C
1534 13-03-2019 07:45:00 5.6 C 80 % 2.43 C
1535 13-03-2019 07:50:00 5.6 C 81 % 2.6 C
1536 13-03-2019 07:55:00 5.7 C 82 % 2.87 C
1537 13-03-2019 08:00:00 5.6 C 81 % 2.6 C
1538 13-03-2019 08:05:00 5.6 C 81 % 2.6 C
1539 13-03-2019 08:10:00 5.8 C 81 % 2.8 C
1540 13-03-2019 08:15:00 5.9 C 80 % 2.72 C
1541 13-03-2019 08:20:00 6.1 C 80 % 2.92 C
1542 13-03-2019 08:25:00 6.2 C 80 % 3.01 C
1543 13-03-2019 08:30:00 6.3 C 80 % 3.11 C
1544 13-03-2019 08:35:00 6.3 C 80 % 3.11 C
1545 13-03-2019 08:40:00 6.3 C 79 % 2.93 C
1546 13-03-2019 08:45:00 6.3 C 80 % 3.11 C
1547 13-03-2019 08:50:00 6.3 C 80 % 3.11 C
1548 13-03-2019 08:55:00 6.3 C 80 % 3.11 C
1549 13-03-2019 09:00:00 6.3 C 80 % 3.11 C
1550 13-03-2019 09:05:00 6.3 C 80 % 3.11 C
Sensor: Nr:Datum:Temp:Feuchte:Taupunkt:
Aussen-T/F 1551 13-03-2019 09:10:00 6.3 C 80 % 3.11 C
1552 13-03-2019 09:15:00 6.4 C 79 % 3.03 C
1553 13-03-2019 09:20:00 6.6 C 77 % 2.86 C
1554 13-03-2019 09:25:00 6.7 C 77 % 2.96 C
1555 13-03-2019 09:30:00 6.8 C 77 % 3.06 C
1556 13-03-2019 09:35:00 6.7 C 77 % 2.96 C
1557 13-03-2019 09:40:00 6.6 C 76 % 2.68 C
1558 13-03-2019 09:45:00 6.5 C 77 % 2.77 C
1559 13-03-2019 09:50:00 6.4 C 77 % 2.67 C
1560 13-03-2019 09:55:00 6.4 C 77 % 2.67 C
1561 13-03-2019 10:00:00 6.4 C 78 % 2.85 C
1562 13-03-2019 10:05:00 6.6 C 78 % 3.05 C
1563 13-03-2019 10:10:00 6.7 C 78 % 3.14 C
1564 13-03-2019 10:15:00 6.8 C 77 % 3.06 C
1565 13-03-2019 10:20:00 6.9 C 77 % 3.16 C
1566 13-03-2019 10:25:00 6.9 C 77 % 3.16 C
1567 13-03-2019 10:30:00 6.9 C 78 % 3.34 C
1568 13-03-2019 10:35:00 7.1 C 77 % 3.35 C
1569 13-03-2019 10:40:00 7.1 C 77 % 3.35 C
1570 13-03-2019 10:45:00 7.2 C 77 % 3.45 C
1571 13-03-2019 10:50:00 7.3 C 77 % 3.54 C
1572 13-03-2019 10:55:00 7.4 C 76 % 3.45 C
1573 13-03-2019 11:00:00 7.4 C 76 % 3.45 C
1574 13-03-2019 11:05:00 7.6 C 76 % 3.65 C
1575 13-03-2019 11:10:00 7.7 C 75 % 3.56 C
Sensor: Nr:Datum:Temp:Feuchte:Taupunkt:
Aussen-T/F 1576 13-03-2019 11:15:00 7.8 C 75 % 3.65 C
1577 13-03-2019 11:20:00 7.8 C 74 % 3.46 C
1578 13-03-2019 11:25:00 7.8 C 75 % 3.65 C
1579 13-03-2019 11:30:00 7.8 C 74 % 3.46 C
1580 13-03-2019 11:35:00 7.9 C 74 % 3.56 C
1581 13-03-2019 11:40:00 8.1 C 76 % 4.13 C
1582 13-03-2019 11:45:00 8.1 C 75 % 3.94 C
1583 13-03-2019 11:50:00 8 C 76 % 4.04 C
1584 13-03-2019 11:55:00 7.8 C 76 % 3.84 C
1585 13-03-2019 12:00:00 7.8 C 77 % 4.03 C
1586 13-03-2019 12:05:00 7.9 C 76 % 3.94 C
1587 13-03-2019 12:10:00 8 C 75 % 3.85 C
1588 13-03-2019 12:15:00 8.2 C 75 % 4.04 C
1589 13-03-2019 12:20:00 8.3 C 74 % 3.95 C
1590 13-03-2019 12:25:00 8.3 C 74 % 3.95 C
1591 13-03-2019 12:30:00 8.3 C 73 % 3.75 C
1592 13-03-2019 12:35:00 8.3 C 73 % 3.75 C
1593 13-03-2019 12:40:00 8.3 C 73 % 3.75 C
1594 13-03-2019 12:45:00 8.2 C 74 % 3.85 C
1595 13-03-2019 12:50:00 8.2 C 74 % 3.85 C
1596 13-03-2019 12:55:00 8.1 C 75 % 3.94 C
1597 13-03-2019 13:00:00 8.2 C 75 % 4.04 C
1598 13-03-2019 13:05:00 8.2 C 75 % 4.04 C
1599 13-03-2019 13:10:00 8.1 C 75 % 3.94 C
1600 13-03-2019 13:15:00 8.1 C 75 % 3.94 C
Sensor: Nr:Datum:Temp:Feuchte:Taupunkt:
Aussen-T/F 1601 13-03-2019 13:20:00 8.1 C 75 % 3.94 C
1602 13-03-2019 13:25:00 8 C 75 % 3.85 C
1603 13-03-2019 13:30:00 7.8 C 76 % 3.84 C
1604 13-03-2019 13:35:00 7.8 C 78 % 4.21 C
1605 13-03-2019 13:40:00 7.8 C 79 % 4.39 C
1606 13-03-2019 13:45:00 7.8 C 79 % 4.39 C
1607 13-03-2019 13:50:00 7.8 C 78 % 4.21 C
1608 13-03-2019 13:55:00 7.8 C 78 % 4.21 C
1609 13-03-2019 14:00:00 7.9 C 78 % 4.31 C
1610 13-03-2019 14:05:00 8.1 C 78 % 4.5 C
1611 13-03-2019 14:10:00 8.2 C 77 % 4.42 C
1612 13-03-2019 14:15:00 8.2 C 77 % 4.42 C
1613 13-03-2019 14:20:00 8.2 C 78 % 4.6 C
1614 13-03-2019 14:25:00 8.1 C 78 % 4.5 C
1615 13-03-2019 14:30:00 8 C 79 % 4.59 C
1616 13-03-2019 14:35:00 7.9 C 78 % 4.31 C
1617 13-03-2019 14:40:00 7.9 C 79 % 4.49 C
1618 13-03-2019 14:45:00 8 C 79 % 4.59 C
1619 13-03-2019 14:50:00 8 C 78 % 4.41 C
1620 13-03-2019 14:55:00 8.1 C 78 % 4.5 C
1621 13-03-2019 15:00:00 8 C 78 % 4.41 C
1622 13-03-2019 15:05:00 7.9 C 79 % 4.49 C
1623 13-03-2019 15:10:00 7.9 C 79 % 4.49 C
1624 13-03-2019 15:15:00 7.9 C 80 % 4.67 C
1625 13-03-2019 15:20:00 7.8 C 80 % 4.57 C
Sensor: Nr:Datum:Temp:Feuchte:Taupunkt:
Aussen-T/F 1626 13-03-2019 15:25:00 7.9 C 80 % 4.67 C
1627 13-03-2019 15:30:00 7.9 C 80 % 4.67 C
1628 13-03-2019 15:35:00 7.8 C 80 % 4.57 C
1629 13-03-2019 15:40:00 7.7 C 81 % 4.65 C
1630 13-03-2019 15:45:00 7.6 C 81 % 4.55 C
1631 13-03-2019 15:50:00 7.6 C 81 % 4.55 C
1632 13-03-2019 15:55:00 7.5 C 83 % 4.81 C
1633 13-03-2019 16:00:00 7.4 C 84 % 4.88 C
1634 13-03-2019 16:05:00 7.3 C 85 % 4.95 C
1635 13-03-2019 16:10:00 7.1 C 86 % 4.92 C
1636 13-03-2019 16:15:00 7 C 87 % 4.99 C
1637 13-03-2019 16:20:00 6.8 C 87 % 4.79 C
1638 13-03-2019 16:25:00 6.7 C 88 % 4.86 C
1639 13-03-2019 16:30:00 6.6 C 88 % 4.76 C
1640 13-03-2019 16:35:00 6.6 C 88 % 4.76 C
1641 13-03-2019 16:40:00 6.6 C 88 % 4.76 C
1642 13-03-2019 16:45:00 6.6 C 89 % 4.92 C
1643 13-03-2019 16:50:00 6.6 C 89 % 4.92 C
1644 13-03-2019 16:55:00 6.6 C 89 % 4.92 C
1645 13-03-2019 17:00:00 6.6 C 89 % 4.92 C
1646 13-03-2019 17:05:00 6.6 C 89 % 4.92 C
1647 13-03-2019 17:10:00 6.7 C 89 % 5.02 C
1648 13-03-2019 17:15:00 6.6 C 88 % 4.76 C
1649 13-03-2019 17:20:00 6.7 C 88 % 4.86 C
1650 13-03-2019 17:25:00 6.7 C 87 % 4.69 C
Sensor: Nr:Datum:Temp:Feuchte:Taupunkt:
Aussen-T/F 1651 13-03-2019 17:30:00 6.7 C 88 % 4.86 C
1652 13-03-2019 17:35:00 6.6 C 88 % 4.76 C
1653 13-03-2019 17:40:00 6.6 C 87 % 4.6 C
1654 13-03-2019 17:45:00 6.7 C 87 % 4.69 C
1655 13-03-2019 17:50:00 6.7 C 87 % 4.69 C
1656 13-03-2019 17:55:00 6.7 C 87 % 4.69 C
1657 13-03-2019 18:00:00 6.8 C 87 % 4.79 C
1658 13-03-2019 18:05:00 6.8 C 86 % 4.63 C
1659 13-03-2019 18:10:00 6.9 C 86 % 4.72 C
1660 13-03-2019 18:15:00 6.9 C 86 % 4.72 C
1661 13-03-2019 18:20:00 6.9 C 86 % 4.72 C
1662 13-03-2019 18:25:00 6.8 C 88 % 4.96 C
1663 13-03-2019 18:30:00 6.7 C 88 % 4.86 C
1664 13-03-2019 18:35:00 6.6 C 89 % 4.92 C
1665 13-03-2019 18:40:00 6.6 C 89 % 4.92 C
1666 13-03-2019 18:45:00 6.3 C 89 % 4.62 C
1667 13-03-2019 18:50:00 5.9 C 89 % 4.23 C
1668 13-03-2019 18:55:00 5.4 C 89 % 3.74 C
1669 13-03-2019 19:00:00 5.3 C 90 % 3.8 C
1670 13-03-2019 19:05:00 5.1 C 91 % 3.76 C
1671 13-03-2019 19:10:00 5 C 91 % 3.66 C
1672 13-03-2019 19:15:00 4.9 C 91 % 3.56 C
1673 13-03-2019 19:20:00 4.9 C 92 % 3.71 C
1674 13-03-2019 19:25:00 4.9 C 92 % 3.71 C
1675 13-03-2019 19:30:00 4.9 C 92 % 3.71 C
Sensor: Nr:Datum:Temp:Feuchte:Taupunkt:
Aussen-T/F 1676 13-03-2019 19:35:00 4.9 C 92 % 3.71 C
1677 13-03-2019 19:40:00 4.9 C 93 % 3.87 C
1678 13-03-2019 19:45:00 4.9 C 93 % 3.87 C
1679 13-03-2019 19:50:00 4.9 C 93 % 3.87 C
1680 13-03-2019 19:55:00 4.9 C 93 % 3.87 C
1681 13-03-2019 20:00:00 5 C 93 % 3.96 C
1682 13-03-2019 20:05:00 5.1 C 93 % 4.06 C
1683 13-03-2019 20:10:00 5.1 C 93 % 4.06 C
1684 13-03-2019 20:15:00 5.1 C 92 % 3.91 C
1685 13-03-2019 20:20:00 5.1 C 92 % 3.91 C
1686 13-03-2019 20:25:00 5.1 C 92 % 3.91 C
1687 13-03-2019 20:30:00 5 C 92 % 3.81 C
1688 13-03-2019 20:35:00 4.9 C 92 % 3.71 C
1689 13-03-2019 20:40:00 4.8 C 92 % 3.61 C
1690 13-03-2019 20:45:00 4.7 C 92 % 3.51 C
1691 13-03-2019 20:50:00 4.7 C 92 % 3.51 C
1692 13-03-2019 20:55:00 4.7 C 92 % 3.51 C
1693 13-03-2019 21:00:00 4.7 C 92 % 3.51 C
1694 13-03-2019 21:05:00 4.8 C 92 % 3.61 C
1695 13-03-2019 21:10:00 4.8 C 92 % 3.61 C
1696 13-03-2019 21:15:00 4.9 C 92 % 3.71 C
1697 13-03-2019 21:20:00 4.9 C 92 % 3.71 C
1698 13-03-2019 21:25:00 5 C 93 % 3.96 C
1699 13-03-2019 21:30:00 5 C 93 % 3.96 C
1700 13-03-2019 21:35:00 5.1 C 93 % 4.06 C
Sensor: Nr:Datum:Temp:Feuchte:Taupunkt:
Aussen-T/F 1701 13-03-2019 21:40:00 5.1 C 93 % 4.06 C
1702 13-03-2019 21:45:00 5 C 93 % 3.96 C
1703 13-03-2019 21:50:00 5 C 93 % 3.96 C
1704 13-03-2019 21:55:00 5 C 93 % 3.96 C
1705 13-03-2019 22:00:00 5 C 93 % 3.96 C
1706 13-03-2019 22:05:00 5 C 93 % 3.96 C
1707 13-03-2019 22:10:00 5 C 93 % 3.96 C
1708 13-03-2019 22:15:00 5.1 C 93 % 4.06 C
1709 13-03-2019 22:20:00 5 C 93 % 3.96 C
1710 13-03-2019 22:25:00 5 C 93 % 3.96 C
1711 13-03-2019 22:30:00 4.9 C 93 % 3.87 C
1712 13-03-2019 22:35:00 5 C 93 % 3.96 C
1713 13-03-2019 22:40:00 5 C 93 % 3.96 C
1714 13-03-2019 22:45:00 5.1 C 93 % 4.06 C
1715 13-03-2019 22:50:00 5.2 C 93 % 4.16 C
1716 13-03-2019 22:55:00 5.2 C 93 % 4.16 C
1717 13-03-2019 23:00:00 5.2 C 92 % 4.01 C
1718 13-03-2019 23:05:00 5.1 C 92 % 3.91 C
1719 13-03-2019 23:10:00 5 C 92 % 3.81 C
1720 13-03-2019 23:15:00 4.8 C 92 % 3.61 C
1721 13-03-2019 23:20:00 4.7 C 92 % 3.51 C
1722 13-03-2019 23:25:00 4.6 C 93 % 3.57 C
1723 13-03-2019 23:30:00 4.6 C 93 % 3.57 C
1724 13-03-2019 23:35:00 4.5 C 93 % 3.47 C
1725 13-03-2019 23:40:00 4.5 C 93 % 3.47 C
Sensor: Nr:Datum:Temp:Feuchte:Taupunkt:
Aussen-T/F 1726 13-03-2019 23:45:00 4.5 C 93 % 3.47 C
1727 13-03-2019 23:50:00 4.6 C 93 % 3.57 C
1728 13-03-2019 23:55:00 4.6 C 94 % 3.72 C
1729 14-03-2019 00:00:00 4.6 C 93 % 3.57 C
1730 14-03-2019 00:05:00 4.6 C 93 % 3.57 C
1731 14-03-2019 00:10:00 4.6 C 93 % 3.57 C
1732 14-03-2019 00:15:00 4.6 C 93 % 3.57 C
1733 14-03-2019 00:20:00 4.6 C 93 % 3.57 C
1734 14-03-2019 00:25:00 4.6 C 93 % 3.57 C
1735 14-03-2019 00:30:00 4.6 C 92 % 3.42 C
1736 14-03-2019 00:35:00 4.6 C 92 % 3.42 C
1737 14-03-2019 00:40:00 4.6 C 92 % 3.42 C
1738 14-03-2019 00:45:00 4.7 C 92 % 3.51 C
1739 14-03-2019 00:50:00 4.8 C 92 % 3.61 C
1740 14-03-2019 00:55:00 4.9 C 91 % 3.56 C
1741 14-03-2019 01:00:00 5 C 91 % 3.66 C
1742 14-03-2019 01:05:00 5.1 C 90 % 3.6 C
1743 14-03-2019 01:10:00 5.2 C 90 % 3.7 C
1744 14-03-2019 01:15:00 5.2 C 91 % 3.85 C
1745 14-03-2019 01:20:00 5.2 C 90 % 3.7 C
1746 14-03-2019 01:25:00 5.2 C 90 % 3.7 C
1747 14-03-2019 01:30:00 5.2 C 90 % 3.7 C
1748 14-03-2019 01:35:00 5.2 C 91 % 3.85 C
1749 14-03-2019 01:40:00 5.1 C 91 % 3.76 C
1750 14-03-2019 01:45:00 5.1 C 91 % 3.76 C
Sensor: Nr:Datum:Temp:Feuchte:Taupunkt:
Aussen-T/F 1751 14-03-2019 01:50:00 5.1 C 91 % 3.76 C
1752 14-03-2019 01:55:00 5 C 91 % 3.66 C
1753 14-03-2019 02:00:00 5 C 91 % 3.66 C
1754 14-03-2019 02:05:00 5 C 92 % 3.81 C
1755 14-03-2019 02:10:00 4.9 C 92 % 3.71 C
1756 14-03-2019 02:15:00 4.9 C 92 % 3.71 C
1757 14-03-2019 02:20:00 4.9 C 92 % 3.71 C
1758 14-03-2019 02:25:00 4.9 C 92 % 3.71 C
1759 14-03-2019 02:30:00 4.8 C 92 % 3.61 C
1760 14-03-2019 02:35:00 4.8 C 92 % 3.61 C
1761 14-03-2019 02:40:00 4.7 C 92 % 3.51 C
1762 14-03-2019 02:45:00 4.7 C 92 % 3.51 C
1763 14-03-2019 02:50:00 4.6 C 92 % 3.42 C
1764 14-03-2019 02:55:00 4.6 C 92 % 3.42 C
1765 14-03-2019 03:00:00 4.4 C 92 % 3.22 C
1766 14-03-2019 03:05:00 4.4 C 92 % 3.22 C
1767 14-03-2019 03:10:00 4.4 C 92 % 3.22 C
1768 14-03-2019 03:15:00 4.4 C 93 % 3.37 C
1769 14-03-2019 03:20:00 4.4 C 93 % 3.37 C
1770 14-03-2019 03:25:00 4.3 C 93 % 3.27 C
1771 14-03-2019 03:30:00 4.4 C 93 % 3.37 C
1772 14-03-2019 03:35:00 4.4 C 93 % 3.37 C
1773 14-03-2019 03:40:00 4.4 C 93 % 3.37 C
1774 14-03-2019 03:45:00 4.6 C 94 % 3.72 C
1775 14-03-2019 03:50:00 4.7 C 94 % 3.82 C
Sensor: Nr:Datum:Temp:Feuchte:Taupunkt:
Aussen-T/F 1776 14-03-2019 03:55:00 4.8 C 94 % 3.92 C
1777 14-03-2019 04:00:00 4.8 C 94 % 3.92 C
1778 14-03-2019 04:05:00 4.8 C 94 % 3.92 C
1779 14-03-2019 04:10:00 4.9 C 93 % 3.87 C
1780 14-03-2019 04:15:00 4.9 C 94 % 4.02 C
1781 14-03-2019 04:20:00 4.9 C 93 % 3.87 C
1782 14-03-2019 04:25:00 5 C 94 % 4.12 C
1783 14-03-2019 04:30:00 5.1 C 93 % 4.06 C
1784 14-03-2019 04:35:00 5.2 C 93 % 4.16 C
1785 14-03-2019 04:40:00 5.2 C 93 % 4.16 C
1786 14-03-2019 04:45:00 5.2 C 93 % 4.16 C
1787 14-03-2019 04:50:00 5.3 C 93 % 4.26 C
1788 14-03-2019 04:55:00 5.3 C 93 % 4.26 C
1789 14-03-2019 05:00:00 5.4 C 93 % 4.36 C
1790 14-03-2019 05:05:00 5.5 C 93 % 4.46 C
1791 14-03-2019 05:10:00 5.6 C 93 % 4.56 C
1792 14-03-2019 05:15:00 5.6 C 92 % 4.41 C
1793 14-03-2019 05:20:00 5.6 C 92 % 4.41 C
1794 14-03-2019 05:25:00 5.7 C 92 % 4.5 C
1795 14-03-2019 05:30:00 5.8 C 92 % 4.6 C
1796 14-03-2019 05:35:00 5.8 C 91 % 4.45 C
1797 14-03-2019 05:40:00 5.9 C 91 % 4.55 C
1798 14-03-2019 05:45:00 5.9 C 91 % 4.55 C
1799 14-03-2019 05:50:00 6 C 90 % 4.49 C
1800 14-03-2019 05:55:00 6 C 90 % 4.49 C
Sensor: Nr:Datum:Temp:Feuchte:Taupunkt:
Aussen-T/F 1801 14-03-2019 06:00:00 6.1 C 90 % 4.59 C
1802 14-03-2019 06:05:00 6.1 C 90 % 4.59 C
1803 14-03-2019 06:10:00 6.1 C 90 % 4.59 C
1804 14-03-2019 06:15:00 6.1 C 89 % 4.43 C
1805 14-03-2019 06:20:00 6.1 C 89 % 4.43 C
1806 14-03-2019 06:25:00 6.1 C 90 % 4.59 C
1807 14-03-2019 06:30:00 6.1 C 89 % 4.43 C
1808 14-03-2019 06:35:00 6.1 C 89 % 4.43 C
1809 14-03-2019 06:40:00 6.2 C 89 % 4.53 C
1810 14-03-2019 06:45:00 6.2 C 89 % 4.53 C
1811 14-03-2019 06:50:00 6.2 C 89 % 4.53 C
1812 14-03-2019 06:55:00 6.2 C 88 % 4.36 C
1813 14-03-2019 07:00:00 6.2 C 88 % 4.36 C
1814 14-03-2019 07:05:00 6.3 C 88 % 4.46 C
1815 14-03-2019 07:10:00 6.3 C 88 % 4.46 C
1816 14-03-2019 07:15:00 6.3 C 88 % 4.46 C
1817 14-03-2019 07:20:00 6.3 C 88 % 4.46 C
1818 14-03-2019 07:25:00 6.3 C 88 % 4.46 C
1819 14-03-2019 07:30:00 6.3 C 87 % 4.3 C
1820 14-03-2019 07:35:00 6.3 C 87 % 4.3 C
1821 14-03-2019 07:40:00 6.4 C 87 % 4.4 C
1822 14-03-2019 07:45:00 6.4 C 86 % 4.23 C
1823 14-03-2019 07:50:00 6.5 C 86 % 4.33 C
1824 14-03-2019 07:55:00 6.6 C 86 % 4.43 C
1825 14-03-2019 08:00:00 6.6 C 86 % 4.43 C
Sensor: Nr:Datum:Temp:Feuchte:Taupunkt:
Aussen-T/F 1826 14-03-2019 08:05:00 6.6 C 86 % 4.43 C
1827 14-03-2019 08:10:00 6.7 C 85 % 4.36 C
1828 14-03-2019 08:15:00 6.7 C 85 % 4.36 C
1829 14-03-2019 08:20:00 6.7 C 85 % 4.36 C
1830 14-03-2019 08:25:00 6.7 C 85 % 4.36 C
1831 14-03-2019 08:30:00 6.8 C 85 % 4.46 C
1832 14-03-2019 08:35:00 6.8 C 85 % 4.46 C
1833 14-03-2019 08:40:00 6.8 C 85 % 4.46 C
1834 14-03-2019 08:45:00 6.7 C 86 % 4.53 C
1835 14-03-2019 08:50:00 6.7 C 87 % 4.69 C
1836 14-03-2019 08:55:00 6.7 C 87 % 4.69 C
1837 14-03-2019 09:00:00 6.6 C 88 % 4.76 C
1838 14-03-2019 09:05:00 6.5 C 88 % 4.66 C
1839 14-03-2019 09:10:00 6.5 C 89 % 4.82 C
1840 14-03-2019 09:15:00 6.4 C 89 % 4.72 C
1841 14-03-2019 09:20:00 6.4 C 89 % 4.72 C
1842 14-03-2019 09:25:00 6.4 C 89 % 4.72 C
1843 14-03-2019 09:30:00 6.3 C 89 % 4.62 C
1844 14-03-2019 09:35:00 6.3 C 89 % 4.62 C
1845 14-03-2019 09:40:00 6.4 C 89 % 4.72 C
1846 14-03-2019 09:45:00 6.4 C 89 % 4.72 C
1847 14-03-2019 09:50:00 6.4 C 89 % 4.72 C
1848 14-03-2019 09:55:00 6.4 C 89 % 4.72 C
1849 14-03-2019 10:00:00 6.5 C 89 % 4.82 C
1850 14-03-2019 10:05:00 6.5 C 89 % 4.82 C
Sensor: Nr:Datum:Temp:Feuchte:Taupunkt:
Aussen-T/F 1851 14-03-2019 10:10:00 6.5 C 89 % 4.82 C
1852 14-03-2019 10:15:00 6.5 C 88 % 4.66 C
1853 14-03-2019 10:20:00 6.5 C 88 % 4.66 C
1854 14-03-2019 10:25:00 6.6 C 88 % 4.76 C
1855 14-03-2019 10:30:00 6.6 C 88 % 4.76 C
1856 14-03-2019 10:35:00 6.6 C 88 % 4.76 C
1857 14-03-2019 10:40:00 6.6 C 88 % 4.76 C
1858 14-03-2019 10:45:00 6.6 C 88 % 4.76 C
1859 14-03-2019 10:50:00 6.6 C 88 % 4.76 C
1860 14-03-2019 10:55:00 6.5 C 88 % 4.66 C
1861 14-03-2019 11:00:00 6.5 C 89 % 4.82 C
1862 14-03-2019 11:05:00 6.5 C 89 % 4.82 C
1863 14-03-2019 11:10:00 6.4 C 89 % 4.72 C
1864 14-03-2019 11:15:00 6.4 C 89 % 4.72 C
1865 14-03-2019 11:20:00 6.5 C 89 % 4.82 C
1866 14-03-2019 11:25:00 6.5 C 89 % 4.82 C
1867 14-03-2019 11:30:00 6.5 C 89 % 4.82 C
1868 14-03-2019 11:35:00 6.6 C 89 % 4.92 C
1869 14-03-2019 11:40:00 6.6 C 89 % 4.92 C
1870 14-03-2019 11:45:00 6.7 C 90 % 5.18 C
1871 14-03-2019 11:50:00 6.7 C 89 % 5.02 C
1872 14-03-2019 11:55:00 6.8 C 89 % 5.12 C
1873 14-03-2019 12:00:00 6.9 C 89 % 5.22 C
1874 14-03-2019 12:05:00 7.1 C 89 % 5.41 C
1875 14-03-2019 12:10:00 7.1 C 88 % 5.25 C
Sensor: Nr:Datum:Temp:Feuchte:Taupunkt:
Aussen-T/F 1876 14-03-2019 12:15:00 7.2 C 88 % 5.35 C
1877 14-03-2019 12:20:00 7.2 C 88 % 5.35 C
1878 14-03-2019 12:25:00 7.2 C 88 % 5.35 C
1879 14-03-2019 12:30:00 7.2 C 88 % 5.35 C
1880 14-03-2019 12:35:00 7.1 C 88 % 5.25 C
1881 14-03-2019 12:40:00 7.1 C 89 % 5.41 C
1882 14-03-2019 12:45:00 7.2 C 90 % 5.67 C
1883 14-03-2019 12:50:00 7.2 C 90 % 5.67 C
1884 14-03-2019 12:55:00 7.3 C 90 % 5.77 C
1885 14-03-2019 13:00:00 7.3 C 90 % 5.77 C
1886 14-03-2019 13:05:00 7.3 C 89 % 5.61 C
1887 14-03-2019 13:10:00 7.3 C 90 % 5.77 C
1888 14-03-2019 13:15:00 7.3 C 90 % 5.77 C
1889 14-03-2019 13:20:00 7.3 C 89 % 5.61 C
1890 14-03-2019 13:25:00 7.3 C 89 % 5.61 C
1891 14-03-2019 13:30:00 7.3 C 88 % 5.45 C
1892 14-03-2019 13:35:00 7.3 C 88 % 5.45 C
1893 14-03-2019 13:40:00 7.3 C 88 % 5.45 C
1894 14-03-2019 13:45:00 7.3 C 87 % 5.28 C
1895 14-03-2019 13:50:00 7.3 C 87 % 5.28 C
1896 14-03-2019 13:55:00 7.4 C 87 % 5.38 C
1897 14-03-2019 14:00:00 7.4 C 87 % 5.38 C
1898 14-03-2019 14:05:00 7.4 C 87 % 5.38 C
1899 14-03-2019 14:10:00 7.4 C 87 % 5.38 C
1900 14-03-2019 14:15:00 7.4 C 87 % 5.38 C
Sensor: Nr:Datum:Temp:Feuchte:Taupunkt:
Aussen-T/F 1901 14-03-2019 14:20:00 7.4 C 88 % 5.55 C
1902 14-03-2019 14:25:00 7.4 C 88 % 5.55 C
1903 14-03-2019 14:30:00 7.3 C 88 % 5.45 C
1904 14-03-2019 14:35:00 7.3 C 87 % 5.28 C
1905 14-03-2019 14:40:00 7.3 C 88 % 5.45 C
1906 14-03-2019 14:45:00 7.3 C 89 % 5.61 C
1907 14-03-2019 14:50:00 7.2 C 89 % 5.51 C
1908 14-03-2019 14:55:00 7.2 C 90 % 5.67 C
1909 14-03-2019 15:00:00 7.3 C 90 % 5.77 C
1910 14-03-2019 15:05:00 7.3 C 91 % 5.93 C
1911 14-03-2019 15:10:00 7.5 C 90 % 5.97 C
1912 14-03-2019 15:15:00 7.7 C 90 % 6.17 C
1913 14-03-2019 15:20:00 7.8 C 90 % 6.27 C
1914 14-03-2019 15:25:00 7.8 C 89 % 6.1 C
1915 14-03-2019 15:30:00 7.8 C 89 % 6.1 C
1916 14-03-2019 15:35:00 7.8 C 90 % 6.27 C
1917 14-03-2019 15:40:00 7.8 C 90 % 6.27 C
1918 14-03-2019 15:45:00 7.8 C 91 % 6.43 C
1919 14-03-2019 15:50:00 7.8 C 91 % 6.43 C
1920 14-03-2019 15:55:00 7.9 C 91 % 6.52 C
1921 14-03-2019 16:00:00 8.1 C 90 % 6.56 C
1922 14-03-2019 16:05:00 8.3 C 89 % 6.6 C
1923 14-03-2019 16:10:00 8.6 C 88 % 6.73 C
1924 14-03-2019 16:15:00 8.8 C 87 % 6.76 C
1925 14-03-2019 16:20:00 8.9 C 85 % 6.52 C
Sensor: Nr:Datum:Temp:Feuchte:Taupunkt:
Aussen-T/F 1926 14-03-2019 16:25:00 9.1 C 85 % 6.72 C
1927 14-03-2019 16:30:00 9.1 C 85 % 6.72 C
1928 14-03-2019 16:35:00 9.2 C 85 % 6.81 C
1929 14-03-2019 16:40:00 9.1 C 85 % 6.72 C
1930 14-03-2019 16:45:00 9.1 C 85 % 6.72 C
1931 14-03-2019 16:50:00 9.1 C 85 % 6.72 C
1932 14-03-2019 16:55:00 9.1 C 85 % 6.72 C
1933 14-03-2019 17:00:00 9.2 C 87 % 7.15 C
1934 14-03-2019 17:05:00 9.2 C 87 % 7.15 C
1935 14-03-2019 17:10:00 9.2 C 87 % 7.15 C
1936 14-03-2019 17:15:00 9.2 C 87 % 7.15 C
1937 14-03-2019 17:20:00 9.4 C 87 % 7.35 C
1938 14-03-2019 17:25:00 9.8 C 85 % 7.4 C
1939 14-03-2019 17:30:00 10.2 C 84 % 7.62 C
1940 14-03-2019 17:35:00 10.4 C 83 % 7.64 C
1941 14-03-2019 17:40:00 10.6 C 82 % 7.66 C
1942 14-03-2019 17:45:00 10.5 C 82 % 7.56 C
1943 14-03-2019 17:50:00 10.3 C 82 % 7.37 C
1944 14-03-2019 17:55:00 10.3 C 83 % 7.54 C
1945 14-03-2019 18:00:00 10.2 C 83 % 7.45 C
1946 14-03-2019 18:05:00 10.1 C 84 % 7.52 C
1947 14-03-2019 18:10:00 10 C 84 % 7.43 C
1948 14-03-2019 18:15:00 9.9 C 85 % 7.5 C
1949 14-03-2019 18:20:00 9.8 C 84 % 7.23 C
1950 14-03-2019 18:25:00 9.7 C 84 % 7.13 C
Sensor: Nr:Datum:Temp:Feuchte:Taupunkt:
Aussen-T/F 1951 14-03-2019 18:30:00 9.7 C 83 % 6.96 C
1952 14-03-2019 18:35:00 9.8 C 83 % 7.05 C
1953 14-03-2019 18:40:00 9.8 C 81 % 6.7 C
1954 14-03-2019 18:45:00 9.8 C 81 % 6.7 C
1955 14-03-2019 18:50:00 9.8 C 80 % 6.52 C
1956 14-03-2019 18:55:00 9.9 C 79 % 6.43 C
1957 14-03-2019 19:00:00 9.9 C 80 % 6.62 C
1958 14-03-2019 19:05:00 9.8 C 76 % 5.78 C
1959 14-03-2019 19:10:00 9.9 C 76 % 5.87 C
1960 14-03-2019 19:15:00 9.9 C 75 % 5.68 C
1961 14-03-2019 19:20:00 9.9 C 73 % 5.29 C
1962 14-03-2019 19:25:00 9.9 C 73 % 5.29 C
1963 14-03-2019 19:30:00 9.9 C 74 % 5.49 C
1964 14-03-2019 19:35:00 9.8 C 77 % 5.97 C
1965 14-03-2019 19:40:00 9.3 C 79 % 5.85 C
1966 14-03-2019 19:45:00 8.9 C 81 % 5.82 C
1967 14-03-2019 19:50:00 8.7 C 82 % 5.8 C
1968 14-03-2019 19:55:00 8.6 C 83 % 5.88 C
1969 14-03-2019 20:00:00 8.3 C 84 % 5.76 C
1970 14-03-2019 20:05:00 8.3 C 85 % 5.93 C
1971 14-03-2019 20:10:00 8.2 C 85 % 5.83 C
1972 14-03-2019 20:15:00 8.1 C 86 % 5.9 C
1973 14-03-2019 20:20:00 7.9 C 85 % 5.54 C
1974 14-03-2019 20:25:00 7.9 C 85 % 5.54 C
1975 14-03-2019 20:30:00 7.9 C 86 % 5.71 C
Sensor: Nr:Datum:Temp:Feuchte:Taupunkt:
Aussen-T/F 1976 14-03-2019 20:35:00 7.8 C 86 % 5.61 C
1977 14-03-2019 20:40:00 7.8 C 85 % 5.44 C
1978 14-03-2019 20:45:00 7.8 C 85 % 5.44 C
1979 14-03-2019 20:50:00 7.8 C 85 % 5.44 C
1980 14-03-2019 20:55:00 7.8 C 84 % 5.27 C
1981 14-03-2019 21:00:00 7.9 C 84 % 5.37 C
1982 14-03-2019 21:05:00 7.9 C 84 % 5.37 C
1983 14-03-2019 21:10:00 8 C 84 % 5.47 C
1984 14-03-2019 21:15:00 8.1 C 83 % 5.39 C
1985 14-03-2019 21:20:00 8.2 C 83 % 5.49 C
1986 14-03-2019 21:25:00 8.3 C 83 % 5.59 C
1987 14-03-2019 21:30:00 8.3 C 82 % 5.41 C
1988 14-03-2019 21:35:00 8.4 C 82 % 5.51 C
1989 14-03-2019 21:40:00 8.4 C 82 % 5.51 C
1990 14-03-2019 21:45:00 8.4 C 83 % 5.69 C
1991 14-03-2019 21:50:00 8.3 C 83 % 5.59 C
1992 14-03-2019 21:55:00 8.2 C 83 % 5.49 C
1993 14-03-2019 22:00:00 8.2 C 82 % 5.32 C
1994 14-03-2019 22:05:00 8.3 C 82 % 5.41 C
1995 14-03-2019 22:10:00 8.4 C 81 % 5.33 C
1996 14-03-2019 22:15:00 8.4 C 80 % 5.16 C
1997 14-03-2019 22:20:00 8.5 C 79 % 5.07 C
1998 14-03-2019 22:25:00 8.6 C 79 % 5.17 C
1999 14-03-2019 22:30:00 8.6 C 79 % 5.17 C
2000 14-03-2019 22:35:00 8.4 C 79 % 4.98 C
Sensor: Nr:Datum:Temp:Feuchte:Taupunkt:
Aussen-T/F 2001 14-03-2019 22:40:00 8.4 C 79 % 4.98 C
2002 14-03-2019 22:45:00 8.3 C 79 % 4.88 C
2003 14-03-2019 22:50:00 8.3 C 79 % 4.88 C
2004 14-03-2019 22:55:00 8.2 C 79 % 4.78 C
2005 14-03-2019 23:00:00 8.2 C 79 % 4.78 C
2006 14-03-2019 23:05:00 8.2 C 79 % 4.78 C
2007 14-03-2019 23:10:00 8.2 C 79 % 4.78 C
2008 14-03-2019 23:15:00 8.2 C 79 % 4.78 C
2009 14-03-2019 23:20:00 8.2 C 79 % 4.78 C
2010 14-03-2019 23:25:00 8.2 C 79 % 4.78 C
2011 14-03-2019 23:30:00 8.2 C 79 % 4.78 C
2012 14-03-2019 23:35:00 8.2 C 79 % 4.78 C
2013 14-03-2019 23:40:00 8.1 C 79 % 4.68 C
2014 14-03-2019 23:45:00 8 C 80 % 4.77 C
2015 14-03-2019 23:50:00 7.9 C 80 % 4.67 C
2016 14-03-2019 23:55:00 7.8 C 80 % 4.57 C
2017 15-03-2019 00:00:00 7.8 C 80 % 4.57 C
2018 15-03-2019 00:05:00 7.7 C 81 % 4.65 C
2019 15-03-2019 00:10:00 7.6 C 82 % 4.73 C
2020 15-03-2019 00:15:00 7.4 C 82 % 4.53 C
2021 15-03-2019 00:20:00 7.2 C 82 % 4.34 C
2022 15-03-2019 00:25:00 7.1 C 83 % 4.41 C
2023 15-03-2019 00:30:00 6.9 C 84 % 4.39 C
2024 15-03-2019 00:35:00 6.9 C 84 % 4.39 C
2025 15-03-2019 00:40:00 6.8 C 84 % 4.29 C
Sensor: Nr:Datum:Temp:Feuchte:Taupunkt:
Aussen-T/F 2026 15-03-2019 00:45:00 6.7 C 84 % 4.19 C
2027 15-03-2019 00:50:00 6.7 C 85 % 4.36 C
2028 15-03-2019 00:55:00 6.6 C 85 % 4.26 C
2029 15-03-2019 01:00:00 6.4 C 85 % 4.07 C
2030 15-03-2019 01:05:00 6.3 C 85 % 3.97 C
2031 15-03-2019 01:10:00 6.3 C 86 % 4.14 C
2032 15-03-2019 01:15:00 6.3 C 86 % 4.14 C
2033 15-03-2019 01:20:00 6.3 C 86 % 4.14 C
2034 15-03-2019 01:25:00 6.3 C 86 % 4.14 C
2035 15-03-2019 01:30:00 6.3 C 86 % 4.14 C
2036 15-03-2019 01:35:00 6.4 C 86 % 4.23 C
2037 15-03-2019 01:40:00 6.4 C 86 % 4.23 C
2038 15-03-2019 01:45:00 6.4 C 86 % 4.23 C
2039 15-03-2019 01:50:00 6.6 C 86 % 4.43 C
2040 15-03-2019 01:55:00 6.6 C 86 % 4.43 C
2041 15-03-2019 02:00:00 6.6 C 86 % 4.43 C
2042 15-03-2019 02:05:00 6.7 C 86 % 4.53 C
2043 15-03-2019 02:10:00 6.7 C 86 % 4.53 C
2044 15-03-2019 02:15:00 6.8 C 86 % 4.63 C
2045 15-03-2019 02:20:00 6.8 C 86 % 4.63 C
2046 15-03-2019 02:25:00 6.9 C 86 % 4.72 C
2047 15-03-2019 02:30:00 6.9 C 86 % 4.72 C
2048 15-03-2019 02:35:00 7 C 85 % 4.66 C
2049 15-03-2019 02:40:00 7 C 85 % 4.66 C
2050 15-03-2019 02:45:00 7.1 C 85 % 4.75 C
Sensor: Nr:Datum:Temp:Feuchte:Taupunkt:
Aussen-T/F 2051 15-03-2019 02:50:00 7 C 85 % 4.66 C
2052 15-03-2019 02:55:00 6.9 C 85 % 4.56 C
2053 15-03-2019 03:00:00 6.8 C 85 % 4.46 C
2054 15-03-2019 03:05:00 6.7 C 86 % 4.53 C
2055 15-03-2019 03:10:00 6.5 C 86 % 4.33 C
2056 15-03-2019 03:15:00 6.4 C 87 % 4.4 C
2057 15-03-2019 03:20:00 6.4 C 87 % 4.4 C
2058 15-03-2019 03:25:00 6.4 C 87 % 4.4 C
2059 15-03-2019 03:30:00 6.4 C 87 % 4.4 C
2060 15-03-2019 03:35:00 6.3 C 87 % 4.3 C
2061 15-03-2019 03:40:00 6.3 C 88 % 4.46 C
2062 15-03-2019 03:45:00 6.3 C 88 % 4.46 C
2063 15-03-2019 03:50:00 6.2 C 88 % 4.36 C
2064 15-03-2019 03:55:00 6.2 C 88 % 4.36 C
2065 15-03-2019 04:00:00 6.1 C 88 % 4.27 C
2066 15-03-2019 04:05:00 6 C 88 % 4.17 C
2067 15-03-2019 04:10:00 5.9 C 89 % 4.23 C
2068 15-03-2019 04:15:00 5.9 C 89 % 4.23 C
2069 15-03-2019 04:20:00 5.9 C 89 % 4.23 C
2070 15-03-2019 04:25:00 5.8 C 89 % 4.13 C
2071 15-03-2019 04:30:00 5.9 C 90 % 4.39 C
2072 15-03-2019 04:35:00 6 C 90 % 4.49 C
2073 15-03-2019 04:40:00 6.1 C 90 % 4.59 C
2074 15-03-2019 04:45:00 6.2 C 90 % 4.69 C
2075 15-03-2019 04:50:00 6.3 C 90 % 4.78 C
Sensor: Nr:Datum:Temp:Feuchte:Taupunkt:
Aussen-T/F 2076 15-03-2019 04:55:00 6.4 C 90 % 4.88 C
2077 15-03-2019 05:00:00 6.6 C 89 % 4.92 C
2078 15-03-2019 05:05:00 6.7 C 89 % 5.02 C
2079 15-03-2019 05:10:00 6.8 C 88 % 4.96 C
2080 15-03-2019 05:15:00 6.9 C 88 % 5.05 C
2081 15-03-2019 05:20:00 7 C 88 % 5.15 C
2082 15-03-2019 05:25:00 7.1 C 87 % 5.09 C
2083 15-03-2019 05:30:00 7.1 C 87 % 5.09 C
2084 15-03-2019 05:35:00 7.1 C 87 % 5.09 C
2085 15-03-2019 05:40:00 7.1 C 87 % 5.09 C
2086 15-03-2019 05:45:00 7.2 C 87 % 5.19 C
2087 15-03-2019 05:50:00 7.2 C 87 % 5.19 C
2088 15-03-2019 05:55:00 7.3 C 87 % 5.28 C
2089 15-03-2019 06:00:00 7.3 C 88 % 5.45 C
2090 15-03-2019 06:05:00 7.3 C 88 % 5.45 C
2091 15-03-2019 06:10:00 7.3 C 89 % 5.61 C
2092 15-03-2019 06:15:00 7.3 C 89 % 5.61 C
2093 15-03-2019 06:20:00 7.3 C 90 % 5.77 C
2094 15-03-2019 06:25:00 7.3 C 90 % 5.77 C
2095 15-03-2019 06:30:00 7.2 C 90 % 5.67 C
2096 15-03-2019 06:35:00 7.2 C 91 % 5.83 C
2097 15-03-2019 06:40:00 7.2 C 91 % 5.83 C
2098 15-03-2019 06:45:00 7.1 C 91 % 5.73 C
2099 15-03-2019 06:50:00 7.1 C 91 % 5.73 C
2100 15-03-2019 06:55:00 7.1 C 92 % 5.89 C
Sensor: Nr:Datum:Temp:Feuchte:Taupunkt:
Aussen-T/F 2101 15-03-2019 07:00:00 7 C 92 % 5.79 C
2102 15-03-2019 07:05:00 7 C 92 % 5.79 C
2103 15-03-2019 07:10:00 7.1 C 93 % 6.05 C
2104 15-03-2019 07:15:00 7.1 C 93 % 6.05 C
2105 15-03-2019 07:20:00 7.1 C 93 % 6.05 C
2106 15-03-2019 07:25:00 7.1 C 93 % 6.05 C
2107 15-03-2019 07:30:00 7.1 C 93 % 6.05 C
2108 15-03-2019 07:35:00 7.1 C 93 % 6.05 C
2109 15-03-2019 07:40:00 7.2 C 93 % 6.15 C
2110 15-03-2019 07:45:00 7.2 C 93 % 6.15 C
2111 15-03-2019 07:50:00 7.2 C 93 % 6.15 C
2112 15-03-2019 07:55:00 7.3 C 93 % 6.25 C
2113 15-03-2019 08:00:00 7.3 C 94 % 6.4 C
2114 15-03-2019 08:05:00 7.3 C 94 % 6.4 C
2115 15-03-2019 08:10:00 7.3 C 94 % 6.4 C
2116 15-03-2019 08:15:00 7.3 C 94 % 6.4 C
2117 15-03-2019 08:20:00 7.4 C 94 % 6.5 C
2118 15-03-2019 08:25:00 7.4 C 94 % 6.5 C
2119 15-03-2019 08:30:00 7.5 C 94 % 6.6 C
2120 15-03-2019 08:35:00 7.6 C 94 % 6.7 C
2121 15-03-2019 08:40:00 7.6 C 94 % 6.7 C
2122 15-03-2019 08:45:00 7.7 C 94 % 6.8 C
2123 15-03-2019 08:50:00 7.7 C 94 % 6.8 C
2124 15-03-2019 08:55:00 7.8 C 94 % 6.9 C
2125 15-03-2019 09:00:00 7.8 C 94 % 6.9 C
Sensor: Nr:Datum:Temp:Feuchte:Taupunkt:
Aussen-T/F 2126 15-03-2019 09:05:00 7.8 C 94 % 6.9 C
2127 15-03-2019 09:10:00 7.9 C 94 % 7 C
2128 15-03-2019 09:15:00 7.9 C 94 % 7 C
2129 15-03-2019 09:20:00 8 C 94 % 7.09 C
2130 15-03-2019 09:25:00 8.1 C 94 % 7.19 C
2131 15-03-2019 09:30:00 8.2 C 94 % 7.29 C
2132 15-03-2019 09:35:00 8.3 C 94 % 7.39 C
2133 15-03-2019 09:40:00 8.4 C 94 % 7.49 C
2134 15-03-2019 09:45:00 8.5 C 94 % 7.59 C
2135 15-03-2019 09:50:00 8.7 C 94 % 7.79 C
2136 15-03-2019 09:55:00 8.8 C 94 % 7.89 C
2137 15-03-2019 10:00:00 8.8 C 94 % 7.89 C
2138 15-03-2019 10:05:00 8.9 C 94 % 7.99 C
2139 15-03-2019 10:10:00 9 C 94 % 8.09 C
2140 15-03-2019 10:15:00 9.1 C 94 % 8.19 C
2141 15-03-2019 10:20:00 9.2 C 94 % 8.29 C
2142 15-03-2019 10:25:00 9.3 C 94 % 8.39 C
2143 15-03-2019 10:30:00 9.5 C 94 % 8.58 C
2144 15-03-2019 10:35:00 9.6 C 94 % 8.68 C
2145 15-03-2019 10:40:00 9.7 C 94 % 8.78 C
2146 15-03-2019 10:45:00 9.7 C 94 % 8.78 C
2147 15-03-2019 10:50:00 9.8 C 94 % 8.88 C
2148 15-03-2019 10:55:00 9.9 C 94 % 8.98 C
2149 15-03-2019 11:00:00 10.1 C 94 % 9.18 C
2150 15-03-2019 11:05:00 10.2 C 93 % 9.12 C
Sensor: Nr:Datum:Temp:Feuchte:Taupunkt:
Aussen-T/F 2151 15-03-2019 11:10:00 10.4 C 93 % 9.32 C
2152 15-03-2019 11:15:00 10.7 C 93 % 9.62 C
2153 15-03-2019 11:20:00 10.8 C 92 % 9.55 C
2154 15-03-2019 11:25:00 10.9 C 92 % 9.65 C
2155 15-03-2019 11:30:00 11.1 C 91 % 9.69 C
2156 15-03-2019 11:35:00 11.3 C 91 % 9.89 C
2157 15-03-2019 11:40:00 11.6 C 91 % 10.18 C
2158 15-03-2019 11:45:00 11.7 C 90 % 10.12 C
2159 15-03-2019 11:50:00 11.8 C 89 % 10.05 C
2160 15-03-2019 11:55:00 12 C 90 % 10.41 C
2161 15-03-2019 12:00:00 12.1 C 89 % 10.34 C
2162 15-03-2019 12:05:00 12.2 C 89 % 10.44 C
2163 15-03-2019 12:10:00 12.2 C 89 % 10.44 C
2164 15-03-2019 12:15:00 12.2 C 88 % 10.27 C
2165 15-03-2019 12:20:00 12.2 C 89 % 10.44 C
2166 15-03-2019 12:25:00 12.2 C 89 % 10.44 C
2167 15-03-2019 12:30:00 12.3 C 89 % 10.54 C
2168 15-03-2019 12:35:00 12.4 C 89 % 10.64 C
2169 15-03-2019 12:40:00 12.6 C 89 % 10.84 C
2170 15-03-2019 12:45:00 12.7 C 88 % 10.77 C
2171 15-03-2019 12:50:00 12.7 C 87 % 10.59 C
2172 15-03-2019 12:55:00 12.8 C 87 % 10.69 C
2173 15-03-2019 13:00:00 12.8 C 87 % 10.69 C
2174 15-03-2019 13:05:00 12.8 C 87 % 10.69 C
2175 15-03-2019 13:10:00 12.9 C 86 % 10.62 C
Sensor: Nr:Datum:Temp:Feuchte:Taupunkt:
Aussen-T/F 2176 15-03-2019 13:15:00 12.9 C 85 % 10.44 C
2177 15-03-2019 13:20:00 13.1 C 86 % 10.81 C
2178 15-03-2019 13:25:00 13.1 C 85 % 10.64 C
2179 15-03-2019 13:30:00 13.1 C 84 % 10.46 C
2180 15-03-2019 13:35:00 13.2 C 84 % 10.56 C
2181 15-03-2019 13:40:00 13.3 C 84 % 10.66 C
2182 15-03-2019 13:45:00 13.3 C 83 % 10.48 C
2183 15-03-2019 13:50:00 13.4 C 82 % 10.39 C
2184 15-03-2019 13:55:00 13.5 C 82 % 10.49 C
2185 15-03-2019 14:00:00 13.6 C 81 % 10.4 C
2186 15-03-2019 14:05:00 13.7 C 81 % 10.5 C
2187 15-03-2019 14:10:00 13.8 C 81 % 10.6 C
2188 15-03-2019 14:15:00 13.8 C 80 % 10.41 C
2189 15-03-2019 14:20:00 13.8 C 81 % 10.6 C
2190 15-03-2019 14:25:00 13.7 C 80 % 10.32 C
2191 15-03-2019 14:30:00 13.7 C 80 % 10.32 C
2192 15-03-2019 14:35:00 13.7 C 81 % 10.5 C
2193 15-03-2019 14:40:00 13.6 C 81 % 10.4 C
2194 15-03-2019 14:45:00 13.6 C 81 % 10.4 C
2195 15-03-2019 14:50:00 13.5 C 82 % 10.49 C
2196 15-03-2019 14:55:00 13.5 C 82 % 10.49 C
2197 15-03-2019 15:00:00 13.6 C 83 % 10.77 C
2198 15-03-2019 15:05:00 13.6 C 83 % 10.77 C
2199 15-03-2019 15:10:00 13.7 C 83 % 10.87 C
2200 15-03-2019 15:15:00 13.7 C 83 % 10.87 C
Sensor: Nr:Datum:Temp:Feuchte:Taupunkt:
Aussen-T/F 2201 15-03-2019 15:20:00 13.7 C 83 % 10.87 C
2202 15-03-2019 15:25:00 13.6 C 82 % 10.59 C
2203 15-03-2019 15:30:00 13.5 C 82 % 10.49 C
2204 15-03-2019 15:35:00 13.4 C 82 % 10.39 C
2205 15-03-2019 15:40:00 13.4 C 83 % 10.57 C
2206 15-03-2019 15:45:00 13.4 C 83 % 10.57 C
2207 15-03-2019 15:50:00 13.3 C 83 % 10.48 C
2208 15-03-2019 15:55:00 13.3 C 83 % 10.48 C
2209 15-03-2019 16:00:00 13.3 C 83 % 10.48 C
2210 15-03-2019 16:05:00 13.4 C 82 % 10.39 C
2211 15-03-2019 16:10:00 13.4 C 82 % 10.39 C
2212 15-03-2019 16:15:00 13.4 C 82 % 10.39 C
2213 15-03-2019 16:20:00 13.4 C 82 % 10.39 C
2214 15-03-2019 16:25:00 13.4 C 82 % 10.39 C
2215 15-03-2019 16:30:00 13.4 C 82 % 10.39 C
2216 15-03-2019 16:35:00 13.4 C 81 % 10.21 C
2217 15-03-2019 16:40:00 13.4 C 82 % 10.39 C
2218 15-03-2019 16:45:00 13.4 C 82 % 10.39 C
2219 15-03-2019 16:50:00 13.4 C 82 % 10.39 C
2220 15-03-2019 16:55:00 13.3 C 82 % 10.3 C
2221 15-03-2019 17:00:00 13.3 C 82 % 10.3 C
2222 15-03-2019 17:05:00 13.2 C 81 % 10.01 C
2223 15-03-2019 17:10:00 13.2 C 82 % 10.2 C
2224 15-03-2019 17:15:00 13.2 C 82 % 10.2 C
2225 15-03-2019 17:20:00 13.2 C 82 % 10.2 C
Sensor: Nr:Datum:Temp:Feuchte:Taupunkt:
Aussen-T/F 2226 15-03-2019 17:25:00 13.1 C 82 % 10.1 C
2227 15-03-2019 17:30:00 13.1 C 83 % 10.28 C
2228 15-03-2019 17:35:00 12.9 C 83 % 10.09 C
2229 15-03-2019 17:40:00 12.9 C 84 % 10.26 C
2230 15-03-2019 17:45:00 12.8 C 84 % 10.17 C
2231 15-03-2019 17:50:00 12.8 C 84 % 10.17 C
2232 15-03-2019 17:55:00 12.7 C 84 % 10.07 C
2233 15-03-2019 18:00:00 12.7 C 84 % 10.07 C
2234 15-03-2019 18:05:00 12.7 C 85 % 10.25 C
2235 15-03-2019 18:10:00 12.7 C 85 % 10.25 C
2236 15-03-2019 18:15:00 12.7 C 85 % 10.25 C
2237 15-03-2019 18:20:00 12.7 C 85 % 10.25 C
2238 15-03-2019 18:25:00 12.7 C 84 % 10.07 C
2239 15-03-2019 18:30:00 12.7 C 84 % 10.07 C
2240 15-03-2019 18:35:00 12.7 C 84 % 10.07 C
2241 15-03-2019 18:40:00 12.7 C 84 % 10.07 C
2242 15-03-2019 18:45:00 12.7 C 84 % 10.07 C
2243 15-03-2019 18:50:00 12.7 C 84 % 10.07 C
2244 15-03-2019 18:55:00 12.8 C 83 % 9.99 C
2245 15-03-2019 19:00:00 12.8 C 83 % 9.99 C
2246 15-03-2019 19:05:00 12.8 C 83 % 9.99 C
2247 15-03-2019 19:10:00 12.8 C 84 % 10.17 C
2248 15-03-2019 19:15:00 12.7 C 84 % 10.07 C
2249 15-03-2019 19:20:00 12.7 C 84 % 10.07 C
2250 15-03-2019 19:25:00 12.6 C 85 % 10.15 C
Sensor: Nr:Datum:Temp:Feuchte:Taupunkt:
Aussen-T/F 2251 15-03-2019 19:30:00 12.6 C 85 % 10.15 C
2252 15-03-2019 19:35:00 12.6 C 85 % 10.15 C
2253 15-03-2019 19:40:00 12.6 C 85 % 10.15 C
2254 15-03-2019 19:45:00 12.6 C 85 % 10.15 C
2255 15-03-2019 19:50:00 12.5 C 86 % 10.22 C
2256 15-03-2019 19:55:00 12.4 C 86 % 10.13 C
2257 15-03-2019 20:00:00 12.4 C 86 % 10.13 C
2258 15-03-2019 20:05:00 12.4 C 86 % 10.13 C
2259 15-03-2019 20:10:00 12.4 C 87 % 10.3 C
2260 15-03-2019 20:15:00 12.3 C 88 % 10.37 C
2261 15-03-2019 20:20:00 12.2 C 88 % 10.27 C
2262 15-03-2019 20:25:00 12.1 C 88 % 10.17 C
2263 15-03-2019 20:30:00 12 C 89 % 10.25 C
2264 15-03-2019 20:35:00 11.9 C 89 % 10.15 C
2265 15-03-2019 20:40:00 11.9 C 89 % 10.15 C
2266 15-03-2019 20:45:00 11.9 C 89 % 10.15 C
2267 15-03-2019 20:50:00 11.9 C 89 % 10.15 C
2268 15-03-2019 20:55:00 11.9 C 89 % 10.15 C
2269 15-03-2019 21:00:00 12 C 88 % 10.08 C
2270 15-03-2019 21:05:00 12.1 C 88 % 10.17 C
2271 15-03-2019 21:10:00 12.2 C 87 % 10.1 C
2272 15-03-2019 21:15:00 12.2 C 87 % 10.1 C
2273 15-03-2019 21:20:00 12.2 C 87 % 10.1 C
2274 15-03-2019 21:25:00 12.2 C 87 % 10.1 C
2275 15-03-2019 21:30:00 12.3 C 86 % 10.03 C
Sensor: Nr:Datum:Temp:Feuchte:Taupunkt:
Aussen-T/F 2276 15-03-2019 21:35:00 12.3 C 86 % 10.03 C
2277 15-03-2019 21:40:00 12.3 C 86 % 10.03 C
2278 15-03-2019 21:45:00 12.4 C 86 % 10.13 C
2279 15-03-2019 21:50:00 12.4 C 86 % 10.13 C
2280 15-03-2019 21:55:00 12.4 C 86 % 10.13 C
2281 15-03-2019 22:00:00 12.4 C 86 % 10.13 C
2282 15-03-2019 22:05:00 12.4 C 85 % 9.95 C
2283 15-03-2019 22:10:00 12.4 C 86 % 10.13 C
2284 15-03-2019 22:15:00 12.4 C 86 % 10.13 C
2285 15-03-2019 22:20:00 12.3 C 86 % 10.03 C
2286 15-03-2019 22:25:00 12.4 C 85 % 9.95 C
2287 15-03-2019 22:30:00 12.4 C 85 % 9.95 C
2288 15-03-2019 22:35:00 12.3 C 85 % 9.85 C
2289 15-03-2019 22:40:00 12.3 C 85 % 9.85 C
2290 15-03-2019 22:45:00 12.4 C 84 % 9.78 C
2291 15-03-2019 22:50:00 12.6 C 84 % 9.97 C
2292 15-03-2019 22:55:00 12.5 C 85 % 10.05 C
2293 15-03-2019 23:00:00 12.3 C 85 % 9.85 C
2294 15-03-2019 23:05:00 12.1 C 86 % 9.83 C
2295 15-03-2019 23:10:00 11.9 C 87 % 9.81 C
2296 15-03-2019 23:15:00 11.8 C 87 % 9.71 C
2297 15-03-2019 23:20:00 11.9 C 87 % 9.81 C
2298 15-03-2019 23:25:00 11.9 C 88 % 9.98 C
2299 15-03-2019 23:30:00 11.8 C 88 % 9.88 C
2300 15-03-2019 23:35:00 11.8 C 89 % 10.05 C
Sensor: Nr:Datum:Temp:Feuchte:Taupunkt:
Aussen-T/F 2301 15-03-2019 23:40:00 11.8 C 89 % 10.05 C
2302 15-03-2019 23:45:00 11.7 C 89 % 9.95 C
2303 15-03-2019 23:50:00 11.7 C 89 % 9.95 C
2304 15-03-2019 23:55:00 11.6 C 90 % 10.02 C
2305 16-03-2019 00:00:00 11.6 C 90 % 10.02 C
2306 16-03-2019 00:05:00 11.6 C 90 % 10.02 C
2307 16-03-2019 00:10:00 11.7 C 89 % 9.95 C
2308 16-03-2019 00:15:00 11.7 C 89 % 9.95 C
2309 16-03-2019 00:20:00 11.7 C 89 % 9.95 C
2310 16-03-2019 00:25:00 11.7 C 88 % 9.78 C
2311 16-03-2019 00:30:00 11.7 C 88 % 9.78 C
2312 16-03-2019 00:35:00 11.8 C 88 % 9.88 C
2313 16-03-2019 00:40:00 11.8 C 88 % 9.88 C
2314 16-03-2019 00:45:00 11.7 C 87 % 9.61 C
2315 16-03-2019 00:50:00 11.1 C 87 % 9.02 C
2316 16-03-2019 00:55:00 10.8 C 89 % 9.06 C
2317 16-03-2019 01:00:00 10.5 C 90 % 8.93 C
2318 16-03-2019 01:05:00 10.3 C 91 % 8.9 C
2319 16-03-2019 01:10:00 10.2 C 91 % 8.8 C
2320 16-03-2019 01:15:00 10.1 C 92 % 8.86 C
2321 16-03-2019 01:20:00 10.1 C 92 % 8.86 C
2322 16-03-2019 01:25:00 10 C 92 % 8.76 C
2323 16-03-2019 01:30:00 9.8 C 93 % 8.72 C
2324 16-03-2019 01:35:00 9.6 C 92 % 8.37 C
2325 16-03-2019 01:40:00 9.3 C 92 % 8.07 C
Sensor: Nr:Datum:Temp:Feuchte:Taupunkt:
Aussen-T/F 2326 16-03-2019 01:45:00 9.3 C 92 % 8.07 C
2327 16-03-2019 01:50:00 9.2 C 92 % 7.97 C
2328 16-03-2019 01:55:00 9.1 C 92 % 7.87 C
2329 16-03-2019 02:00:00 9.1 C 93 % 8.03 C
2330 16-03-2019 02:05:00 9.1 C 93 % 8.03 C
2331 16-03-2019 02:10:00 9.1 C 92 % 7.87 C
2332 16-03-2019 02:15:00 9.1 C 92 % 7.87 C
2333 16-03-2019 02:20:00 9 C 92 % 7.77 C
2334 16-03-2019 02:25:00 9 C 92 % 7.77 C
2335 16-03-2019 02:30:00 8.9 C 92 % 7.67 C
2336 16-03-2019 02:35:00 8.9 C 92 % 7.67 C
2337 16-03-2019 02:40:00 8.8 C 92 % 7.57 C
2338 16-03-2019 02:45:00 8.8 C 92 % 7.57 C
2339 16-03-2019 02:50:00 8.7 C 92 % 7.47 C
2340 16-03-2019 02:55:00 8.7 C 92 % 7.47 C
2341 16-03-2019 03:00:00 8.7 C 93 % 7.63 C
2342 16-03-2019 03:05:00 8.6 C 93 % 7.53 C
2343 16-03-2019 03:10:00 8.5 C 93 % 7.43 C
2344 16-03-2019 03:15:00 8.5 C 93 % 7.43 C
2345 16-03-2019 03:20:00 8.4 C 94 % 7.49 C
2346 16-03-2019 03:25:00 8.4 C 94 % 7.49 C
2347 16-03-2019 03:30:00 8.4 C 94 % 7.49 C
2348 16-03-2019 03:35:00 8.3 C 94 % 7.39 C
2349 16-03-2019 03:40:00 8.3 C 94 % 7.39 C
2350 16-03-2019 03:45:00 8.3 C 94 % 7.39 C
Sensor: Nr:Datum:Temp:Feuchte:Taupunkt:
Aussen-T/F 2351 16-03-2019 03:50:00 8.3 C 94 % 7.39 C
2352 16-03-2019 03:55:00 8.3 C 95 % 7.55 C
2353 16-03-2019 04:00:00 8.3 C 95 % 7.55 C
2354 16-03-2019 04:05:00 8.3 C 95 % 7.55 C
2355 16-03-2019 04:10:00 8.3 C 95 % 7.55 C
2356 16-03-2019 04:15:00 8.3 C 95 % 7.55 C
2357 16-03-2019 04:20:00 8.3 C 95 % 7.55 C
2358 16-03-2019 04:25:00 8.3 C 95 % 7.55 C
2359 16-03-2019 04:30:00 8.3 C 95 % 7.55 C
2360 16-03-2019 04:35:00 8.3 C 95 % 7.55 C
2361 16-03-2019 04:40:00 8.3 C 95 % 7.55 C
2362 16-03-2019 04:45:00 8.3 C 95 % 7.55 C
2363 16-03-2019 04:50:00 8.3 C 95 % 7.55 C
2364 16-03-2019 04:55:00 8.3 C 95 % 7.55 C
2365 16-03-2019 05:00:00 8.3 C 95 % 7.55 C
2366 16-03-2019 05:05:00 8.3 C 95 % 7.55 C
2367 16-03-2019 05:10:00 8.3 C 95 % 7.55 C
2368 16-03-2019 05:15:00 8.3 C 95 % 7.55 C
2369 16-03-2019 05:20:00 8.3 C 95 % 7.55 C
2370 16-03-2019 05:25:00 8.3 C 95 % 7.55 C
2371 16-03-2019 05:30:00 8.3 C 95 % 7.55 C
2372 16-03-2019 05:35:00 8.3 C 95 % 7.55 C
2373 16-03-2019 05:40:00 8.3 C 95 % 7.55 C
2374 16-03-2019 05:45:00 8.3 C 95 % 7.55 C
2375 16-03-2019 05:50:00 8.3 C 95 % 7.55 C
Sensor: Nr:Datum:Temp:Feuchte:Taupunkt:
Aussen-T/F 2376 16-03-2019 05:55:00 8.3 C 96 % 7.7 C
2377 16-03-2019 06:00:00 8.3 C 96 % 7.7 C
2378 16-03-2019 06:05:00 8.3 C 96 % 7.7 C
2379 16-03-2019 06:10:00 8.3 C 96 % 7.7 C
2380 16-03-2019 06:15:00 8.3 C 96 % 7.7 C
2381 16-03-2019 06:20:00 8.3 C 96 % 7.7 C
2382 16-03-2019 06:25:00 8.4 C 96 % 7.8 C
2383 16-03-2019 06:30:00 8.7 C 96 % 8.1 C
2384 16-03-2019 06:35:00 8.8 C 96 % 8.2 C
2385 16-03-2019 06:40:00 9.1 C 97 % 8.65 C
2386 16-03-2019 06:45:00 9.3 C 97 % 8.85 C
2387 16-03-2019 06:50:00 9.4 C 97 % 8.95 C
2388 16-03-2019 06:55:00 9.6 C 97 % 9.15 C
2389 16-03-2019 07:00:00 9.7 C 96 % 9.09 C
2390 16-03-2019 07:05:00 9.7 C 96 % 9.09 C
2391 16-03-2019 07:10:00 9.7 C 96 % 9.09 C
2392 16-03-2019 07:15:00 9.8 C 96 % 9.19 C
2393 16-03-2019 07:20:00 9.8 C 96 % 9.19 C
2394 16-03-2019 07:25:00 9.8 C 95 % 9.04 C
2395 16-03-2019 07:30:00 9.9 C 95 % 9.14 C
2396 16-03-2019 07:35:00 9.9 C 95 % 9.14 C
2397 16-03-2019 07:40:00 10 C 94 % 9.08 C
2398 16-03-2019 07:45:00 10.1 C 94 % 9.18 C
2399 16-03-2019 07:50:00 10.1 C 94 % 9.18 C
2400 16-03-2019 07:55:00 10.1 C 94 % 9.18 C
Sensor: Nr:Datum:Temp:Feuchte:Taupunkt:
Aussen-T/F 2401 16-03-2019 08:00:00 10.2 C 94 % 9.28 C
2402 16-03-2019 08:05:00 10.2 C 94 % 9.28 C
2403 16-03-2019 08:10:00 10.2 C 93 % 9.12 C
2404 16-03-2019 08:15:00 10.3 C 93 % 9.22 C
2405 16-03-2019 08:20:00 10.3 C 93 % 9.22 C
2406 16-03-2019 08:25:00 10.3 C 93 % 9.22 C
2407 16-03-2019 08:30:00 10.4 C 93 % 9.32 C
2408 16-03-2019 08:35:00 10.4 C 93 % 9.32 C
2409 16-03-2019 08:40:00 10.5 C 93 % 9.42 C
2410 16-03-2019 08:45:00 10.5 C 93 % 9.42 C
2411 16-03-2019 08:50:00 10.6 C 93 % 9.52 C
2412 16-03-2019 08:55:00 10.6 C 93 % 9.52 C
2413 16-03-2019 09:00:00 10.7 C 93 % 9.62 C
2414 16-03-2019 09:05:00 10.7 C 92 % 9.45 C
2415 16-03-2019 09:10:00 10.7 C 92 % 9.45 C
2416 16-03-2019 09:15:00 10.7 C 92 % 9.45 C
2417 16-03-2019 09:20:00 10.7 C 92 % 9.45 C
2418 16-03-2019 09:25:00 10.7 C 92 % 9.45 C
2419 16-03-2019 09:30:00 10.7 C 92 % 9.45 C
2420 16-03-2019 09:35:00 10.7 C 92 % 9.45 C
2421 16-03-2019 09:40:00 10.7 C 92 % 9.45 C
2422 16-03-2019 09:45:00 10.7 C 91 % 9.29 C
2423 16-03-2019 09:50:00 10.8 C 91 % 9.39 C
2424 16-03-2019 09:55:00 10.8 C 90 % 9.23 C
2425 16-03-2019 10:00:00 10.8 C 90 % 9.23 C
Sensor: Nr:Datum:Temp:Feuchte:Taupunkt:
Aussen-T/F 2426 16-03-2019 10:05:00 10.9 C 90 % 9.33 C
2427 16-03-2019 10:10:00 10.9 C 90 % 9.33 C
2428 16-03-2019 10:15:00 10.9 C 90 % 9.33 C
2429 16-03-2019 10:20:00 10.9 C 90 % 9.33 C
2430 16-03-2019 10:25:00 10.8 C 90 % 9.23 C
2431 16-03-2019 10:30:00 10.9 C 90 % 9.33 C
2432 16-03-2019 10:35:00 10.9 C 89 % 9.16 C
2433 16-03-2019 10:40:00 10.9 C 90 % 9.33 C
2434 16-03-2019 10:45:00 10.8 C 90 % 9.23 C
2435 16-03-2019 10:50:00 10.7 C 90 % 9.13 C
2436 16-03-2019 10:55:00 10.7 C 91 % 9.29 C
2437 16-03-2019 11:00:00 10.7 C 91 % 9.29 C
2438 16-03-2019 11:05:00 10.7 C 91 % 9.29 C
2439 16-03-2019 11:10:00 10.7 C 91 % 9.29 C
2440 16-03-2019 11:15:00 10.7 C 91 % 9.29 C
2441 16-03-2019 11:20:00 10.7 C 90 % 9.13 C
2442 16-03-2019 11:25:00 10.7 C 90 % 9.13 C
2443 16-03-2019 11:30:00 10.8 C 89 % 9.06 C
2444 16-03-2019 11:35:00 10.8 C 88 % 8.89 C
2445 16-03-2019 11:40:00 10.9 C 88 % 8.99 C
2446 16-03-2019 11:45:00 11 C 88 % 9.09 C
2447 16-03-2019 11:50:00 11.1 C 87 % 9.02 C
2448 16-03-2019 11:55:00 11.1 C 87 % 9.02 C
2449 16-03-2019 12:00:00 11.1 C 87 % 9.02 C
2450 16-03-2019 12:05:00 11.2 C 86 % 8.95 C
Sensor: Nr:Datum:Temp:Feuchte:Taupunkt:
Aussen-T/F 2451 16-03-2019 12:10:00 11.2 C 86 % 8.95 C
2452 16-03-2019 12:15:00 11.2 C 85 % 8.77 C
2453 16-03-2019 12:20:00 11.3 C 85 % 8.87 C
2454 16-03-2019 12:25:00 11.4 C 84 % 8.8 C
2455 16-03-2019 12:30:00 11.6 C 84 % 8.99 C
2456 16-03-2019 12:35:00 11.7 C 83 % 8.91 C
2457 16-03-2019 12:40:00 11.8 C 82 % 8.83 C
2458 16-03-2019 12:45:00 11.8 C 82 % 8.83 C
2459 16-03-2019 12:50:00 11.7 C 82 % 8.73 C
2460 16-03-2019 12:55:00 11.6 C 82 % 8.64 C
2461 16-03-2019 13:00:00 11.5 C 81 % 8.36 C
2462 16-03-2019 13:05:00 11.5 C 81 % 8.36 C
2463 16-03-2019 13:10:00 11.7 C 80 % 8.37 C
2464 16-03-2019 13:15:00 11.8 C 80 % 8.47 C
2465 16-03-2019 13:20:00 11.8 C 79 % 8.28 C
2466 16-03-2019 13:25:00 11.8 C 79 % 8.28 C
2467 16-03-2019 13:30:00 11.9 C 79 % 8.38 C
2468 16-03-2019 13:35:00 11.9 C 79 % 8.38 C
2469 16-03-2019 13:40:00 11.8 C 80 % 8.47 C
2470 16-03-2019 13:45:00 11.8 C 80 % 8.47 C
2471 16-03-2019 13:50:00 11.8 C 81 % 8.65 C
2472 16-03-2019 13:55:00 11.8 C 81 % 8.65 C
2473 16-03-2019 14:00:00 11.7 C 81 % 8.55 C
2474 16-03-2019 14:05:00 11.6 C 80 % 8.27 C
2475 16-03-2019 14:10:00 11.4 C 81 % 8.26 C
Sensor: Nr:Datum:Temp:Feuchte:Taupunkt:
Aussen-T/F 2476 16-03-2019 14:15:00 11.3 C 81 % 8.16 C
2477 16-03-2019 14:20:00 11.1 C 81 % 7.97 C
2478 16-03-2019 14:25:00 11.1 C 82 % 8.15 C
2479 16-03-2019 14:30:00 10.9 C 82 % 7.95 C
2480 16-03-2019 14:35:00 10.9 C 81 % 7.77 C
2481 16-03-2019 14:40:00 10.9 C 81 % 7.77 C
2482 16-03-2019 14:45:00 10.9 C 80 % 7.59 C
2483 16-03-2019 14:50:00 10.9 C 80 % 7.59 C
2484 16-03-2019 14:55:00 10.8 C 80 % 7.49 C
2485 16-03-2019 15:00:00 10.8 C 80 % 7.49 C
2486 16-03-2019 15:05:00 10.8 C 79 % 7.31 C
2487 16-03-2019 15:10:00 10.8 C 80 % 7.49 C
2488 16-03-2019 15:15:00 10.8 C 80 % 7.49 C
2489 16-03-2019 15:20:00 10.9 C 80 % 7.59 C
2490 16-03-2019 15:25:00 10.9 C 79 % 7.41 C
2491 16-03-2019 15:30:00 10.9 C 78 % 7.22 C
2492 16-03-2019 15:35:00 11 C 78 % 7.32 C
2493 16-03-2019 15:40:00 11.1 C 78 % 7.41 C
2494 16-03-2019 15:45:00 11.1 C 77 % 7.23 C
2495 16-03-2019 15:50:00 11.1 C 77 % 7.23 C
2496 16-03-2019 15:55:00 11.1 C 77 % 7.23 C
2497 16-03-2019 16:00:00 11.1 C 78 % 7.41 C
2498 16-03-2019 16:05:00 11 C 78 % 7.32 C
2499 16-03-2019 16:10:00 10.9 C 78 % 7.22 C
2500 16-03-2019 16:15:00 11 C 78 % 7.32 C
Sensor: Nr:Datum:Temp:Feuchte:Taupunkt:
Aussen-T/F 2501 16-03-2019 16:20:00 11.1 C 78 % 7.41 C
2502 16-03-2019 16:25:00 11.1 C 77 % 7.23 C
2503 16-03-2019 16:30:00 11 C 78 % 7.32 C
2504 16-03-2019 16:35:00 11 C 77 % 7.13 C
2505 16-03-2019 16:40:00 11 C 77 % 7.13 C
2506 16-03-2019 16:45:00 10.9 C 77 % 7.03 C
2507 16-03-2019 16:50:00 10.9 C 77 % 7.03 C
2508 16-03-2019 16:55:00 10.9 C 76 % 6.84 C
2509 16-03-2019 17:00:00 10.9 C 77 % 7.03 C
2510 16-03-2019 17:05:00 10.9 C 77 % 7.03 C
2511 16-03-2019 17:10:00 10.9 C 76 % 6.84 C
2512 16-03-2019 17:15:00 10.9 C 76 % 6.84 C
2513 16-03-2019 17:20:00 10.9 C 76 % 6.84 C
2514 16-03-2019 17:25:00 10.9 C 76 % 6.84 C
2515 16-03-2019 17:30:00 10.9 C 76 % 6.84 C
2516 16-03-2019 17:35:00 10.9 C 76 % 6.84 C
2517 16-03-2019 17:40:00 10.9 C 77 % 7.03 C
2518 16-03-2019 17:45:00 10.9 C 76 % 6.84 C
2519 16-03-2019 17:50:00 10.9 C 76 % 6.84 C
2520 16-03-2019 17:55:00 10.9 C 76 % 6.84 C
2521 16-03-2019 18:00:00 10.9 C 76 % 6.84 C
2522 16-03-2019 18:05:00 10.8 C 76 % 6.75 C
2523 16-03-2019 18:10:00 10.8 C 77 % 6.94 C
2524 16-03-2019 18:15:00 10.8 C 77 % 6.94 C
2525 16-03-2019 18:20:00 10.7 C 76 % 6.65 C
Sensor: Nr:Datum:Temp:Feuchte:Taupunkt:
Aussen-T/F 2526 16-03-2019 18:25:00 10.7 C 76 % 6.65 C
2527 16-03-2019 18:30:00 10.7 C 77 % 6.84 C
2528 16-03-2019 18:35:00 10.7 C 77 % 6.84 C
2529 16-03-2019 18:40:00 10.6 C 77 % 6.74 C
2530 16-03-2019 18:45:00 10.6 C 76 % 6.55 C
2531 16-03-2019 18:50:00 10.5 C 76 % 6.45 C
2532 16-03-2019 18:55:00 10.5 C 76 % 6.45 C
2533 16-03-2019 19:00:00 10.5 C 76 % 6.45 C
2534 16-03-2019 19:05:00 10.5 C 76 % 6.45 C
2535 16-03-2019 19:10:00 10.5 C 76 % 6.45 C
2536 16-03-2019 19:15:00 10.5 C 76 % 6.45 C
2537 16-03-2019 19:20:00 10.4 C 76 % 6.36 C
2538 16-03-2019 19:25:00 10.4 C 76 % 6.36 C
2539 16-03-2019 19:30:00 10.4 C 76 % 6.36 C
2540 16-03-2019 19:35:00 10.4 C 76 % 6.36 C
2541 16-03-2019 19:40:00 10.4 C 76 % 6.36 C
2542 16-03-2019 19:45:00 10.4 C 76 % 6.36 C
2543 16-03-2019 19:50:00 10.4 C 76 % 6.36 C
2544 16-03-2019 19:55:00 10.4 C 76 % 6.36 C
2545 16-03-2019 20:00:00 10.4 C 76 % 6.36 C
2546 16-03-2019 20:05:00 10.4 C 76 % 6.36 C
2547 16-03-2019 20:10:00 10.4 C 76 % 6.36 C
2548 16-03-2019 20:15:00 10.3 C 76 % 6.26 C
2549 16-03-2019 20:20:00 10.3 C 75 % 6.07 C
2550 16-03-2019 20:25:00 10.4 C 75 % 6.17 C
Sensor: Nr:Datum:Temp:Feuchte:Taupunkt:
Aussen-T/F 2551 16-03-2019 20:30:00 10.4 C 75 % 6.17 C
2552 16-03-2019 20:35:00 10.3 C 75 % 6.07 C
2553 16-03-2019 20:40:00 10.3 C 75 % 6.07 C
2554 16-03-2019 20:45:00 10.3 C 75 % 6.07 C
2555 16-03-2019 20:50:00 10.2 C 76 % 6.16 C
2556 16-03-2019 20:55:00 10.1 C 76 % 6.07 C
2557 16-03-2019 21:00:00 10.1 C 77 % 6.26 C
2558 16-03-2019 21:05:00 9.9 C 78 % 6.25 C
2559 16-03-2019 21:10:00 9.9 C 78 % 6.25 C
2560 16-03-2019 21:15:00 10.1 C 78 % 6.44 C
2561 16-03-2019 21:20:00 10.1 C 78 % 6.44 C
2562 16-03-2019 21:25:00 10.2 C 78 % 6.54 C
2563 16-03-2019 21:30:00 10.2 C 78 % 6.54 C
2564 16-03-2019 21:35:00 10.3 C 78 % 6.64 C
2565 16-03-2019 21:40:00 10.2 C 78 % 6.54 C
2566 16-03-2019 21:45:00 10.2 C 78 % 6.54 C
2567 16-03-2019 21:50:00 10.1 C 79 % 6.63 C
2568 16-03-2019 21:55:00 10 C 79 % 6.53 C
2569 16-03-2019 22:00:00 10 C 79 % 6.53 C
2570 16-03-2019 22:05:00 10 C 79 % 6.53 C
2571 16-03-2019 22:10:00 10.1 C 79 % 6.63 C
2572 16-03-2019 22:15:00 10 C 80 % 6.71 C
2573 16-03-2019 22:20:00 10 C 79 % 6.53 C
2574 16-03-2019 22:25:00 10.1 C 79 % 6.63 C
2575 16-03-2019 22:30:00 10.1 C 79 % 6.63 C
Sensor: Nr:Datum:Temp:Feuchte:Taupunkt:
Aussen-T/F 2576 16-03-2019 22:35:00 10.1 C 79 % 6.63 C
2577 16-03-2019 22:40:00 10.1 C 79 % 6.63 C
2578 16-03-2019 22:45:00 10.2 C 79 % 6.73 C
2579 16-03-2019 22:50:00 10.2 C 79 % 6.73 C
2580 16-03-2019 22:55:00 10.2 C 79 % 6.73 C
2581 16-03-2019 23:00:00 10.2 C 79 % 6.73 C
2582 16-03-2019 23:05:00 10.1 C 79 % 6.63 C
2583 16-03-2019 23:10:00 10.1 C 79 % 6.63 C
2584 16-03-2019 23:15:00 10.1 C 79 % 6.63 C
2585 16-03-2019 23:20:00 10.1 C 80 % 6.81 C
2586 16-03-2019 23:25:00 10 C 80 % 6.71 C
2587 16-03-2019 23:30:00 10.1 C 79 % 6.63 C
2588 16-03-2019 23:35:00 10.1 C 79 % 6.63 C
2589 16-03-2019 23:40:00 10.1 C 79 % 6.63 C
2590 16-03-2019 23:45:00 10.1 C 79 % 6.63 C
2591 16-03-2019 23:50:00 10.2 C 78 % 6.54 C
2592 16-03-2019 23:55:00 10.2 C 78 % 6.54 C
2593 17-03-2019 00:00:00 10.2 C 78 % 6.54 C
2594 17-03-2019 00:05:00 10.2 C 78 % 6.54 C
2595 17-03-2019 00:10:00 10.2 C 78 % 6.54 C
2596 17-03-2019 00:15:00 10.2 C 78 % 6.54 C
2597 17-03-2019 00:20:00 10.2 C 78 % 6.54 C
2598 17-03-2019 00:25:00 10.3 C 78 % 6.64 C
2599 17-03-2019 00:30:00 10.3 C 78 % 6.64 C
2600 17-03-2019 00:35:00 10.3 C 78 % 6.64 C
Sensor: Nr:Datum:Temp:Feuchte:Taupunkt:
Aussen-T/F 2601 17-03-2019 00:40:00 10.4 C 78 % 6.74 C
2602 17-03-2019 00:45:00 10.4 C 77 % 6.55 C
2603 17-03-2019 00:50:00 10.4 C 78 % 6.74 C
2604 17-03-2019 00:55:00 10.4 C 77 % 6.55 C
2605 17-03-2019 01:00:00 10.4 C 77 % 6.55 C
2606 17-03-2019 01:05:00 10.4 C 77 % 6.55 C
2607 17-03-2019 01:10:00 10.4 C 77 % 6.55 C
2608 17-03-2019 01:15:00 10.4 C 77 % 6.55 C
2609 17-03-2019 01:20:00 10.4 C 77 % 6.55 C
2610 17-03-2019 01:25:00 10.5 C 77 % 6.64 C
2611 17-03-2019 01:30:00 10.5 C 77 % 6.64 C
2612 17-03-2019 01:35:00 10.5 C 77 % 6.64 C
2613 17-03-2019 01:40:00 10.4 C 77 % 6.55 C
2614 17-03-2019 01:45:00 10.5 C 77 % 6.64 C
2615 17-03-2019 01:50:00 10.4 C 77 % 6.55 C
2616 17-03-2019 01:55:00 10.3 C 77 % 6.45 C
2617 17-03-2019 02:00:00 10.3 C 77 % 6.45 C
2618 17-03-2019 02:05:00 10.2 C 77 % 6.35 C
2619 17-03-2019 02:10:00 10.2 C 77 % 6.35 C
2620 17-03-2019 02:15:00 10.2 C 78 % 6.54 C
2621 17-03-2019 02:20:00 10.2 C 78 % 6.54 C
2622 17-03-2019 02:25:00 10.2 C 78 % 6.54 C
2623 17-03-2019 02:30:00 10.2 C 78 % 6.54 C
2624 17-03-2019 02:35:00 10.2 C 78 % 6.54 C
2625 17-03-2019 02:40:00 10.2 C 78 % 6.54 C
Sensor: Nr:Datum:Temp:Feuchte:Taupunkt:
Aussen-T/F 2626 17-03-2019 02:45:00 10.2 C 77 % 6.35 C
2627 17-03-2019 02:50:00 10.2 C 78 % 6.54 C
2628 17-03-2019 02:55:00 10.2 C 77 % 6.35 C
2629 17-03-2019 03:00:00 10.2 C 77 % 6.35 C
2630 17-03-2019 03:05:00 10.2 C 77 % 6.35 C
2631 17-03-2019 03:10:00 10.2 C 77 % 6.35 C
2632 17-03-2019 03:15:00 10.2 C 77 % 6.35 C
2633 17-03-2019 03:20:00 10.2 C 77 % 6.35 C
2634 17-03-2019 03:25:00 10.2 C 77 % 6.35 C
2635 17-03-2019 03:30:00 10.2 C 77 % 6.35 C
2636 17-03-2019 03:35:00 10.2 C 77 % 6.35 C
2637 17-03-2019 03:40:00 10.1 C 77 % 6.26 C
2638 17-03-2019 03:45:00 10.2 C 77 % 6.35 C
2639 17-03-2019 03:50:00 10.2 C 77 % 6.35 C
2640 17-03-2019 03:55:00 10.2 C 77 % 6.35 C
2641 17-03-2019 04:00:00 10.2 C 77 % 6.35 C
2642 17-03-2019 04:05:00 10.1 C 76 % 6.07 C
2643 17-03-2019 04:10:00 10.1 C 76 % 6.07 C
2644 17-03-2019 04:15:00 10.1 C 76 % 6.07 C
2645 17-03-2019 04:20:00 10.1 C 76 % 6.07 C
2646 17-03-2019 04:25:00 10.1 C 76 % 6.07 C
2647 17-03-2019 04:30:00 10.1 C 76 % 6.07 C
2648 17-03-2019 04:35:00 10.1 C 76 % 6.07 C
2649 17-03-2019 04:40:00 10.1 C 76 % 6.07 C
2650 17-03-2019 04:45:00 10.1 C 76 % 6.07 C
Sensor: Nr:Datum:Temp:Feuchte:Taupunkt:
Aussen-T/F 2651 17-03-2019 04:50:00 10.1 C 76 % 6.07 C
2652 17-03-2019 04:55:00 10.2 C 76 % 6.16 C
2653 17-03-2019 05:00:00 10.2 C 76 % 6.16 C
2654 17-03-2019 05:05:00 10.2 C 76 % 6.16 C
2655 17-03-2019 05:10:00 10.3 C 75 % 6.07 C
2656 17-03-2019 05:15:00 10.3 C 75 % 6.07 C
2657 17-03-2019 05:20:00 10.3 C 75 % 6.07 C
2658 17-03-2019 05:25:00 10.3 C 75 % 6.07 C
2659 17-03-2019 05:30:00 10.3 C 74 % 5.88 C
2660 17-03-2019 05:35:00 10.3 C 74 % 5.88 C
2661 17-03-2019 05:40:00 10.3 C 74 % 5.88 C
2662 17-03-2019 05:45:00 10.3 C 74 % 5.88 C
2663 17-03-2019 05:50:00 10.3 C 74 % 5.88 C
2664 17-03-2019 05:55:00 10.3 C 75 % 6.07 C
2665 17-03-2019 06:00:00 10.2 C 75 % 5.97 C
2666 17-03-2019 06:05:00 10.2 C 74 % 5.78 C
2667 17-03-2019 06:10:00 10.2 C 74 % 5.78 C
2668 17-03-2019 06:15:00 10.2 C 74 % 5.78 C
2669 17-03-2019 06:20:00 10.2 C 74 % 5.78 C
2670 17-03-2019 06:25:00 10.2 C 74 % 5.78 C
2671 17-03-2019 06:30:00 10.2 C 74 % 5.78 C
2672 17-03-2019 06:35:00 10.2 C 74 % 5.78 C
2673 17-03-2019 06:40:00 10.3 C 74 % 5.88 C
2674 17-03-2019 06:45:00 10.3 C 74 % 5.88 C
2675 17-03-2019 06:50:00 10.3 C 75 % 6.07 C
Sensor: Nr:Datum:Temp:Feuchte:Taupunkt:
Aussen-T/F 2676 17-03-2019 06:55:00 10.3 C 75 % 6.07 C
2677 17-03-2019 07:00:00 10.3 C 75 % 6.07 C
2678 17-03-2019 07:05:00 10.2 C 75 % 5.97 C
2679 17-03-2019 07:10:00 10.3 C 76 % 6.26 C
2680 17-03-2019 07:15:00 10.3 C 75 % 6.07 C
2681 17-03-2019 07:20:00 10.3 C 76 % 6.26 C
2682 17-03-2019 07:25:00 10.3 C 76 % 6.26 C
2683 17-03-2019 07:30:00 10.2 C 76 % 6.16 C
2684 17-03-2019 07:35:00 10.2 C 76 % 6.16 C
2685 17-03-2019 07:40:00 10.2 C 76 % 6.16 C
2686 17-03-2019 07:45:00 10.2 C 77 % 6.35 C
2687 17-03-2019 07:50:00 10.2 C 77 % 6.35 C
2688 17-03-2019 07:55:00 10.2 C 77 % 6.35 C
2689 17-03-2019 08:00:00 10.2 C 77 % 6.35 C
2690 17-03-2019 08:05:00 10.3 C 77 % 6.45 C
2691 17-03-2019 08:10:00 10.3 C 78 % 6.64 C
2692 17-03-2019 08:15:00 10.3 C 78 % 6.64 C
2693 17-03-2019 08:20:00 10.2 C 78 % 6.54 C
2694 17-03-2019 08:25:00 10.2 C 79 % 6.73 C
2695 17-03-2019 08:30:00 10.2 C 79 % 6.73 C
2696 17-03-2019 08:35:00 10.1 C 80 % 6.81 C
2697 17-03-2019 08:40:00 10.1 C 80 % 6.81 C
2698 17-03-2019 08:45:00 10.1 C 80 % 6.81 C
2699 17-03-2019 08:50:00 10.2 C 80 % 6.91 C
2700 17-03-2019 08:55:00 10.2 C 80 % 6.91 C
Sensor: Nr:Datum:Temp:Feuchte:Taupunkt:
Aussen-T/F 2701 17-03-2019 09:00:00 10.2 C 80 % 6.91 C
2702 17-03-2019 09:05:00 10.2 C 80 % 6.91 C
2703 17-03-2019 09:10:00 10.2 C 80 % 6.91 C
2704 17-03-2019 09:15:00 10.2 C 80 % 6.91 C
2705 17-03-2019 09:20:00 10.3 C 80 % 7.01 C
2706 17-03-2019 09:25:00 10.3 C 79 % 6.82 C
2707 17-03-2019 09:30:00 10.3 C 79 % 6.82 C
2708 17-03-2019 09:35:00 10.3 C 80 % 7.01 C
2709 17-03-2019 09:40:00 10.3 C 79 % 6.82 C
2710 17-03-2019 09:45:00 10.3 C 79 % 6.82 C
2711 17-03-2019 09:50:00 10.3 C 80 % 7.01 C
2712 17-03-2019 09:55:00 10.3 C 80 % 7.01 C
2713 17-03-2019 10:00:00 10.3 C 80 % 7.01 C
2714 17-03-2019 10:05:00 10.2 C 81 % 7.09 C
2715 17-03-2019 10:10:00 10.2 C 82 % 7.27 C
2716 17-03-2019 10:15:00 10.1 C 82 % 7.17 C
2717 17-03-2019 10:20:00 10.1 C 82 % 7.17 C
2718 17-03-2019 10:25:00 10.1 C 82 % 7.17 C
2719 17-03-2019 10:30:00 9.9 C 82 % 6.98 C
2720 17-03-2019 10:35:00 9.8 C 83 % 7.05 C
2721 17-03-2019 10:40:00 9.7 C 84 % 7.13 C
2722 17-03-2019 10:45:00 9.6 C 84 % 7.03 C
2723 17-03-2019 10:50:00 9.5 C 85 % 7.11 C
2724 17-03-2019 10:55:00 9.2 C 84 % 6.64 C
2725 17-03-2019 11:00:00 8.8 C 84 % 6.25 C
Sensor: Nr:Datum:Temp:Feuchte:Taupunkt:
Aussen-T/F 2726 17-03-2019 11:05:00 8.3 C 85 % 5.93 C
2727 17-03-2019 11:10:00 8.1 C 85 % 5.73 C
2728 17-03-2019 11:15:00 7.9 C 85 % 5.54 C
2729 17-03-2019 11:20:00 7.8 C 85 % 5.44 C
2730 17-03-2019 11:25:00 7.8 C 85 % 5.44 C
2731 17-03-2019 11:30:00 7.9 C 84 % 5.37 C
2732 17-03-2019 11:35:00 7.9 C 84 % 5.37 C
2733 17-03-2019 11:40:00 7.9 C 83 % 5.2 C
2734 17-03-2019 11:45:00 8 C 83 % 5.29 C
2735 17-03-2019 11:50:00 8.2 C 83 % 5.49 C
2736 17-03-2019 11:55:00 8.3 C 82 % 5.41 C
2737 17-03-2019 12:00:00 8.3 C 81 % 5.24 C
2738 17-03-2019 12:05:00 8.4 C 81 % 5.33 C
2739 17-03-2019 12:10:00 8.6 C 81 % 5.53 C
2740 17-03-2019 12:15:00 8.7 C 80 % 5.45 C
2741 17-03-2019 12:20:00 8.8 C 79 % 5.36 C
2742 17-03-2019 12:25:00 8.9 C 79 % 5.46 C
2743 17-03-2019 12:30:00 9 C 78 % 5.38 C
2744 17-03-2019 12:35:00 9 C 79 % 5.56 C
2745 17-03-2019 12:40:00 9 C 78 % 5.38 C
2746 17-03-2019 12:45:00 8.9 C 77 % 5.09 C
2747 17-03-2019 12:50:00 8.9 C 77 % 5.09 C
2748 17-03-2019 12:55:00 8.9 C 78 % 5.28 C
2749 17-03-2019 13:00:00 9.1 C 78 % 5.47 C
2750 17-03-2019 13:05:00 9.2 C 77 % 5.38 C
Sensor: Nr:Datum:Temp:Feuchte:Taupunkt:
Aussen-T/F 2751 17-03-2019 13:10:00 9.4 C 77 % 5.58 C
2752 17-03-2019 13:15:00 9.7 C 76 % 5.68 C
2753 17-03-2019 13:20:00 9.8 C 76 % 5.78 C
2754 17-03-2019 13:25:00 9.8 C 76 % 5.78 C
2755 17-03-2019 13:30:00 9.9 C 76 % 5.87 C
2756 17-03-2019 13:35:00 10.1 C 75 % 5.88 C
2757 17-03-2019 13:40:00 10.1 C 74 % 5.68 C
2758 17-03-2019 13:45:00 10.2 C 75 % 5.97 C
2759 17-03-2019 13:50:00 10.2 C 74 % 5.78 C
2760 17-03-2019 13:55:00 10.2 C 75 % 5.97 C
2761 17-03-2019 14:00:00 10.3 C 73 % 5.68 C
2762 17-03-2019 14:05:00 10.6 C 72 % 5.77 C
2763 17-03-2019 14:10:00 10.7 C 68 % 5.04 C
2764 17-03-2019 14:15:00 10.9 C 65 % 4.59 C
2765 17-03-2019 14:20:00 10.7 C 63 % 3.95 C
2766 17-03-2019 14:25:00 10.6 C 63 % 3.86 C
2767 17-03-2019 14:30:00 10.7 C 67 % 4.83 C
2768 17-03-2019 14:35:00 10.8 C 63 % 4.05 C
2769 17-03-2019 14:40:00 10.9 C 59 % 3.21 C
2770 17-03-2019 14:45:00 10.9 C 60 % 3.45 C
2771 17-03-2019 14:50:00 10.8 C 60 % 3.36 C
2772 17-03-2019 14:55:00 10.7 C 62 % 3.73 C
2773 17-03-2019 15:00:00 10.8 C 63 % 4.05 C
2774 17-03-2019 15:05:00 10.9 C 64 % 4.37 C
2775 17-03-2019 15:10:00 11.1 C 67 % 5.21 C
Sensor: Nr:Datum:Temp:Feuchte:Taupunkt:
Aussen-T/F 2776 17-03-2019 15:15:00 11.3 C 66 % 5.19 C
2777 17-03-2019 15:20:00 11.4 C 65 % 5.06 C
2778 17-03-2019 15:25:00 11.6 C 62 % 4.58 C
2779 17-03-2019 15:30:00 11.4 C 61 % 4.16 C
2780 17-03-2019 15:35:00 11.2 C 64 % 4.65 C
2781 17-03-2019 15:40:00 10.9 C 65 % 4.59 C
2782 17-03-2019 15:45:00 10.7 C 68 % 5.04 C
2783 17-03-2019 15:50:00 10.5 C 69 % 5.06 C
2784 17-03-2019 15:55:00 10.4 C 71 % 5.38 C
2785 17-03-2019 16:00:00 10.3 C 72 % 5.48 C
2786 17-03-2019 16:05:00 10.4 C 72 % 5.58 C
2787 17-03-2019 16:10:00 10.5 C 69 % 5.06 C
2788 17-03-2019 16:15:00 10.5 C 65 % 4.21 C
2789 17-03-2019 16:20:00 10.4 C 63 % 3.67 C
2790 17-03-2019 16:25:00 10.3 C 61 % 3.12 C
2791 17-03-2019 16:30:00 10.2 C 60 % 2.79 C
2792 17-03-2019 16:35:00 10 C 61 % 2.84 C
2793 17-03-2019 16:40:00 9.8 C 64 % 3.32 C
2794 17-03-2019 16:45:00 9.6 C 62 % 2.69 C
2795 17-03-2019 16:50:00 9.4 C 63 % 2.72 C
2796 17-03-2019 16:55:00 9.2 C 63 % 2.53 C
2797 17-03-2019 17:00:00 8.6 C 65 % 2.4 C
2798 17-03-2019 17:05:00 8.2 C 68 % 2.66 C
2799 17-03-2019 17:10:00 7.9 C 68 % 2.37 C
2800 17-03-2019 17:15:00 7.9 C 68 % 2.37 C
Sensor: Nr:Datum:Temp:Feuchte:Taupunkt:
Aussen-T/F 2801 17-03-2019 17:20:00 7.9 C 68 % 2.37 C
2802 17-03-2019 17:25:00 8 C 67 % 2.26 C
2803 17-03-2019 17:30:00 8 C 67 % 2.26 C
2804 17-03-2019 17:35:00 7.9 C 69 % 2.57 C
2805 17-03-2019 17:40:00 7.8 C 71 % 2.88 C
2806 17-03-2019 17:45:00 7.6 C 73 % 3.08 C
2807 17-03-2019 17:50:00 7.5 C 74 % 3.17 C
2808 17-03-2019 17:55:00 7.4 C 75 % 3.27 C
2809 17-03-2019 18:00:00 7.3 C 75 % 3.17 C
2810 17-03-2019 18:05:00 7.2 C 76 % 3.26 C
2811 17-03-2019 18:10:00 7.2 C 75 % 3.07 C
2812 17-03-2019 18:15:00 7.2 C 75 % 3.07 C
2813 17-03-2019 18:20:00 7.2 C 75 % 3.07 C
2814 17-03-2019 18:25:00 7.3 C 74 % 2.98 C
2815 17-03-2019 18:30:00 7.2 C 74 % 2.89 C
2816 17-03-2019 18:35:00 7 C 74 % 2.69 C
2817 17-03-2019 18:40:00 6.8 C 76 % 2.87 C
2818 17-03-2019 18:45:00 6.7 C 77 % 2.96 C
2819 17-03-2019 18:50:00 6.6 C 78 % 3.05 C
2820 17-03-2019 18:55:00 6.5 C 78 % 2.95 C
2821 17-03-2019 19:00:00 6.4 C 79 % 3.03 C
2822 17-03-2019 19:05:00 6.4 C 79 % 3.03 C
2823 17-03-2019 19:10:00 6.3 C 79 % 2.93 C
2824 17-03-2019 19:15:00 6.2 C 80 % 3.01 C
2825 17-03-2019 19:20:00 6.1 C 80 % 2.92 C
Sensor: Nr:Datum:Temp:Feuchte:Taupunkt:
Aussen-T/F 2826 17-03-2019 19:25:00 5.9 C 80 % 2.72 C
2827 17-03-2019 19:30:00 5.9 C 80 % 2.72 C
2828 17-03-2019 19:35:00 5.8 C 81 % 2.8 C
2829 17-03-2019 19:40:00 5.8 C 81 % 2.8 C
2830 17-03-2019 19:45:00 5.9 C 81 % 2.9 C
2831 17-03-2019 19:50:00 5.6 C 82 % 2.78 C
2832 17-03-2019 19:55:00 5.2 C 85 % 2.89 C
2833 17-03-2019 20:00:00 5 C 87 % 3.02 C
2834 17-03-2019 20:05:00 4.9 C 88 % 3.08 C
2835 17-03-2019 20:10:00 4.7 C 89 % 3.05 C
2836 17-03-2019 20:15:00 4.7 C 89 % 3.05 C
2837 17-03-2019 20:20:00 4.6 C 89 % 2.95 C
2838 17-03-2019 20:25:00 4.6 C 89 % 2.95 C
2839 17-03-2019 20:30:00 4.5 C 88 % 2.69 C
2840 17-03-2019 20:35:00 4.4 C 89 % 2.75 C
2841 17-03-2019 20:40:00 4.3 C 89 % 2.65 C
2842 17-03-2019 20:45:00 4.2 C 89 % 2.55 C
2843 17-03-2019 20:50:00 4.2 C 90 % 2.71 C
2844 17-03-2019 20:55:00 4.1 C 90 % 2.61 C
2845 17-03-2019 21:00:00 4.2 C 90 % 2.71 C
2846 17-03-2019 21:05:00 4.1 C 90 % 2.61 C
2847 17-03-2019 21:10:00 4.1 C 91 % 2.77 C
2848 17-03-2019 21:15:00 4.1 C 90 % 2.61 C
2849 17-03-2019 21:20:00 4.1 C 91 % 2.77 C
2850 17-03-2019 21:25:00 4.1 C 90 % 2.61 C
Sensor: Nr:Datum:Temp:Feuchte:Taupunkt:
Aussen-T/F 2851 17-03-2019 21:30:00 4.1 C 91 % 2.77 C
2852 17-03-2019 21:35:00 4 C 91 % 2.67 C
2853 17-03-2019 21:40:00 4 C 90 % 2.51 C
2854 17-03-2019 21:45:00 3.9 C 90 % 2.41 C
2855 17-03-2019 21:50:00 3.8 C 90 % 2.31 C
2856 17-03-2019 21:55:00 3.8 C 91 % 2.47 C
2857 17-03-2019 22:00:00 3.8 C 91 % 2.47 C
2858 17-03-2019 22:05:00 3.8 C 91 % 2.47 C
2859 17-03-2019 22:10:00 3.8 C 91 % 2.47 C
2860 17-03-2019 22:15:00 3.9 C 90 % 2.41 C
2861 17-03-2019 22:20:00 3.9 C 90 % 2.41 C
2862 17-03-2019 22:25:00 3.9 C 90 % 2.41 C
2863 17-03-2019 22:30:00 3.9 C 90 % 2.41 C
2864 17-03-2019 22:35:00 3.9 C 90 % 2.41 C
2865 17-03-2019 22:40:00 3.9 C 90 % 2.41 C
2866 17-03-2019 22:45:00 3.9 C 89 % 2.26 C
2867 17-03-2019 22:50:00 3.9 C 88 % 2.1 C
2868 17-03-2019 22:55:00 3.9 C 88 % 2.1 C
2869 17-03-2019 23:00:00 3.9 C 88 % 2.1 C
2870 17-03-2019 23:05:00 3.9 C 88 % 2.1 C
2871 17-03-2019 23:10:00 4 C 88 % 2.2 C
2872 17-03-2019 23:15:00 4 C 88 % 2.2 C
2873 17-03-2019 23:20:00 3.9 C 88 % 2.1 C
2874 17-03-2019 23:25:00 3.9 C 88 % 2.1 C
2875 17-03-2019 23:30:00 3.9 C 88 % 2.1 C
Sensor: Nr:Datum:Temp:Feuchte:Taupunkt:
Aussen-T/F 2876 17-03-2019 23:35:00 3.9 C 88 % 2.1 C
2877 17-03-2019 23:40:00 3.8 C 88 % 2 C
2878 17-03-2019 23:45:00 3.7 C 88 % 1.9 C
2879 17-03-2019 23:50:00 3.6 C 88 % 1.8 C
2880 17-03-2019 23:55:00 3.5 C 88 % 1.7 C
2881 18-03-2019 00:00:00 3.4 C 89 % 1.76 C
2882 18-03-2019 00:05:00 3.3 C 89 % 1.67 C
2883 18-03-2019 00:10:00 3.2 C 89 % 1.57 C
2884 18-03-2019 00:15:00 3.1 C 89 % 1.47 C
2885 18-03-2019 00:20:00 3 C 89 % 1.37 C
2886 18-03-2019 00:25:00 2.9 C 90 % 1.43 C
2887 18-03-2019 00:30:00 2.8 C 90 % 1.33 C
2888 18-03-2019 00:35:00 2.7 C 90 % 1.23 C
2889 18-03-2019 00:40:00 2.7 C 91 % 1.38 C
2890 18-03-2019 00:45:00 2.7 C 92 % 1.53 C
2891 18-03-2019 00:50:00 2.8 C 91 % 1.48 C
2892 18-03-2019 00:55:00 2.8 C 91 % 1.48 C
2893 18-03-2019 01:00:00 2.7 C 91 % 1.38 C
2894 18-03-2019 01:05:00 2.6 C 91 % 1.28 C
2895 18-03-2019 01:10:00 2.6 C 92 % 1.43 C
2896 18-03-2019 01:15:00 2.6 C 92 % 1.43 C
2897 18-03-2019 01:20:00 2.7 C 92 % 1.53 C
2898 18-03-2019 01:25:00 2.7 C 92 % 1.53 C
2899 18-03-2019 01:30:00 2.6 C 92 % 1.43 C
2900 18-03-2019 01:35:00 2.5 C 91 % 1.18 C
Sensor: Nr:Datum:Temp:Feuchte:Taupunkt:
Aussen-T/F 2901 18-03-2019 01:40:00 2.4 C 91 % 1.08 C
2902 18-03-2019 01:45:00 2.3 C 92 % 1.14 C
2903 18-03-2019 01:50:00 2.4 C 92 % 1.24 C
2904 18-03-2019 01:55:00 2.5 C 92 % 1.34 C
2905 18-03-2019 02:00:00 2.7 C 93 % 1.68 C
2906 18-03-2019 02:05:00 2.8 C 93 % 1.78 C
2907 18-03-2019 02:10:00 2.9 C 92 % 1.73 C
2908 18-03-2019 02:15:00 2.9 C 92 % 1.73 C
2909 18-03-2019 02:20:00 2.9 C 92 % 1.73 C
2910 18-03-2019 02:25:00 2.9 C 92 % 1.73 C
2911 18-03-2019 02:30:00 3.1 C 92 % 1.93 C
2912 18-03-2019 02:35:00 3.3 C 91 % 1.98 C
2913 18-03-2019 02:40:00 3.6 C 90 % 2.12 C
2914 18-03-2019 02:45:00 3.8 C 89 % 2.16 C
2915 18-03-2019 02:50:00 3.9 C 88 % 2.1 C
2916 18-03-2019 02:55:00 3.9 C 88 % 2.1 C
2917 18-03-2019 03:00:00 3.9 C 88 % 2.1 C
2918 18-03-2019 03:05:00 3.9 C 88 % 2.1 C
2919 18-03-2019 03:10:00 3.8 C 87 % 1.84 C
2920 18-03-2019 03:15:00 3.8 C 87 % 1.84 C
2921 18-03-2019 03:20:00 3.8 C 88 % 2 C
2922 18-03-2019 03:25:00 3.7 C 88 % 1.9 C
2923 18-03-2019 03:30:00 3.6 C 88 % 1.8 C
2924 18-03-2019 03:35:00 3.4 C 89 % 1.76 C
2925 18-03-2019 03:40:00 3.4 C 89 % 1.76 C
Sensor: Nr:Datum:Temp:Feuchte:Taupunkt:
Aussen-T/F 2926 18-03-2019 03:45:00 3.3 C 89 % 1.67 C
2927 18-03-2019 03:50:00 3.4 C 89 % 1.76 C
2928 18-03-2019 03:55:00 3.4 C 90 % 1.92 C
2929 18-03-2019 04:00:00 3.4 C 89 % 1.76 C
2930 18-03-2019 04:05:00 3.4 C 89 % 1.76 C
2931 18-03-2019 04:10:00 3.4 C 90 % 1.92 C
2932 18-03-2019 04:15:00 3.4 C 89 % 1.76 C
2933 18-03-2019 04:20:00 3.4 C 89 % 1.76 C
2934 18-03-2019 04:25:00 3.3 C 89 % 1.67 C
2935 18-03-2019 04:30:00 3.2 C 89 % 1.57 C
2936 18-03-2019 04:35:00 3.2 C 90 % 1.72 C
2937 18-03-2019 04:40:00 3.1 C 90 % 1.62 C
2938 18-03-2019 04:45:00 3.1 C 90 % 1.62 C
2939 18-03-2019 04:50:00 3.1 C 90 % 1.62 C
2940 18-03-2019 04:55:00 3 C 90 % 1.52 C
2941 18-03-2019 05:00:00 2.9 C 90 % 1.43 C
2942 18-03-2019 05:05:00 2.9 C 90 % 1.43 C
2943 18-03-2019 05:10:00 2.9 C 90 % 1.43 C
2944 18-03-2019 05:15:00 2.9 C 90 % 1.43 C
2945 18-03-2019 05:20:00 3.1 C 90 % 1.62 C
2946 18-03-2019 05:25:00 3.1 C 90 % 1.62 C
2947 18-03-2019 05:30:00 3.2 C 90 % 1.72 C
2948 18-03-2019 05:35:00 3.2 C 89 % 1.57 C
2949 18-03-2019 05:40:00 3.2 C 89 % 1.57 C
2950 18-03-2019 05:45:00 3.2 C 89 % 1.57 C
Sensor: Nr:Datum:Temp:Feuchte:Taupunkt:
Aussen-T/F 2951 18-03-2019 05:50:00 3.3 C 89 % 1.67 C
2952 18-03-2019 05:55:00 3.4 C 89 % 1.76 C
2953 18-03-2019 06:00:00 3.5 C 88 % 1.7 C
2954 18-03-2019 06:05:00 3.6 C 88 % 1.8 C
2955 18-03-2019 06:10:00 3.7 C 87 % 1.74 C
2956 18-03-2019 06:15:00 3.8 C 87 % 1.84 C
2957 18-03-2019 06:20:00 4 C 86 % 1.88 C
2958 18-03-2019 06:25:00 4.1 C 86 % 1.97 C
2959 18-03-2019 06:30:00 4.2 C 86 % 2.07 C
2960 18-03-2019 06:35:00 4.2 C 86 % 2.07 C
2961 18-03-2019 06:40:00 4.1 C 86 % 1.97 C
2962 18-03-2019 06:45:00 4.1 C 86 % 1.97 C
2963 18-03-2019 06:50:00 4.1 C 86 % 1.97 C
2964 18-03-2019 06:55:00 4.1 C 86 % 1.97 C
2965 18-03-2019 07:00:00 4 C 86 % 1.88 C
2966 18-03-2019 07:05:00 3.9 C 86 % 1.78 C
2967 18-03-2019 07:10:00 3.9 C 87 % 1.94 C
2968 18-03-2019 07:15:00 3.9 C 87 % 1.94 C
2969 18-03-2019 07:20:00 3.9 C 88 % 2.1 C
2970 18-03-2019 07:25:00 4.1 C 87 % 2.14 C
2971 18-03-2019 07:30:00 4.3 C 87 % 2.33 C
2972 18-03-2019 07:35:00 4.3 C 87 % 2.33 C
2973 18-03-2019 07:40:00 4.4 C 86 % 2.27 C
2974 18-03-2019 07:45:00 4.6 C 86 % 2.47 C
2975 18-03-2019 07:50:00 4.7 C 85 % 2.4 C
Sensor: Nr:Datum:Temp:Feuchte:Taupunkt:
Aussen-T/F 2976 18-03-2019 07:55:00 4.7 C 85 % 2.4 C
2977 18-03-2019 08:00:00 4.8 C 85 % 2.5 C
2978 18-03-2019 08:05:00 4.8 C 85 % 2.5 C
2979 18-03-2019 08:10:00 4.8 C 85 % 2.5 C
2980 18-03-2019 08:15:00 4.9 C 85 % 2.6 C
2981 18-03-2019 08:20:00 4.9 C 86 % 2.76 C
2982 18-03-2019 08:25:00 5 C 86 % 2.86 C
2983 18-03-2019 08:30:00 5.1 C 86 % 2.96 C
2984 18-03-2019 08:35:00 5.1 C 86 % 2.96 C
2985 18-03-2019 08:40:00 5.2 C 86 % 3.05 C
2986 18-03-2019 08:45:00 5.3 C 86 % 3.15 C
2987 18-03-2019 08:50:00 5.3 C 86 % 3.15 C
2988 18-03-2019 08:55:00 5.3 C 87 % 3.32 C
2989 18-03-2019 09:00:00 5.2 C 88 % 3.38 C
2990 18-03-2019 09:05:00 5.1 C 89 % 3.44 C
2991 18-03-2019 09:10:00 5 C 89 % 3.34 C
2992 18-03-2019 09:15:00 5 C 90 % 3.5 C
2993 18-03-2019 09:20:00 5.1 C 90 % 3.6 C
2994 18-03-2019 09:25:00 5.1 C 90 % 3.6 C
2995 18-03-2019 09:30:00 5.2 C 91 % 3.85 C
2996 18-03-2019 09:35:00 5.1 C 89 % 3.44 C
2997 18-03-2019 09:40:00 4.9 C 89 % 3.24 C
2998 18-03-2019 09:45:00 4.9 C 90 % 3.4 C
2999 18-03-2019 09:50:00 5 C 90 % 3.5 C
3000 18-03-2019 09:55:00 5.2 C 90 % 3.7 C
Sensor: Nr:Datum:Temp:Feuchte:Taupunkt:
Aussen-T/F 3001 18-03-2019 10:00:00 5.3 C 90 % 3.8 C
3002 18-03-2019 10:05:00 5.6 C 90 % 4.09 C
3003 18-03-2019 10:10:00 5.9 C 89 % 4.23 C
3004 18-03-2019 10:15:00 6.2 C 88 % 4.36 C
3005 18-03-2019 10:20:00 6.3 C 87 % 4.3 C
3006 18-03-2019 10:25:00 6.4 C 85 % 4.07 C
3007 18-03-2019 10:30:00 6.4 C 84 % 3.9 C
3008 18-03-2019 10:35:00 6.5 C 84 % 4 C
3009 18-03-2019 10:40:00 6.7 C 84 % 4.19 C
3010 18-03-2019 10:45:00 6.9 C 84 % 4.39 C
3011 18-03-2019 10:50:00 7.1 C 82 % 4.24 C
3012 18-03-2019 10:55:00 7.1 C 81 % 4.07 C
3013 18-03-2019 11:00:00 7 C 81 % 3.97 C
3014 18-03-2019 11:05:00 7 C 82 % 4.14 C
3015 18-03-2019 11:10:00 7.2 C 82 % 4.34 C
3016 18-03-2019 11:15:00 7.4 C 81 % 4.36 C
3017 18-03-2019 11:20:00 7.7 C 80 % 4.47 C
3018 18-03-2019 11:25:00 7.7 C 78 % 4.11 C
3019 18-03-2019 11:30:00 7.7 C 78 % 4.11 C
3020 18-03-2019 11:35:00 7.9 C 77 % 4.12 C
3021 18-03-2019 11:40:00 8.1 C 74 % 3.75 C
3022 18-03-2019 11:45:00 8.2 C 72 % 3.46 C
3023 18-03-2019 11:50:00 8.4 C 72 % 3.65 C
3024 18-03-2019 11:55:00 8.6 C 72 % 3.85 C
3025 18-03-2019 12:00:00 8.7 C 70 % 3.54 C
Sensor: Nr:Datum:Temp:Feuchte:Taupunkt:
Aussen-T/F 3026 18-03-2019 12:05:00 8.6 C 68 % 3.04 C
3027 18-03-2019 12:10:00 8.5 C 70 % 3.35 C
3028 18-03-2019 12:15:00 8.8 C 68 % 3.23 C
3029 18-03-2019 12:20:00 9.1 C 68 % 3.52 C
3030 18-03-2019 12:25:00 9.1 C 65 % 2.88 C
3031 18-03-2019 12:30:00 8.8 C 66 % 2.81 C
3032 18-03-2019 12:35:00 8.6 C 70 % 3.45 C
3033 18-03-2019 12:40:00 7.5 C 75 % 3.36 C
3034 18-03-2019 12:45:00 6.7 C 79 % 3.32 C
3035 18-03-2019 12:50:00 6.3 C 81 % 3.29 C
3036 18-03-2019 12:55:00 6.1 C 83 % 3.44 C
3037 18-03-2019 13:00:00 6.1 C 85 % 3.77 C
3038 18-03-2019 13:05:00 6 C 85 % 3.67 C
3039 18-03-2019 13:10:00 6 C 86 % 3.84 C
3040 18-03-2019 13:15:00 6.1 C 86 % 3.94 C
3041 18-03-2019 13:20:00 6.2 C 86 % 4.04 C
3042 18-03-2019 13:25:00 6.4 C 87 % 4.4 C
3043 18-03-2019 13:30:00 6.7 C 87 % 4.69 C
3044 18-03-2019 13:35:00 6.8 C 85 % 4.46 C
3045 18-03-2019 13:40:00 7.1 C 85 % 4.75 C
3046 18-03-2019 13:45:00 7.3 C 84 % 4.78 C
3047 18-03-2019 13:50:00 7.5 C 82 % 4.63 C
3048 18-03-2019 13:55:00 7.8 C 80 % 4.57 C
3049 18-03-2019 14:00:00 8.2 C 78 % 4.6 C
3050 18-03-2019 14:05:00 8.6 C 78 % 4.99 C
Sensor: Nr:Datum:Temp:Feuchte:Taupunkt:
Aussen-T/F 3051 18-03-2019 14:10:00 8.7 C 76 % 4.71 C
3052 18-03-2019 14:15:00 8.6 C 77 % 4.8 C
3053 18-03-2019 14:20:00 8.2 C 72 % 3.46 C
3054 18-03-2019 14:25:00 8 C 74 % 3.66 C
3055 18-03-2019 14:30:00 8.2 C 72 % 3.46 C
3056 18-03-2019 14:35:00 8.4 C 71 % 3.46 C
3057 18-03-2019 14:40:00 8.7 C 69 % 3.34 C
3058 18-03-2019 14:45:00 8.8 C 67 % 3.02 C
3059 18-03-2019 14:50:00 8.7 C 66 % 2.71 C
3060 18-03-2019 14:55:00 8.1 C 73 % 3.56 C
3061 18-03-2019 15:00:00 7.3 C 79 % 3.91 C
3062 18-03-2019 15:05:00 6.8 C 82 % 3.95 C
3063 18-03-2019 15:10:00 6.4 C 85 % 4.07 C
3064 18-03-2019 15:15:00 6.3 C 86 % 4.14 C
3065 18-03-2019 15:20:00 6.3 C 88 % 4.46 C
3066 18-03-2019 15:25:00 6.3 C 86 % 4.14 C
3067 18-03-2019 15:30:00 6.5 C 88 % 4.66 C
3068 18-03-2019 15:35:00 6.7 C 88 % 4.86 C
3069 18-03-2019 15:40:00 6.8 C 88 % 4.96 C
3070 18-03-2019 15:45:00 6.9 C 86 % 4.72 C
3071 18-03-2019 15:50:00 7.1 C 88 % 5.25 C
3072 18-03-2019 15:55:00 7.2 C 87 % 5.19 C
3073 18-03-2019 16:00:00 7.3 C 87 % 5.28 C
3074 18-03-2019 16:05:00 7.2 C 87 % 5.19 C
3075 18-03-2019 16:10:00 7.1 C 87 % 5.09 C
Sensor: Nr:Datum:Temp:Feuchte:Taupunkt:
Aussen-T/F 3076 18-03-2019 16:15:00 6.8 C 87 % 4.79 C
3077 18-03-2019 16:20:00 6.7 C 88 % 4.86 C
3078 18-03-2019 16:25:00 6.6 C 88 % 4.76 C
3079 18-03-2019 16:30:00 6.6 C 89 % 4.92 C
3080 18-03-2019 16:35:00 6.6 C 89 % 4.92 C
3081 18-03-2019 16:40:00 6.7 C 85 % 4.36 C
3082 18-03-2019 16:45:00 6.8 C 83 % 4.12 C
3083 18-03-2019 16:50:00 7 C 83 % 4.32 C
3084 18-03-2019 16:55:00 7.1 C 81 % 4.07 C
3085 18-03-2019 17:00:00 7.3 C 82 % 4.44 C
3086 18-03-2019 17:05:00 7.7 C 79 % 4.3 C
3087 18-03-2019 17:10:00 8.2 C 78 % 4.6 C
3088 18-03-2019 17:15:00 8.5 C 75 % 4.33 C
3089 18-03-2019 17:20:00 8.5 C 73 % 3.95 C
3090 18-03-2019 17:25:00 8.3 C 73 % 3.75 C
3091 18-03-2019 17:30:00 8.1 C 74 % 3.75 C
3092 18-03-2019 17:35:00 7.9 C 72 % 3.17 C
3093 18-03-2019 17:40:00 7.8 C 72 % 3.08 C
3094 18-03-2019 17:45:00 7.8 C 72 % 3.08 C
3095 18-03-2019 17:50:00 7.7 C 70 % 2.58 C
3096 18-03-2019 17:55:00 7.7 C 72 % 2.98 C
3097 18-03-2019 18:00:00 7.6 C 70 % 2.49 C
3098 18-03-2019 18:05:00 7.5 C 72 % 2.79 C
3099 18-03-2019 18:10:00 7.4 C 72 % 2.69 C
3100 18-03-2019 18:15:00 7.6 C 75 % 3.46 C
Sensor: Nr:Datum:Temp:Feuchte:Taupunkt:
Aussen-T/F 3101 18-03-2019 18:20:00 7.7 C 73 % 3.18 C
3102 18-03-2019 18:25:00 7.9 C 74 % 3.56 C
3103 18-03-2019 18:30:00 7.9 C 75 % 3.75 C
3104 18-03-2019 18:35:00 7.8 C 76 % 3.84 C
3105 18-03-2019 18:40:00 7.6 C 77 % 3.83 C
3106 18-03-2019 18:45:00 7.3 C 79 % 3.91 C
3107 18-03-2019 18:50:00 7 C 80 % 3.79 C
3108 18-03-2019 18:55:00 6.6 C 81 % 3.58 C
3109 18-03-2019 19:00:00 6.3 C 82 % 3.46 C
3110 18-03-2019 19:05:00 5.9 C 82 % 3.07 C
3111 18-03-2019 19:10:00 5.6 C 83 % 2.95 C
3112 18-03-2019 19:15:00 5.4 C 85 % 3.09 C
3113 18-03-2019 19:20:00 5.2 C 85 % 2.89 C
3114 18-03-2019 19:25:00 5.1 C 86 % 2.96 C
3115 18-03-2019 19:30:00 4.9 C 86 % 2.76 C
3116 18-03-2019 19:35:00 4.9 C 87 % 2.92 C
3117 18-03-2019 19:40:00 4.9 C 87 % 2.92 C
3118 18-03-2019 19:45:00 4.8 C 87 % 2.82 C
3119 18-03-2019 19:50:00 4.8 C 87 % 2.82 C
3120 18-03-2019 19:55:00 4.7 C 87 % 2.73 C
3121 18-03-2019 20:00:00 4.6 C 86 % 2.47 C
3122 18-03-2019 20:05:00 4.4 C 86 % 2.27 C
3123 18-03-2019 20:10:00 4.3 C 86 % 2.17 C
3124 18-03-2019 20:15:00 4.2 C 86 % 2.07 C
3125 18-03-2019 20:20:00 4.1 C 85 % 1.81 C
Sensor: Nr:Datum:Temp:Feuchte:Taupunkt:
Aussen-T/F 3126 18-03-2019 20:25:00 4.1 C 86 % 1.97 C
3127 18-03-2019 20:30:00 4 C 86 % 1.88 C
3128 18-03-2019 20:35:00 3.9 C 86 % 1.78 C
3129 18-03-2019 20:40:00 3.8 C 86 % 1.68 C
3130 18-03-2019 20:45:00 3.7 C 86 % 1.58 C
3131 18-03-2019 20:50:00 3.6 C 86 % 1.48 C
3132 18-03-2019 20:55:00 3.5 C 87 % 1.55 C
3133 18-03-2019 21:00:00 3.4 C 87 % 1.45 C
3134 18-03-2019 21:05:00 3.3 C 87 % 1.35 C
3135 18-03-2019 21:10:00 3.2 C 87 % 1.25 C
3136 18-03-2019 21:15:00 3.2 C 87 % 1.25 C
3137 18-03-2019 21:20:00 3.2 C 88 % 1.41 C
3138 18-03-2019 21:25:00 3.1 C 88 % 1.31 C
3139 18-03-2019 21:30:00 3.1 C 88 % 1.31 C
3140 18-03-2019 21:35:00 3.1 C 88 % 1.31 C
3141 18-03-2019 21:40:00 3 C 88 % 1.21 C
3142 18-03-2019 21:45:00 2.9 C 89 % 1.27 C
3143 18-03-2019 21:50:00 2.8 C 89 % 1.17 C
3144 18-03-2019 21:55:00 2.8 C 89 % 1.17 C
3145 18-03-2019 22:00:00 2.7 C 89 % 1.07 C
3146 18-03-2019 22:05:00 2.6 C 89 % 0.97 C
3147 18-03-2019 22:10:00 2.4 C 89 % 0.78 C
3148 18-03-2019 22:15:00 2.3 C 89 % 0.68 C
3149 18-03-2019 22:20:00 2.1 C 89 % 0.48 C
3150 18-03-2019 22:25:00 1.9 C 89 % 0.28 C
Sensor: Nr:Datum:Temp:Feuchte:Taupunkt:
Aussen-T/F 3151 18-03-2019 22:30:00 1.8 C 90 % 0.34 C
3152 18-03-2019 22:35:00 1.8 C 90 % 0.34 C
3153 18-03-2019 22:40:00 1.8 C 90 % 0.34 C
3154 18-03-2019 22:45:00 1.7 C 91 % 0.39 C
3155 18-03-2019 22:50:00 1.7 C 91 % 0.39 C
3156 18-03-2019 22:55:00 1.7 C 91 % 0.39 C
3157 18-03-2019 23:00:00 1.6 C 91 % 0.29 C
3158 18-03-2019 23:05:00 1.6 C 91 % 0.29 C
3159 18-03-2019 23:10:00 1.6 C 92 % 0.44 C
3160 18-03-2019 23:15:00 1.6 C 92 % 0.44 C
3161 18-03-2019 23:20:00 1.6 C 92 % 0.44 C
3162 18-03-2019 23:25:00 1.6 C 92 % 0.44 C
3163 18-03-2019 23:30:00 1.5 C 92 % 0.35 C
3164 18-03-2019 23:35:00 1.4 C 92 % 0.25 C
3165 18-03-2019 23:40:00 1.4 C 92 % 0.25 C
3166 18-03-2019 23:45:00 1.3 C 92 % 0.15 C
3167 18-03-2019 23:50:00 1.3 C 92 % 0.15 C
3168 18-03-2019 23:55:00 1.3 C 92 % 0.15 C
3169 19-03-2019 00:00:00 1.2 C 92 % 0.05 C
3170 19-03-2019 00:05:00 1.1 C 92 % -0.05 C
3171 19-03-2019 00:10:00 1.1 C 92 % -0.05 C
3172 19-03-2019 00:15:00 1.1 C 93 % 0.1 C
3173 19-03-2019 00:20:00 1.1 C 92 % -0.05 C
3174 19-03-2019 00:25:00 1.1 C 93 % 0.1 C
3175 19-03-2019 00:30:00 1 C 93 % 0 C
Sensor: Nr:Datum:Temp:Feuchte:Taupunkt:
Aussen-T/F 3176 19-03-2019 00:35:00 0.9 C 92 % -0.25 C
3177 19-03-2019 00:40:00 0.8 C 92 % -0.35 C
3178 19-03-2019 00:45:00 0.7 C 92 % -0.45 C
3179 19-03-2019 00:50:00 0.6 C 92 % -0.55 C
3180 19-03-2019 00:55:00 0.5 C 93 % -0.5 C
3181 19-03-2019 01:00:00 0.5 C 93 % -0.5 C
3182 19-03-2019 01:05:00 0.5 C 93 % -0.5 C
3183 19-03-2019 01:10:00 0.5 C 93 % -0.5 C
3184 19-03-2019 01:15:00 0.4 C 93 % -0.6 C
3185 19-03-2019 01:20:00 0.4 C 93 % -0.6 C
3186 19-03-2019 01:25:00 0.3 C 93 % -0.7 C
3187 19-03-2019 01:30:00 0.3 C 93 % -0.7 C
3188 19-03-2019 01:35:00 0.3 C 93 % -0.7 C
3189 19-03-2019 01:40:00 0.4 C 93 % -0.6 C
3190 19-03-2019 01:45:00 0.3 C 93 % -0.7 C
3191 19-03-2019 01:50:00 0.2 C 93 % -0.79 C
3192 19-03-2019 01:55:00 0.2 C 93 % -0.79 C
3193 19-03-2019 02:00:00 0.1 C 93 % -0.89 C
3194 19-03-2019 02:05:00 0.1 C 93 % -0.89 C
3195 19-03-2019 02:10:00 -0.1 C 93 % -1.09 C
3196 19-03-2019 02:15:00 -0.1 C 93 % -1.09 C
3197 19-03-2019 02:20:00 -0.1 C 94 % -0.95 C
3198 19-03-2019 02:25:00 -0.1 C 94 % -0.95 C
3199 19-03-2019 02:30:00 -0.1 C 94 % -0.95 C
3200 19-03-2019 02:35:00 0 C 94 % -0.85 C
Sensor: Nr:Datum:Temp:Feuchte:Taupunkt:
Aussen-T/F 3201 19-03-2019 02:40:00 -0.1 C 94 % -0.95 C
3202 19-03-2019 02:45:00 -0.1 C 94 % -0.95 C
3203 19-03-2019 02:50:00 -0.1 C 94 % -0.95 C
3204 19-03-2019 02:55:00 0.1 C 94 % -0.75 C
3205 19-03-2019 03:00:00 0 C 94 % -0.85 C
3206 19-03-2019 03:05:00 -0.1 C 94 % -0.95 C
3207 19-03-2019 03:10:00 -0.2 C 94 % -1.05 C
3208 19-03-2019 03:15:00 -0.2 C 94 % -1.05 C
3209 19-03-2019 03:20:00 -0.2 C 94 % -1.05 C
3210 19-03-2019 03:25:00 -0.3 C 94 % -1.15 C
3211 19-03-2019 03:30:00 -0.3 C 94 % -1.15 C
3212 19-03-2019 03:35:00 -0.4 C 94 % -1.25 C
3213 19-03-2019 03:40:00 -0.4 C 94 % -1.25 C
3214 19-03-2019 03:45:00 -0.4 C 94 % -1.25 C
3215 19-03-2019 03:50:00 -0.5 C 94 % -1.34 C
3216 19-03-2019 03:55:00 -0.6 C 94 % -1.44 C
3217 19-03-2019 04:00:00 -0.7 C 94 % -1.54 C
3218 19-03-2019 04:05:00 -0.7 C 94 % -1.54 C
3219 19-03-2019 04:10:00 -0.7 C 94 % -1.54 C
3220 19-03-2019 04:15:00 -0.7 C 94 % -1.54 C
3221 19-03-2019 04:20:00 -0.6 C 94 % -1.44 C
3222 19-03-2019 04:25:00 -0.6 C 94 % -1.44 C
3223 19-03-2019 04:30:00 -0.6 C 94 % -1.44 C
3224 19-03-2019 04:35:00 -0.7 C 94 % -1.54 C
3225 19-03-2019 04:40:00 -0.8 C 94 % -1.64 C
Sensor: Nr:Datum:Temp:Feuchte:Taupunkt:
Aussen-T/F 3226 19-03-2019 04:45:00 -0.8 C 94 % -1.64 C
3227 19-03-2019 04:50:00 -0.8 C 94 % -1.64 C
3228 19-03-2019 04:55:00 -0.8 C 94 % -1.64 C
3229 19-03-2019 05:00:00 -0.9 C 94 % -1.74 C
3230 19-03-2019 05:05:00 -1 C 94 % -1.84 C
3231 19-03-2019 05:10:00 -1 C 94 % -1.84 C
3232 19-03-2019 05:15:00 -1.1 C 94 % -1.94 C
3233 19-03-2019 05:20:00 -1.1 C 94 % -1.94 C
3234 19-03-2019 05:25:00 -1.1 C 94 % -1.94 C
3235 19-03-2019 05:30:00 -1.1 C 94 % -1.94 C
3236 19-03-2019 05:35:00 -1 C 95 % -1.7 C
3237 19-03-2019 05:40:00 -0.9 C 95 % -1.6 C
3238 19-03-2019 05:45:00 -0.9 C 95 % -1.6 C
3239 19-03-2019 05:50:00 -1.1 C 94 % -1.94 C
3240 19-03-2019 05:55:00 -1.2 C 94 % -2.04 C
3241 19-03-2019 06:00:00 -1.2 C 94 % -2.04 C
3242 19-03-2019 06:05:00 -1.3 C 94 % -2.14 C
3243 19-03-2019 06:10:00 -1.3 C 94 % -2.14 C
3244 19-03-2019 06:15:00 -1.3 C 95 % -2 C
3245 19-03-2019 06:20:00 -1.3 C 95 % -2 C
3246 19-03-2019 06:25:00 -1.3 C 94 % -2.14 C
3247 19-03-2019 06:30:00 -1.1 C 95 % -1.8 C
3248 19-03-2019 06:35:00 -1.1 C 95 % -1.8 C
3249 19-03-2019 06:40:00 -1.1 C 95 % -1.8 C
3250 19-03-2019 06:45:00 -1.1 C 95 % -1.8 C
Sensor: Nr:Datum:Temp:Feuchte:Taupunkt:
Aussen-T/F 3251 19-03-2019 06:50:00 -1.2 C 95 % -1.9 C
3252 19-03-2019 06:55:00 -1.1 C 95 % -1.8 C
3253 19-03-2019 07:00:00 -1 C 95 % -1.7 C
3254 19-03-2019 07:05:00 -0.9 C 95 % -1.6 C
3255 19-03-2019 07:10:00 -0.8 C 95 % -1.5 C
3256 19-03-2019 07:15:00 -0.7 C 95 % -1.4 C
3257 19-03-2019 07:20:00 -0.5 C 95 % -1.2 C
3258 19-03-2019 07:25:00 -0.4 C 95 % -1.1 C
3259 19-03-2019 07:30:00 -0.3 C 96 % -0.86 C
3260 19-03-2019 07:35:00 -0.2 C 95 % -0.9 C
3261 19-03-2019 07:40:00 -0.1 C 95 % -0.8 C
3262 19-03-2019 07:45:00 0.1 C 96 % -0.46 C
3263 19-03-2019 07:50:00 0.1 C 95 % -0.6 C
3264 19-03-2019 07:55:00 0.2 C 95 % -0.5 C
3265 19-03-2019 08:00:00 0.2 C 95 % -0.5 C
3266 19-03-2019 08:05:00 0.1 C 95 % -0.6 C
3267 19-03-2019 08:10:00 0.1 C 95 % -0.6 C
3268 19-03-2019 08:15:00 -0.1 C 95 % -0.8 C
3269 19-03-2019 08:20:00 -0.2 C 95 % -0.9 C
3270 19-03-2019 08:25:00 -0.2 C 95 % -0.9 C
3271 19-03-2019 08:30:00 -0.2 C 95 % -0.9 C
3272 19-03-2019 08:35:00 -0.2 C 95 % -0.9 C
3273 19-03-2019 08:40:00 -0.2 C 95 % -0.9 C
3274 19-03-2019 08:45:00 -0.1 C 95 % -0.8 C
3275 19-03-2019 08:50:00 0.1 C 95 % -0.6 C
Sensor: Nr:Datum:Temp:Feuchte:Taupunkt:
Aussen-T/F 3276 19-03-2019 08:55:00 0.2 C 95 % -0.5 C
3277 19-03-2019 09:00:00 0.2 C 95 % -0.5 C
3278 19-03-2019 09:05:00 0.3 C 95 % -0.4 C
3279 19-03-2019 09:10:00 0.4 C 95 % -0.31 C
3280 19-03-2019 09:15:00 0.5 C 95 % -0.21 C
3281 19-03-2019 09:20:00 0.6 C 95 % -0.11 C
3282 19-03-2019 09:25:00 0.6 C 95 % -0.11 C
3283 19-03-2019 09:30:00 0.7 C 95 % -0.01 C
3284 19-03-2019 09:35:00 0.7 C 95 % -0.01 C
3285 19-03-2019 09:40:00 0.8 C 95 % 0.09 C
3286 19-03-2019 09:45:00 0.9 C 95 % 0.19 C
3287 19-03-2019 09:50:00 1.1 C 95 % 0.39 C
3288 19-03-2019 09:55:00 1.3 C 96 % 0.73 C
3289 19-03-2019 10:00:00 1.5 C 95 % 0.79 C
3290 19-03-2019 10:05:00 1.7 C 95 % 0.99 C
3291 19-03-2019 10:10:00 1.8 C 95 % 1.09 C
3292 19-03-2019 10:15:00 1.9 C 95 % 1.19 C
3293 19-03-2019 10:20:00 2.2 C 95 % 1.48 C
3294 19-03-2019 10:25:00 2.3 C 95 % 1.58 C
3295 19-03-2019 10:30:00 2.5 C 95 % 1.78 C
3296 19-03-2019 10:35:00 2.6 C 94 % 1.73 C
3297 19-03-2019 10:40:00 2.7 C 94 % 1.83 C
3298 19-03-2019 10:45:00 2.8 C 94 % 1.93 C
3299 19-03-2019 10:50:00 3.1 C 94 % 2.23 C
3300 19-03-2019 10:55:00 3.3 C 94 % 2.43 C
Sensor: Nr:Datum:Temp:Feuchte:Taupunkt:
Aussen-T/F 3301 19-03-2019 11:00:00 3.7 C 94 % 2.83 C
3302 19-03-2019 11:05:00 3.8 C 94 % 2.93 C
3303 19-03-2019 11:10:00 4.1 C 94 % 3.22 C
3304 19-03-2019 11:15:00 4.3 C 94 % 3.42 C
3305 19-03-2019 11:20:00 4.6 C 92 % 3.42 C
3306 19-03-2019 11:25:00 4.9 C 91 % 3.56 C
3307 19-03-2019 11:30:00 5.3 C 88 % 3.48 C
3308 19-03-2019 11:35:00 5.6 C 81 % 2.6 C
3309 19-03-2019 11:40:00 5.9 C 80 % 2.72 C
3310 19-03-2019 11:45:00 6.3 C 79 % 2.93 C
3311 19-03-2019 11:50:00 6.4 C 76 % 2.49 C
3312 19-03-2019 11:55:00 6.6 C 73 % 2.12 C
3313 19-03-2019 12:00:00 6.7 C 73 % 2.21 C
3314 19-03-2019 12:05:00 6.8 C 72 % 2.12 C
3315 19-03-2019 12:10:00 6.9 C 72 % 2.21 C
3316 19-03-2019 12:15:00 7.1 C 72 % 2.4 C
3317 19-03-2019 12:20:00 7.1 C 69 % 1.81 C
3318 19-03-2019 12:25:00 7.2 C 69 % 1.9 C
3319 19-03-2019 12:30:00 7.4 C 68 % 1.89 C
3320 19-03-2019 12:35:00 7.5 C 66 % 1.57 C
3321 19-03-2019 12:40:00 7.6 C 65 % 1.45 C
3322 19-03-2019 12:45:00 7.6 C 65 % 1.45 C
3323 19-03-2019 12:50:00 7.7 C 67 % 1.97 C
3324 19-03-2019 12:55:00 7.9 C 66 % 1.95 C
3325 19-03-2019 13:00:00 8.2 C 64 % 1.81 C
Sensor: Nr:Datum:Temp:Feuchte:Taupunkt:
Aussen-T/F 3326 19-03-2019 13:05:00 8.3 C 62 % 1.46 C
3327 19-03-2019 13:10:00 8.5 C 61 % 1.42 C
3328 19-03-2019 13:15:00 8.7 C 61 % 1.61 C
3329 19-03-2019 13:20:00 8.8 C 59 % 1.24 C
3330 19-03-2019 13:25:00 9 C 57 % 0.95 C
3331 19-03-2019 13:30:00 9.1 C 57 % 1.04 C
3332 19-03-2019 13:35:00 9.1 C 56 % 0.8 C
3333 19-03-2019 13:40:00 9.2 C 57 % 1.14 C
3334 19-03-2019 13:45:00 9.3 C 56 % 0.99 C
3335 19-03-2019 13:50:00 9.4 C 55 % 0.83 C
3336 19-03-2019 13:55:00 9.6 C 57 % 1.51 C
3337 19-03-2019 14:00:00 9.8 C 57 % 1.7 C
3338 19-03-2019 14:05:00 9.8 C 57 % 1.7 C
3339 19-03-2019 14:10:00 9.8 C 58 % 1.94 C
3340 19-03-2019 14:15:00 9.9 C 56 % 1.55 C
3341 19-03-2019 14:20:00 9.9 C 57 % 1.79 C
3342 19-03-2019 14:25:00 10 C 56 % 1.64 C
3343 19-03-2019 14:30:00 10.1 C 57 % 1.98 C
3344 19-03-2019 14:35:00 10.2 C 58 % 2.32 C
3345 19-03-2019 14:40:00 10.2 C 55 % 1.58 C
3346 19-03-2019 14:45:00 10.1 C 55 % 1.48 C
3347 19-03-2019 14:50:00 10 C 55 % 1.39 C
3348 19-03-2019 14:55:00 9.9 C 57 % 1.79 C
3349 19-03-2019 15:00:00 9.9 C 59 % 2.27 C
3350 19-03-2019 15:05:00 9.9 C 57 % 1.79 C
Sensor: Nr:Datum:Temp:Feuchte:Taupunkt:
Aussen-T/F 3351 19-03-2019 15:10:00 9.9 C 55 % 1.3 C
3352 19-03-2019 15:15:00 9.9 C 57 % 1.79 C
3353 19-03-2019 15:20:00 9.9 C 53 % 0.78 C
3354 19-03-2019 15:25:00 9.9 C 53 % 0.78 C
3355 19-03-2019 15:30:00 10.1 C 51 % 0.44 C
3356 19-03-2019 15:35:00 10.3 C 52 % 0.89 C
3357 19-03-2019 15:40:00 10.4 C 51 % 0.71 C
3358 19-03-2019 15:45:00 10.5 C 50 % 0.53 C
3359 19-03-2019 15:50:00 10.5 C 51 % 0.81 C
3360 19-03-2019 15:55:00 10.6 C 50 % 0.62 C
3361 19-03-2019 16:00:00 10.7 C 50 % 0.72 C
3362 19-03-2019 16:05:00 10.8 C 50 % 0.81 C
3363 19-03-2019 16:10:00 10.9 C 50 % 0.9 C
3364 19-03-2019 16:15:00 11.1 C 52 % 1.63 C
3365 19-03-2019 16:20:00 11.2 C 49 % 0.9 C
3366 19-03-2019 16:25:00 11.3 C 53 % 2.08 C
3367 19-03-2019 16:30:00 11.7 C 51 % 1.91 C
3368 19-03-2019 16:35:00 12 C 47 % 1.05 C
3369 19-03-2019 16:40:00 12.1 C 46 % 0.85 C
3370 19-03-2019 16:45:00 12.1 C 46 % 0.85 C
3371 19-03-2019 16:50:00 12.2 C 44 % 0.32 C
3372 19-03-2019 16:55:00 12.1 C 44 % 0.23 C
3373 19-03-2019 17:00:00 11.9 C 43 % -0.27 C
3374 19-03-2019 17:05:00 11.8 C 45 % 0.27 C
3375 19-03-2019 17:10:00 11.9 C 44 % 0.05 C
Sensor: Nr:Datum:Temp:Feuchte:Taupunkt:
Aussen-T/F 3376 19-03-2019 17:15:00 12.1 C 47 % 1.14 C
3377 19-03-2019 17:20:00 12.2 C 46 % 0.94 C
3378 19-03-2019 17:25:00 12.3 C 44 % 0.41 C
3379 19-03-2019 17:30:00 12.3 C 45 % 0.72 C
3380 19-03-2019 17:35:00 12.2 C 45 % 0.63 C
3381 19-03-2019 17:40:00 11.9 C 45 % 0.36 C
3382 19-03-2019 17:45:00 11.8 C 47 % 0.87 C
3383 19-03-2019 17:50:00 11.9 C 45 % 0.36 C
3384 19-03-2019 17:55:00 11.8 C 48 % 1.16 C
3385 19-03-2019 18:00:00 11.8 C 47 % 0.87 C
3386 19-03-2019 18:05:00 11.7 C 53 % 2.45 C
3387 19-03-2019 18:10:00 11.6 C 56 % 3.13 C
3388 19-03-2019 18:15:00 11.4 C 56 % 2.95 C
3389 19-03-2019 18:20:00 11 C 54 % 2.06 C
3390 19-03-2019 18:25:00 10.3 C 57 % 2.17 C
3391 19-03-2019 18:30:00 9.5 C 60 % 2.13 C
3392 19-03-2019 18:35:00 8.8 C 64 % 2.38 C
3393 19-03-2019 18:40:00 8.2 C 67 % 2.45 C
3394 19-03-2019 18:45:00 7.6 C 70 % 2.49 C
3395 19-03-2019 18:50:00 7.1 C 72 % 2.4 C
3396 19-03-2019 18:55:00 6.8 C 73 % 2.31 C
3397 19-03-2019 19:00:00 6.5 C 73 % 2.02 C
3398 19-03-2019 19:05:00 6.2 C 74 % 1.92 C
3399 19-03-2019 19:10:00 6.1 C 75 % 2.01 C
3400 19-03-2019 19:15:00 5.9 C 76 % 2 C
Sensor: Nr:Datum:Temp:Feuchte:Taupunkt:
Aussen-T/F 3401 19-03-2019 19:20:00 5.7 C 77 % 1.99 C
3402 19-03-2019 19:25:00 5.6 C 78 % 2.07 C
3403 19-03-2019 19:30:00 5.4 C 78 % 1.88 C
3404 19-03-2019 19:35:00 5.3 C 79 % 1.96 C
3405 19-03-2019 19:40:00 5.2 C 79 % 1.86 C
3406 19-03-2019 19:45:00 5.1 C 79 % 1.77 C
3407 19-03-2019 19:50:00 5.1 C 79 % 1.77 C
3408 19-03-2019 19:55:00 5.1 C 79 % 1.77 C
3409 19-03-2019 20:00:00 5 C 79 % 1.67 C
3410 19-03-2019 20:05:00 4.8 C 79 % 1.47 C
3411 19-03-2019 20:10:00 4.8 C 80 % 1.65 C
3412 19-03-2019 20:15:00 4.7 C 80 % 1.55 C
3413 19-03-2019 20:20:00 4.6 C 81 % 1.63 C
3414 19-03-2019 20:25:00 4.4 C 81 % 1.43 C
3415 19-03-2019 20:30:00 4.3 C 82 % 1.51 C
3416 19-03-2019 20:35:00 4.2 C 82 % 1.41 C
3417 19-03-2019 20:40:00 4.2 C 83 % 1.58 C
3418 19-03-2019 20:45:00 4.1 C 84 % 1.65 C
3419 19-03-2019 20:50:00 3.9 C 83 % 1.28 C
3420 19-03-2019 20:55:00 3.8 C 84 % 1.35 C
3421 19-03-2019 21:00:00 3.7 C 85 % 1.42 C
3422 19-03-2019 21:05:00 3.6 C 85 % 1.32 C
3423 19-03-2019 21:10:00 3.6 C 85 % 1.32 C
3424 19-03-2019 21:15:00 3.4 C 85 % 1.12 C
3425 19-03-2019 21:20:00 3.3 C 85 % 1.03 C
Sensor: Nr:Datum:Temp:Feuchte:Taupunkt:
Aussen-T/F 3426 19-03-2019 21:25:00 3.3 C 85 % 1.03 C
3427 19-03-2019 21:30:00 3.1 C 85 % 0.83 C
3428 19-03-2019 21:35:00 2.9 C 85 % 0.63 C
3429 19-03-2019 21:40:00 2.8 C 85 % 0.54 C
3430 19-03-2019 21:45:00 2.6 C 84 % 0.18 C
3431 19-03-2019 21:50:00 2.5 C 85 % 0.24 C
3432 19-03-2019 21:55:00 2.4 C 86 % 0.3 C
3433 19-03-2019 22:00:00 2.4 C 86 % 0.3 C
3434 19-03-2019 22:05:00 2.3 C 86 % 0.21 C
3435 19-03-2019 22:10:00 2.2 C 86 % 0.11 C
3436 19-03-2019 22:15:00 2.1 C 86 % 0.01 C
3437 19-03-2019 22:20:00 2.1 C 87 % 0.17 C
3438 19-03-2019 22:25:00 1.9 C 87 % -0.03 C
3439 19-03-2019 22:30:00 1.8 C 87 % -0.13 C
3440 19-03-2019 22:35:00 1.9 C 87 % -0.03 C
3441 19-03-2019 22:40:00 1.9 C 88 % 0.13 C
3442 19-03-2019 22:45:00 1.9 C 88 % 0.13 C
3443 19-03-2019 22:50:00 1.9 C 88 % 0.13 C
3444 19-03-2019 22:55:00 1.9 C 88 % 0.13 C
3445 19-03-2019 23:00:00 1.8 C 88 % 0.03 C
3446 19-03-2019 23:05:00 1.8 C 88 % 0.03 C
3447 19-03-2019 23:10:00 1.7 C 88 % -0.07 C
3448 19-03-2019 23:15:00 1.7 C 88 % -0.07 C
3449 19-03-2019 23:20:00 1.8 C 88 % 0.03 C
3450 19-03-2019 23:25:00 1.9 C 88 % 0.13 C
Sensor: Nr:Datum:Temp:Feuchte:Taupunkt:
Aussen-T/F 3451 19-03-2019 23:30:00 1.8 C 87 % -0.13 C
3452 19-03-2019 23:35:00 1.7 C 87 % -0.23 C
3453 19-03-2019 23:40:00 1.7 C 87 % -0.23 C
3454 19-03-2019 23:45:00 1.6 C 88 % -0.17 C
3455 19-03-2019 23:50:00 1.4 C 88 % -0.36 C
3456 19-03-2019 23:55:00 1.3 C 88 % -0.46 C
3457 20-03-2019 00:00:00 1.2 C 88 % -0.56 C
3458 20-03-2019 00:05:00 1.2 C 89 % -0.41 C
3459 20-03-2019 00:10:00 1.2 C 89 % -0.41 C
3460 20-03-2019 00:15:00 1.1 C 89 % -0.51 C
3461 20-03-2019 00:20:00 0.9 C 88 % -0.86 C
3462 20-03-2019 00:25:00 0.8 C 89 % -0.8 C
3463 20-03-2019 00:30:00 0.7 C 89 % -0.9 C
3464 20-03-2019 00:35:00 0.6 C 89 % -1 C
3465 20-03-2019 00:40:00 0.6 C 90 % -0.85 C
3466 20-03-2019 00:45:00 0.5 C 90 % -0.95 C
3467 20-03-2019 00:50:00 0.4 C 90 % -1.04 C
3468 20-03-2019 00:55:00 0.4 C 90 % -1.04 C
3469 20-03-2019 01:00:00 0.4 C 90 % -1.04 C
3470 20-03-2019 01:05:00 0.4 C 91 % -0.89 C
3471 20-03-2019 01:10:00 0.5 C 91 % -0.79 C
3472 20-03-2019 01:15:00 0.5 C 91 % -0.79 C
3473 20-03-2019 01:20:00 0.4 C 91 % -0.89 C
3474 20-03-2019 01:25:00 0.4 C 91 % -0.89 C
3475 20-03-2019 01:30:00 0.4 C 91 % -0.89 C
Sensor: Nr:Datum:Temp:Feuchte:Taupunkt:
Aussen-T/F 3476 20-03-2019 01:35:00 0.4 C 91 % -0.89 C
3477 20-03-2019 01:40:00 0.3 C 91 % -0.99 C
3478 20-03-2019 01:45:00 0.3 C 91 % -0.99 C
3479 20-03-2019 01:50:00 0.2 C 91 % -1.09 C
3480 20-03-2019 01:55:00 0.1 C 90 % -1.34 C
3481 20-03-2019 02:00:00 -0.1 C 91 % -1.39 C
3482 20-03-2019 02:05:00 -0.1 C 91 % -1.39 C
3483 20-03-2019 02:10:00 -0.1 C 91 % -1.39 C
3484 20-03-2019 02:15:00 0 C 92 % -1.14 C
3485 20-03-2019 02:20:00 -0.1 C 91 % -1.39 C
3486 20-03-2019 02:25:00 -0.2 C 91 % -1.49 C
3487 20-03-2019 02:30:00 -0.2 C 91 % -1.49 C
3488 20-03-2019 02:35:00 -0.3 C 91 % -1.59 C
3489 20-03-2019 02:40:00 -0.3 C 92 % -1.44 C
3490 20-03-2019 02:45:00 -0.2 C 92 % -1.34 C
3491 20-03-2019 02:50:00 -0.2 C 92 % -1.34 C
3492 20-03-2019 02:55:00 -0.2 C 92 % -1.34 C
3493 20-03-2019 03:00:00 -0.3 C 92 % -1.44 C
3494 20-03-2019 03:05:00 -0.4 C 92 % -1.54 C
3495 20-03-2019 03:10:00 -0.4 C 92 % -1.54 C
3496 20-03-2019 03:15:00 -0.4 C 92 % -1.54 C
3497 20-03-2019 03:20:00 -0.4 C 92 % -1.54 C
3498 20-03-2019 03:25:00 -0.5 C 92 % -1.64 C
3499 20-03-2019 03:30:00 -0.6 C 92 % -1.74 C
3500 20-03-2019 03:35:00 -0.7 C 92 % -1.83 C
Sensor: Nr:Datum:Temp:Feuchte:Taupunkt:
Aussen-T/F 3501 20-03-2019 03:40:00 -0.7 C 92 % -1.83 C
3502 20-03-2019 03:45:00 -0.7 C 92 % -1.83 C
3503 20-03-2019 03:50:00 -0.7 C 92 % -1.83 C
3504 20-03-2019 03:55:00 -0.8 C 92 % -1.93 C
3505 20-03-2019 04:00:00 -0.8 C 92 % -1.93 C
3506 20-03-2019 04:05:00 -0.8 C 92 % -1.93 C
3507 20-03-2019 04:10:00 -0.9 C 92 % -2.03 C
3508 20-03-2019 04:15:00 -0.9 C 93 % -1.89 C
3509 20-03-2019 04:20:00 -0.9 C 93 % -1.89 C
3510 20-03-2019 04:25:00 -0.9 C 93 % -1.89 C
3511 20-03-2019 04:30:00 -1 C 93 % -1.99 C
3512 20-03-2019 04:35:00 -1 C 93 % -1.99 C
3513 20-03-2019 04:40:00 -1 C 93 % -1.99 C
3514 20-03-2019 04:45:00 -0.9 C 93 % -1.89 C
3515 20-03-2019 04:50:00 -0.9 C 93 % -1.89 C
3516 20-03-2019 04:55:00 -0.9 C 93 % -1.89 C
3517 20-03-2019 05:00:00 -0.9 C 93 % -1.89 C
3518 20-03-2019 05:05:00 -1 C 93 % -1.99 C
3519 20-03-2019 05:10:00 -1 C 93 % -1.99 C
3520 20-03-2019 05:15:00 -1.1 C 93 % -2.09 C
3521 20-03-2019 05:20:00 -1.1 C 93 % -2.09 C
3522 20-03-2019 05:25:00 -1.2 C 93 % -2.18 C
3523 20-03-2019 05:30:00 -1.2 C 93 % -2.18 C
3524 20-03-2019 05:35:00 -1.2 C 93 % -2.18 C
3525 20-03-2019 05:40:00 -1.1 C 94 % -1.94 C
Sensor: Nr:Datum:Temp:Feuchte:Taupunkt:
Aussen-T/F 3526 20-03-2019 05:45:00 -1.1 C 93 % -2.09 C
3527 20-03-2019 05:50:00 -1.2 C 93 % -2.18 C
3528 20-03-2019 05:55:00 -1.2 C 93 % -2.18 C
3529 20-03-2019 06:00:00 -1.3 C 93 % -2.28 C
3530 20-03-2019 06:05:00 -1.3 C 93 % -2.28 C
3531 20-03-2019 06:10:00 -1.3 C 93 % -2.28 C
3532 20-03-2019 06:15:00 -1.3 C 94 % -2.14 C
3533 20-03-2019 06:20:00 -1.2 C 94 % -2.04 C
3534 20-03-2019 06:25:00 -1.1 C 94 % -1.94 C
3535 20-03-2019 06:30:00 -1.1 C 94 % -1.94 C
3536 20-03-2019 06:35:00 -1.1 C 94 % -1.94 C
3537 20-03-2019 06:40:00 -1.2 C 94 % -2.04 C
3538 20-03-2019 06:45:00 -1.2 C 94 % -2.04 C
3539 20-03-2019 06:50:00 -1.3 C 94 % -2.14 C
3540 20-03-2019 06:55:00 -1.3 C 94 % -2.14 C
3541 20-03-2019 07:00:00 -1.2 C 94 % -2.04 C
3542 20-03-2019 07:05:00 -1.2 C 94 % -2.04 C
3543 20-03-2019 07:10:00 -1.2 C 94 % -2.04 C
3544 20-03-2019 07:15:00 -1.2 C 94 % -2.04 C
3545 20-03-2019 07:20:00 -1.1 C 94 % -1.94 C
3546 20-03-2019 07:25:00 -1.1 C 94 % -1.94 C
3547 20-03-2019 07:30:00 -1.1 C 94 % -1.94 C
3548 20-03-2019 07:35:00 -1 C 94 % -1.84 C
3549 20-03-2019 07:40:00 -1.1 C 94 % -1.94 C
3550 20-03-2019 07:45:00 -1 C 94 % -1.84 C
Sensor: Nr:Datum:Temp:Feuchte:Taupunkt:
Aussen-T/F 3551 20-03-2019 07:50:00 -0.9 C 94 % -1.74 C
3552 20-03-2019 07:55:00 -0.9 C 94 % -1.74 C
3553 20-03-2019 08:00:00 -0.9 C 94 % -1.74 C
3554 20-03-2019 08:05:00 -0.9 C 94 % -1.74 C
3555 20-03-2019 08:10:00 -0.9 C 94 % -1.74 C
3556 20-03-2019 08:15:00 -0.9 C 94 % -1.74 C
3557 20-03-2019 08:20:00 -0.8 C 94 % -1.64 C
3558 20-03-2019 08:25:00 -0.8 C 94 % -1.64 C
3559 20-03-2019 08:30:00 -0.7 C 95 % -1.4 C
3560 20-03-2019 08:35:00 -0.6 C 95 % -1.3 C
3561 20-03-2019 08:40:00 -0.6 C 95 % -1.3 C
3562 20-03-2019 08:45:00 -0.4 C 95 % -1.1 C
3563 20-03-2019 08:50:00 -0.3 C 95 % -1 C
3564 20-03-2019 08:55:00 -0.3 C 95 % -1 C
3565 20-03-2019 09:00:00 -0.2 C 95 % -0.9 C
3566 20-03-2019 09:05:00 -0.1 C 95 % -0.8 C
3567 20-03-2019 09:10:00 0.1 C 95 % -0.6 C
3568 20-03-2019 09:15:00 0.2 C 95 % -0.5 C
3569 20-03-2019 09:20:00 0.3 C 95 % -0.4 C
3570 20-03-2019 09:25:00 0.4 C 95 % -0.31 C
3571 20-03-2019 09:30:00 0.6 C 95 % -0.11 C
3572 20-03-2019 09:35:00 0.7 C 95 % -0.01 C
3573 20-03-2019 09:40:00 0.8 C 95 % 0.09 C
3574 20-03-2019 09:45:00 1.1 C 95 % 0.39 C
3575 20-03-2019 09:50:00 1.3 C 95 % 0.59 C
Sensor: Nr:Datum:Temp:Feuchte:Taupunkt:
Aussen-T/F 3576 20-03-2019 09:55:00 1.7 C 95 % 0.99 C
3577 20-03-2019 10:00:00 2.1 C 95 % 1.38 C
3578 20-03-2019 10:05:00 2.6 C 95 % 1.88 C
3579 20-03-2019 10:10:00 3.1 C 94 % 2.23 C
3580 20-03-2019 10:15:00 3.4 C 94 % 2.53 C
3581 20-03-2019 10:20:00 3.8 C 93 % 2.77 C
3582 20-03-2019 10:25:00 4.1 C 92 % 2.92 C
3583 20-03-2019 10:30:00 4.3 C 90 % 2.81 C
3584 20-03-2019 10:35:00 4.7 C 89 % 3.05 C
3585 20-03-2019 10:40:00 5.1 C 87 % 3.12 C
3586 20-03-2019 10:45:00 5.6 C 86 % 3.45 C
3587 20-03-2019 10:50:00 6 C 83 % 3.34 C
3588 20-03-2019 10:55:00 6.4 C 81 % 3.38 C
3589 20-03-2019 11:00:00 6.8 C 78 % 3.24 C
3590 20-03-2019 11:05:00 7.1 C 78 % 3.53 C
3591 20-03-2019 11:10:00 7.4 C 77 % 3.64 C
3592 20-03-2019 11:15:00 7.8 C 76 % 3.84 C
3593 20-03-2019 11:20:00 8.2 C 73 % 3.66 C
3594 20-03-2019 11:25:00 8.7 C 71 % 3.74 C
3595 20-03-2019 11:30:00 9.2 C 69 % 3.82 C
3596 20-03-2019 11:35:00 9.6 C 67 % 3.78 C
3597 20-03-2019 11:40:00 10 C 64 % 3.51 C
3598 20-03-2019 11:45:00 10.3 C 61 % 3.12 C
3599 20-03-2019 11:50:00 10.6 C 59 % 2.93 C
3600 20-03-2019 11:55:00 10.8 C 59 % 3.12 C
Sensor: Nr:Datum:Temp:Feuchte:Taupunkt:
Aussen-T/F 3601 20-03-2019 12:00:00 11 C 59 % 3.31 C
3602 20-03-2019 12:05:00 11.1 C 58 % 3.16 C
3603 20-03-2019 12:10:00 11.2 C 58 % 3.25 C
3604 20-03-2019 12:15:00 11.3 C 57 % 3.1 C
3605 20-03-2019 12:20:00 11.4 C 58 % 3.44 C
3606 20-03-2019 12:25:00 11.6 C 58 % 3.63 C
3607 20-03-2019 12:30:00 11.8 C 56 % 3.32 C
3608 20-03-2019 12:35:00 11.8 C 56 % 3.32 C
3609 20-03-2019 12:40:00 12 C 56 % 3.51 C
3610 20-03-2019 12:45:00 12.1 C 53 % 2.82 C
3611 20-03-2019 12:50:00 12.1 C 54 % 3.09 C
3612 20-03-2019 12:55:00 12.2 C 56 % 3.69 C
3613 20-03-2019 13:00:00 12.3 C 54 % 3.27 C
3614 20-03-2019 13:05:00 12.6 C 54 % 3.55 C
3615 20-03-2019 13:10:00 12.8 C 55 % 4 C
3616 20-03-2019 13:15:00 13 C 51 % 3.11 C
3617 20-03-2019 13:20:00 13.2 C 49 % 2.73 C
3618 20-03-2019 13:25:00 13.2 C 50 % 3.02 C
3619 20-03-2019 13:30:00 13.2 C 46 % 1.85 C
3620 20-03-2019 13:35:00 13.3 C 44 % 1.32 C
3621 20-03-2019 13:40:00 13.4 C 46 % 2.03 C
3622 20-03-2019 13:45:00 13.6 C 45 % 1.91 C
3623 20-03-2019 13:50:00 13.6 C 43 % 1.27 C
3624 20-03-2019 13:55:00 13.7 C 43 % 1.36 C
3625 20-03-2019 14:00:00 13.8 C 43 % 1.45 C
Sensor: Nr:Datum:Temp:Feuchte:Taupunkt:
Aussen-T/F 3626 20-03-2019 14:05:00 13.8 C 47 % 2.7 C
3627 20-03-2019 14:10:00 13.8 C 48 % 2.99 C
3628 20-03-2019 14:15:00 13.8 C 45 % 2.09 C
3629 20-03-2019 14:20:00 13.8 C 47 % 2.7 C
3630 20-03-2019 14:25:00 13.8 C 47 % 2.7 C
3631 20-03-2019 14:30:00 13.8 C 46 % 2.4 C
3632 20-03-2019 14:35:00 13.8 C 47 % 2.7 C
3633 20-03-2019 14:40:00 13.8 C 46 % 2.4 C
3634 20-03-2019 14:45:00 13.7 C 48 % 2.9 C
3635 20-03-2019 14:50:00 13.6 C 46 % 2.21 C
3636 20-03-2019 14:55:00 13.6 C 47 % 2.51 C
3637 20-03-2019 15:00:00 13.5 C 48 % 2.72 C
3638 20-03-2019 15:05:00 13.6 C 47 % 2.51 C
3639 20-03-2019 15:10:00 13.6 C 48 % 2.81 C
3640 20-03-2019 15:15:00 13.6 C 48 % 2.81 C
3641 20-03-2019 15:20:00 13.6 C 47 % 2.51 C
3642 20-03-2019 15:25:00 13.6 C 47 % 2.51 C
3643 20-03-2019 15:30:00 13.6 C 48 % 2.81 C
3644 20-03-2019 15:35:00 13.6 C 47 % 2.51 C
3645 20-03-2019 15:40:00 13.7 C 48 % 2.9 C
3646 20-03-2019 15:45:00 13.7 C 49 % 3.19 C
3647 20-03-2019 15:50:00 13.8 C 47 % 2.7 C
3648 20-03-2019 15:55:00 13.8 C 47 % 2.7 C
3649 20-03-2019 16:00:00 13.8 C 48 % 2.99 C
3650 20-03-2019 16:05:00 13.8 C 47 % 2.7 C
Sensor: Nr:Datum:Temp:Feuchte:Taupunkt:
Aussen-T/F 3651 20-03-2019 16:10:00 13.9 C 48 % 3.08 C
3652 20-03-2019 16:15:00 14 C 49 % 3.47 C
3653 20-03-2019 16:20:00 14 C 48 % 3.18 C
3654 20-03-2019 16:25:00 14.1 C 49 % 3.56 C
3655 20-03-2019 16:30:00 14.1 C 49 % 3.56 C
3656 20-03-2019 16:35:00 14.3 C 49 % 3.74 C
3657 20-03-2019 16:40:00 14.4 C 48 % 3.54 C
3658 20-03-2019 16:45:00 14.4 C 48 % 3.54 C
3659 20-03-2019 16:50:00 14.3 C 47 % 3.15 C
3660 20-03-2019 16:55:00 14.3 C 49 % 3.74 C
3661 20-03-2019 17:00:00 14.6 C 49 % 4.02 C
3662 20-03-2019 17:05:00 14.9 C 49 % 4.29 C
3663 20-03-2019 17:10:00 15 C 46 % 3.49 C
3664 20-03-2019 17:15:00 14.9 C 46 % 3.4 C
3665 20-03-2019 17:20:00 14.8 C 46 % 3.31 C
3666 20-03-2019 17:25:00 14.7 C 47 % 3.52 C
3667 20-03-2019 17:30:00 14.7 C 47 % 3.52 C
3668 20-03-2019 17:35:00 14.8 C 48 % 3.91 C
3669 20-03-2019 17:40:00 14.8 C 54 % 5.59 C
3670 20-03-2019 17:45:00 14.9 C 53 % 5.42 C
3671 20-03-2019 17:50:00 15 C 54 % 5.78 C
3672 20-03-2019 17:55:00 14.9 C 55 % 5.95 C
3673 20-03-2019 18:00:00 14.7 C 56 % 6.02 C
3674 20-03-2019 18:05:00 14.4 C 57 % 6 C
3675 20-03-2019 18:10:00 13.7 C 58 % 5.6 C
Sensor: Nr:Datum:Temp:Feuchte:Taupunkt:
Aussen-T/F 3676 20-03-2019 18:15:00 13.1 C 59 % 5.28 C
3677 20-03-2019 18:20:00 12.6 C 61 % 5.29 C
3678 20-03-2019 18:25:00 12.1 C 64 % 5.51 C
3679 20-03-2019 18:30:00 11.5 C 65 % 5.16 C
3680 20-03-2019 18:35:00 10.9 C 66 % 4.81 C
3681 20-03-2019 18:40:00 10.4 C 67 % 4.55 C
3682 20-03-2019 18:45:00 10.1 C 68 % 4.47 C
3683 20-03-2019 18:50:00 9.7 C 69 % 4.3 C
3684 20-03-2019 18:55:00 9.4 C 70 % 4.21 C
3685 20-03-2019 19:00:00 9.3 C 71 % 4.32 C
3686 20-03-2019 19:05:00 9.1 C 71 % 4.13 C
3687 20-03-2019 19:10:00 9 C 72 % 4.23 C
3688 20-03-2019 19:15:00 8.8 C 72 % 4.04 C
3689 20-03-2019 19:20:00 8.6 C 73 % 4.04 C
3690 20-03-2019 19:25:00 8.5 C 73 % 3.95 C
3691 20-03-2019 19:30:00 8.4 C 73 % 3.85 C
3692 20-03-2019 19:35:00 8.3 C 74 % 3.95 C
3693 20-03-2019 19:40:00 8.2 C 75 % 4.04 C
3694 20-03-2019 19:45:00 8.1 C 75 % 3.94 C
3695 20-03-2019 19:50:00 7.9 C 75 % 3.75 C
3696 20-03-2019 19:55:00 7.8 C 76 % 3.84 C
3697 20-03-2019 20:00:00 7.7 C 77 % 3.93 C
3698 20-03-2019 20:05:00 7.5 C 78 % 3.92 C
3699 20-03-2019 20:10:00 7.3 C 78 % 3.73 C
3700 20-03-2019 20:15:00 7.2 C 78 % 3.63 C
Sensor: Nr:Datum:Temp:Feuchte:Taupunkt:
Aussen-T/F 3701 20-03-2019 20:20:00 7.1 C 78 % 3.53 C
3702 20-03-2019 20:25:00 7 C 79 % 3.61 C
3703 20-03-2019 20:30:00 6.8 C 79 % 3.42 C
3704 20-03-2019 20:35:00 6.6 C 79 % 3.23 C
3705 20-03-2019 20:40:00 6.4 C 80 % 3.21 C
3706 20-03-2019 20:45:00 6.3 C 81 % 3.29 C
3707 20-03-2019 20:50:00 6.2 C 82 % 3.36 C
3708 20-03-2019 20:55:00 6.1 C 82 % 3.26 C
3709 20-03-2019 21:00:00 6 C 82 % 3.17 C
3710 20-03-2019 21:05:00 5.8 C 83 % 3.14 C
3711 20-03-2019 21:10:00 5.7 C 84 % 3.21 C
3712 20-03-2019 21:15:00 5.5 C 83 % 2.85 C
3713 20-03-2019 21:20:00 5.4 C 83 % 2.75 C
3714 20-03-2019 21:25:00 5.4 C 83 % 2.75 C
3715 20-03-2019 21:30:00 5.4 C 83 % 2.75 C
3716 20-03-2019 21:35:00 5.3 C 83 % 2.65 C
3717 20-03-2019 21:40:00 5.3 C 84 % 2.82 C
3718 20-03-2019 21:45:00 5.2 C 85 % 2.89 C
3719 20-03-2019 21:50:00 5.1 C 85 % 2.79 C
3720 20-03-2019 21:55:00 5.1 C 86 % 2.96 C
3721 20-03-2019 22:00:00 5 C 85 % 2.69 C
3722 20-03-2019 22:05:00 4.9 C 85 % 2.6 C
3723 20-03-2019 22:10:00 4.8 C 85 % 2.5 C
3724 20-03-2019 22:15:00 4.8 C 85 % 2.5 C
3725 20-03-2019 22:20:00 4.8 C 86 % 2.66 C
Sensor: Nr:Datum:Temp:Feuchte:Taupunkt:
Aussen-T/F 3726 20-03-2019 22:25:00 4.8 C 86 % 2.66 C
3727 20-03-2019 22:30:00 4.8 C 86 % 2.66 C
3728 20-03-2019 22:35:00 4.7 C 85 % 2.4 C
3729 20-03-2019 22:40:00 4.6 C 86 % 2.47 C
3730 20-03-2019 22:45:00 4.6 C 86 % 2.47 C
3731 20-03-2019 22:50:00 4.6 C 86 % 2.47 C
3732 20-03-2019 22:55:00 4.3 C 85 % 2.01 C
3733 20-03-2019 23:00:00 4.2 C 86 % 2.07 C
3734 20-03-2019 23:05:00 4.1 C 86 % 1.97 C
3735 20-03-2019 23:10:00 3.9 C 87 % 1.94 C
3736 20-03-2019 23:15:00 3.9 C 87 % 1.94 C
3737 20-03-2019 23:20:00 3.8 C 87 % 1.84 C
3738 20-03-2019 23:25:00 3.8 C 88 % 2 C
3739 20-03-2019 23:30:00 3.8 C 88 % 2 C
3740 20-03-2019 23:35:00 3.8 C 88 % 2 C
3741 20-03-2019 23:40:00 3.7 C 88 % 1.9 C
3742 20-03-2019 23:45:00 3.7 C 88 % 1.9 C
3743 20-03-2019 23:50:00 3.6 C 88 % 1.8 C
3744 20-03-2019 23:55:00 3.5 C 88 % 1.7 C
3745 21-03-2019 00:00:00 3.4 C 88 % 1.61 C
3746 21-03-2019 00:05:00 3.5 C 89 % 1.86 C
3747 21-03-2019 00:10:00 3.5 C 89 % 1.86 C
3748 21-03-2019 00:15:00 3.4 C 88 % 1.61 C
3749 21-03-2019 00:20:00 3.3 C 88 % 1.51 C
3750 21-03-2019 00:25:00 3.3 C 88 % 1.51 C
Sensor: Nr:Datum:Temp:Feuchte:Taupunkt:
Aussen-T/F 3751 21-03-2019 00:30:00 3.3 C 89 % 1.67 C
3752 21-03-2019 00:35:00 3.3 C 89 % 1.67 C
3753 21-03-2019 00:40:00 3.2 C 89 % 1.57 C
3754 21-03-2019 00:45:00 3.2 C 89 % 1.57 C
3755 21-03-2019 00:50:00 3.2 C 89 % 1.57 C
3756 21-03-2019 00:55:00 3.2 C 89 % 1.57 C
3757 21-03-2019 01:00:00 3.1 C 88 % 1.31 C
3758 21-03-2019 01:05:00 2.9 C 88 % 1.11 C
3759 21-03-2019 01:10:00 2.8 C 89 % 1.17 C
3760 21-03-2019 01:15:00 2.7 C 88 % 0.92 C
3761 21-03-2019 01:20:00 2.6 C 89 % 0.97 C
3762 21-03-2019 01:25:00 2.6 C 89 % 0.97 C
3763 21-03-2019 01:30:00 2.4 C 89 % 0.78 C
3764 21-03-2019 01:35:00 2.4 C 90 % 0.93 C
3765 21-03-2019 01:40:00 2.3 C 89 % 0.68 C
3766 21-03-2019 01:45:00 2.3 C 90 % 0.83 C
3767 21-03-2019 01:50:00 2.3 C 90 % 0.83 C
3768 21-03-2019 01:55:00 2.2 C 90 % 0.73 C
3769 21-03-2019 02:00:00 2 C 90 % 0.54 C
3770 21-03-2019 02:05:00 1.9 C 90 % 0.44 C
3771 21-03-2019 02:10:00 1.8 C 90 % 0.34 C
3772 21-03-2019 02:15:00 1.8 C 91 % 0.49 C
3773 21-03-2019 02:20:00 1.8 C 91 % 0.49 C
3774 21-03-2019 02:25:00 1.8 C 91 % 0.49 C
3775 21-03-2019 02:30:00 1.8 C 91 % 0.49 C
Sensor: Nr:Datum:Temp:Feuchte:Taupunkt:
Aussen-T/F 3776 21-03-2019 02:35:00 1.9 C 92 % 0.74 C
3777 21-03-2019 02:40:00 1.9 C 92 % 0.74 C
3778 21-03-2019 02:45:00 1.8 C 91 % 0.49 C
3779 21-03-2019 02:50:00 1.7 C 91 % 0.39 C
3780 21-03-2019 02:55:00 1.6 C 91 % 0.29 C
3781 21-03-2019 03:00:00 1.6 C 91 % 0.29 C
3782 21-03-2019 03:05:00 1.5 C 91 % 0.19 C
3783 21-03-2019 03:10:00 1.5 C 92 % 0.35 C
3784 21-03-2019 03:15:00 1.4 C 92 % 0.25 C
3785 21-03-2019 03:20:00 1.4 C 92 % 0.25 C
3786 21-03-2019 03:25:00 1.3 C 92 % 0.15 C
3787 21-03-2019 03:30:00 1.2 C 92 % 0.05 C
3788 21-03-2019 03:35:00 1.2 C 92 % 0.05 C
3789 21-03-2019 03:40:00 1.2 C 92 % 0.05 C
3790 21-03-2019 03:45:00 1.2 C 92 % 0.05 C
3791 21-03-2019 03:50:00 1.1 C 92 % -0.05 C
3792 21-03-2019 03:55:00 1.1 C 92 % -0.05 C
3793 21-03-2019 04:00:00 1.1 C 93 % 0.1 C
3794 21-03-2019 04:05:00 1 C 93 % 0 C
3795 21-03-2019 04:10:00 0.9 C 92 % -0.25 C
3796 21-03-2019 04:15:00 0.9 C 93 % -0.1 C
3797 21-03-2019 04:20:00 0.9 C 93 % -0.1 C
3798 21-03-2019 04:25:00 1 C 93 % 0 C
3799 21-03-2019 04:30:00 1.1 C 93 % 0.1 C
3800 21-03-2019 04:35:00 1.2 C 93 % 0.2 C
Sensor: Nr:Datum:Temp:Feuchte:Taupunkt:
Aussen-T/F 3801 21-03-2019 04:40:00 1.2 C 93 % 0.2 C
3802 21-03-2019 04:45:00 1.1 C 93 % 0.1 C
3803 21-03-2019 04:50:00 0.8 C 92 % -0.35 C
3804 21-03-2019 04:55:00 0.7 C 93 % -0.3 C
3805 21-03-2019 05:00:00 0.7 C 93 % -0.3 C
3806 21-03-2019 05:05:00 0.7 C 93 % -0.3 C
3807 21-03-2019 05:10:00 0.6 C 93 % -0.4 C
3808 21-03-2019 05:15:00 0.6 C 93 % -0.4 C
3809 21-03-2019 05:20:00 0.7 C 94 % -0.15 C
3810 21-03-2019 05:25:00 0.7 C 94 % -0.15 C
3811 21-03-2019 05:30:00 0.8 C 94 % -0.05 C
3812 21-03-2019 05:35:00 0.7 C 94 % -0.15 C
3813 21-03-2019 05:40:00 0.6 C 93 % -0.4 C
3814 21-03-2019 05:45:00 0.5 C 93 % -0.5 C
3815 21-03-2019 05:50:00 0.4 C 93 % -0.6 C
3816 21-03-2019 05:55:00 0.4 C 93 % -0.6 C
3817 21-03-2019 06:00:00 0.3 C 93 % -0.7 C
3818 21-03-2019 06:05:00 0.3 C 94 % -0.55 C
3819 21-03-2019 06:10:00 0.3 C 94 % -0.55 C
3820 21-03-2019 06:15:00 0.5 C 94 % -0.35 C
3821 21-03-2019 06:20:00 0.5 C 94 % -0.35 C
3822 21-03-2019 06:25:00 0.4 C 94 % -0.45 C
3823 21-03-2019 06:30:00 0.4 C 94 % -0.45 C
3824 21-03-2019 06:35:00 0.3 C 94 % -0.55 C
3825 21-03-2019 06:40:00 0.3 C 94 % -0.55 C
Sensor: Nr:Datum:Temp:Feuchte:Taupunkt:
Aussen-T/F 3826 21-03-2019 06:45:00 0.2 C 94 % -0.65 C
3827 21-03-2019 06:50:00 0.2 C 94 % -0.65 C
3828 21-03-2019 06:55:00 0.3 C 94 % -0.55 C
3829 21-03-2019 07:00:00 0.3 C 94 % -0.55 C
3830 21-03-2019 07:05:00 0.3 C 94 % -0.55 C
3831 21-03-2019 07:10:00 0.3 C 94 % -0.55 C
3832 21-03-2019 07:15:00 0.3 C 94 % -0.55 C
3833 21-03-2019 07:20:00 0.4 C 94 % -0.45 C
3834 21-03-2019 07:25:00 0.7 C 95 % -0.01 C
3835 21-03-2019 07:30:00 0.8 C 95 % 0.09 C
3836 21-03-2019 07:35:00 0.8 C 95 % 0.09 C
3837 21-03-2019 07:40:00 0.8 C 95 % 0.09 C
3838 21-03-2019 07:45:00 0.8 C 94 % -0.05 C
3839 21-03-2019 07:50:00 0.8 C 94 % -0.05 C
3840 21-03-2019 07:55:00 0.9 C 94 % 0.05 C
3841 21-03-2019 08:00:00 0.9 C 94 % 0.05 C
3842 21-03-2019 08:05:00 0.9 C 95 % 0.19 C
3843 21-03-2019 08:10:00 1 C 95 % 0.29 C
3844 21-03-2019 08:15:00 1.1 C 95 % 0.39 C
3845 21-03-2019 08:20:00 1.1 C 95 % 0.39 C
3846 21-03-2019 08:25:00 1.2 C 95 % 0.49 C
3847 21-03-2019 08:30:00 1.3 C 95 % 0.59 C
3848 21-03-2019 08:35:00 1.3 C 95 % 0.59 C
3849 21-03-2019 08:40:00 1.4 C 95 % 0.69 C
3850 21-03-2019 08:45:00 1.4 C 95 % 0.69 C
Sensor: Nr:Datum:Temp:Feuchte:Taupunkt:
Aussen-T/F 3851 21-03-2019 08:50:00 1.6 C 95 % 0.89 C
3852 21-03-2019 08:55:00 1.7 C 95 % 0.99 C
3853 21-03-2019 09:00:00 1.8 C 95 % 1.09 C
3854 21-03-2019 09:05:00 1.8 C 95 % 1.09 C
3855 21-03-2019 09:10:00 1.9 C 95 % 1.19 C
3856 21-03-2019 09:15:00 2.1 C 95 % 1.38 C
3857 21-03-2019 09:20:00 2.2 C 95 % 1.48 C
3858 21-03-2019 09:25:00 2.3 C 95 % 1.58 C
3859 21-03-2019 09:30:00 2.5 C 95 % 1.78 C
3860 21-03-2019 09:35:00 2.6 C 95 % 1.88 C
3861 21-03-2019 09:40:00 2.8 C 95 % 2.08 C
3862 21-03-2019 09:45:00 3.1 C 95 % 2.38 C
3863 21-03-2019 09:50:00 3.3 C 95 % 2.58 C
3864 21-03-2019 09:55:00 3.7 C 95 % 2.98 C
3865 21-03-2019 10:00:00 4 C 95 % 3.27 C
3866 21-03-2019 10:05:00 4.3 C 95 % 3.57 C
3867 21-03-2019 10:10:00 4.6 C 94 % 3.72 C
3868 21-03-2019 10:15:00 4.8 C 93 % 3.77 C
3869 21-03-2019 10:20:00 5.1 C 92 % 3.91 C
3870 21-03-2019 10:25:00 5.4 C 91 % 4.05 C
3871 21-03-2019 10:30:00 5.7 C 90 % 4.19 C
3872 21-03-2019 10:35:00 5.9 C 89 % 4.23 C
3873 21-03-2019 10:40:00 6.2 C 88 % 4.36 C
3874 21-03-2019 10:45:00 6.5 C 87 % 4.5 C
3875 21-03-2019 10:50:00 6.8 C 86 % 4.63 C
Sensor: Nr:Datum:Temp:Feuchte:Taupunkt:
Aussen-T/F 3876 21-03-2019 10:55:00 7.2 C 85 % 4.85 C
3877 21-03-2019 11:00:00 7.4 C 85 % 5.05 C
3878 21-03-2019 11:05:00 7.7 C 84 % 5.17 C
3879 21-03-2019 11:10:00 8.1 C 82 % 5.22 C
3880 21-03-2019 11:15:00 8.5 C 82 % 5.61 C
3881 21-03-2019 11:20:00 8.8 C 79 % 5.36 C
3882 21-03-2019 11:25:00 9.2 C 80 % 5.94 C
3883 21-03-2019 11:30:00 9.4 C 75 % 5.2 C
3884 21-03-2019 11:35:00 9.7 C 74 % 5.3 C
3885 21-03-2019 11:40:00 10.1 C 70 % 4.89 C
3886 21-03-2019 11:45:00 10.4 C 69 % 4.97 C
3887 21-03-2019 11:50:00 10.8 C 65 % 4.49 C
3888 21-03-2019 11:55:00 11.2 C 62 % 4.2 C
3889 21-03-2019 12:00:00 11.6 C 61 % 4.35 C
3890 21-03-2019 12:05:00 11.9 C 60 % 4.39 C
3891 21-03-2019 12:10:00 12.1 C 57 % 3.85 C
3892 21-03-2019 12:15:00 12.4 C 57 % 4.13 C
3893 21-03-2019 12:20:00 12.7 C 56 % 4.16 C
3894 21-03-2019 12:25:00 13 C 56 % 4.44 C
3895 21-03-2019 12:30:00 13.2 C 54 % 4.11 C
3896 21-03-2019 12:35:00 13.4 C 56 % 4.81 C
3897 21-03-2019 12:40:00 13.6 C 48 % 2.81 C
3898 21-03-2019 12:45:00 13.8 C 50 % 3.57 C
3899 21-03-2019 12:50:00 14 C 46 % 2.58 C
3900 21-03-2019 12:55:00 14.2 C 46 % 2.76 C